<?xml version="1.0" encoding="utf-8"?>
<gpx xmlns:xsi="http://www.w3.org/2001/XMLSchema-instance" xmlns:xsd="http://www.w3.org/2001/XMLSchema" version="1.1" creator="Shapelink.com" xmlns="http://www.topografix.com/GPX/1/1" xmlns:gpxtpx="http://www.garmin.com/xmlschemas/TrackPointExtension/v1">
  <metadata>
    <name>Längdskidåkning - Klassisk 30.97 km, 2013-03-11</name>
    <desc></desc>
    <author><name>Alexander Engvall</name></author> 
    <time>2013-03-11T20:15:46Z</time>
  </metadata>
  <trk>
    <name>Längdskidåkning - Klassisk 30.97 km, 2013-03-11</name>
    <trkseg>
      <trkpt lat="59.5925363" lon="17.5175486">
        <ele>50.4</ele>
        <time>2013-03-11T20:15:46Z</time>
      </trkpt>
      <trkpt lat="59.5925507" lon="17.5173321">
        <ele>49.2</ele>
        <time>2013-03-11T20:15:51Z</time>
      </trkpt>
      <trkpt lat="59.5925534" lon="17.517263">
        <ele>48.8</ele>
        <time>2013-03-11T20:15:52Z</time>
      </trkpt>
      <trkpt lat="59.5925892" lon="17.5168295">
        <ele>45.8</ele>
        <time>2013-03-11T20:15:57Z</time>
      </trkpt>
      <trkpt lat="59.592625" lon="17.5165642">
        <ele>43.6</ele>
        <time>2013-03-11T20:15:59Z</time>
      </trkpt>
      <trkpt lat="59.5926622" lon="17.5164364">
        <ele>43</ele>
        <time>2013-03-11T20:16:00Z</time>
      </trkpt>
      <trkpt lat="59.5927967" lon="17.5160977">
        <ele>41</ele>
        <time>2013-03-11T20:16:03Z</time>
      </trkpt>
      <trkpt lat="59.5929233" lon="17.5157237">
        <ele>39.6</ele>
        <time>2013-03-11T20:16:06Z</time>
      </trkpt>
      <trkpt lat="59.59305" lon="17.5153357">
        <ele>37.4</ele>
        <time>2013-03-11T20:16:09Z</time>
      </trkpt>
      <trkpt lat="59.5931819" lon="17.514943">
        <ele>36.2</ele>
        <time>2013-03-11T20:16:12Z</time>
      </trkpt>
      <trkpt lat="59.5932316" lon="17.5148323">
        <ele>35.8</ele>
        <time>2013-03-11T20:16:13Z</time>
      </trkpt>
      <trkpt lat="59.593346" lon="17.5146659">
        <ele>34.8</ele>
        <time>2013-03-11T20:16:15Z</time>
      </trkpt>
      <trkpt lat="59.5935174" lon="17.5145701">
        <ele>32.8</ele>
        <time>2013-03-11T20:16:18Z</time>
      </trkpt>
      <trkpt lat="59.5935651" lon="17.5145512">
        <ele>32.2</ele>
        <time>2013-03-11T20:16:19Z</time>
      </trkpt>
      <trkpt lat="59.5936711" lon="17.514511">
        <ele>31.4</ele>
        <time>2013-03-11T20:16:21Z</time>
      </trkpt>
      <trkpt lat="59.5937603" lon="17.5145163">
        <ele>29.8</ele>
        <time>2013-03-11T20:16:23Z</time>
      </trkpt>
      <trkpt lat="59.5939262" lon="17.5147168">
        <ele>29.6</ele>
        <time>2013-03-11T20:16:28Z</time>
      </trkpt>
      <trkpt lat="59.593965" lon="17.5148239">
        <ele>29.2</ele>
        <time>2013-03-11T20:16:30Z</time>
      </trkpt>
      <trkpt lat="59.593984" lon="17.5148636">
        <ele>28.8</ele>
        <time>2013-03-11T20:16:31Z</time>
      </trkpt>
      <trkpt lat="59.5940541" lon="17.5150079">
        <ele>29</ele>
        <time>2013-03-11T20:16:34Z</time>
      </trkpt>
      <trkpt lat="59.5942218" lon="17.5152293">
        <ele>33.6</ele>
        <time>2013-03-11T20:16:41Z</time>
      </trkpt>
      <trkpt lat="59.5944012" lon="17.5153664">
        <ele>36.8</ele>
        <time>2013-03-11T20:16:48Z</time>
      </trkpt>
      <trkpt lat="59.5945738" lon="17.5154812">
        <ele>38.6</ele>
        <time>2013-03-11T20:16:55Z</time>
      </trkpt>
      <trkpt lat="59.5947695" lon="17.5155879">
        <ele>38.2</ele>
        <time>2013-03-11T20:17:00Z</time>
      </trkpt>
      <trkpt lat="59.5949478" lon="17.5156468">
        <ele>36.2</ele>
        <time>2013-03-11T20:17:05Z</time>
      </trkpt>
      <trkpt lat="59.5951461" lon="17.5156507">
        <ele>35.8</ele>
        <time>2013-03-11T20:17:10Z</time>
      </trkpt>
      <trkpt lat="59.5953382" lon="17.5155071">
        <ele>35.4</ele>
        <time>2013-03-11T20:17:16Z</time>
      </trkpt>
      <trkpt lat="59.5954621" lon="17.5152281">
        <ele>34.4</ele>
        <time>2013-03-11T20:17:22Z</time>
      </trkpt>
      <trkpt lat="59.5955553" lon="17.5149135">
        <ele>34</ele>
        <time>2013-03-11T20:17:27Z</time>
      </trkpt>
      <trkpt lat="59.5956402" lon="17.5145297">
        <ele>31.6</ele>
        <time>2013-03-11T20:17:32Z</time>
      </trkpt>
      <trkpt lat="59.5956533" lon="17.514438">
        <ele>32.6</ele>
        <time>2013-03-11T20:17:33Z</time>
      </trkpt>
      <trkpt lat="59.5956717" lon="17.5141754">
        <ele>34.2</ele>
        <time>2013-03-11T20:17:36Z</time>
      </trkpt>
      <trkpt lat="59.5956722" lon="17.5140827">
        <ele>34.8</ele>
        <time>2013-03-11T20:17:37Z</time>
      </trkpt>
      <trkpt lat="59.5956857" lon="17.5138842">
        <ele>35.4</ele>
        <time>2013-03-11T20:17:39Z</time>
      </trkpt>
      <trkpt lat="59.5956896" lon="17.5137665">
        <ele>35.6</ele>
        <time>2013-03-11T20:17:40Z</time>
      </trkpt>
      <trkpt lat="59.5957071" lon="17.513358">
        <ele>35.2</ele>
        <time>2013-03-11T20:17:43Z</time>
      </trkpt>
      <trkpt lat="59.5957273" lon="17.5132106">
        <ele>35</ele>
        <time>2013-03-11T20:17:44Z</time>
      </trkpt>
      <trkpt lat="59.5958122" lon="17.5129323">
        <ele>34.2</ele>
        <time>2013-03-11T20:17:46Z</time>
      </trkpt>
      <trkpt lat="59.5959395" lon="17.5126913">
        <ele>34</ele>
        <time>2013-03-11T20:17:48Z</time>
      </trkpt>
      <trkpt lat="59.5961863" lon="17.5126332">
        <ele>31</ele>
        <time>2013-03-11T20:17:51Z</time>
      </trkpt>
      <trkpt lat="59.5963934" lon="17.5125715">
        <ele>29.8</ele>
        <time>2013-03-11T20:17:54Z</time>
      </trkpt>
      <trkpt lat="59.5965773" lon="17.5125737">
        <ele>27.8</ele>
        <time>2013-03-11T20:17:57Z</time>
      </trkpt>
      <trkpt lat="59.5967835" lon="17.512575">
        <ele>25.4</ele>
        <time>2013-03-11T20:18:01Z</time>
      </trkpt>
      <trkpt lat="59.5968305" lon="17.5125654">
        <ele>25</ele>
        <time>2013-03-11T20:18:02Z</time>
      </trkpt>
      <trkpt lat="59.5969729" lon="17.5124794">
        <ele>23.4</ele>
        <time>2013-03-11T20:18:05Z</time>
      </trkpt>
      <trkpt lat="59.5970736" lon="17.5124364">
        <ele>22.2</ele>
        <time>2013-03-11T20:18:07Z</time>
      </trkpt>
      <trkpt lat="59.5971591" lon="17.5123778">
        <ele>19.8</ele>
        <time>2013-03-11T20:18:09Z</time>
      </trkpt>
      <trkpt lat="59.5973533" lon="17.5122982">
        <ele>18.6</ele>
        <time>2013-03-11T20:18:13Z</time>
      </trkpt>
      <trkpt lat="59.5974466" lon="17.512269">
        <ele>18.2</ele>
        <time>2013-03-11T20:18:15Z</time>
      </trkpt>
      <trkpt lat="59.5975384" lon="17.512211">
        <ele>17.4</ele>
        <time>2013-03-11T20:18:17Z</time>
      </trkpt>
      <trkpt lat="59.5977257" lon="17.5120551">
        <ele>16</ele>
        <time>2013-03-11T20:18:21Z</time>
      </trkpt>
      <trkpt lat="59.597903" lon="17.5118622">
        <ele>18</ele>
        <time>2013-03-11T20:18:25Z</time>
      </trkpt>
      <trkpt lat="59.5980747" lon="17.5116178">
        <ele>18.2</ele>
        <time>2013-03-11T20:18:29Z</time>
      </trkpt>
      <trkpt lat="59.5982187" lon="17.5114004">
        <ele>19.4</ele>
        <time>2013-03-11T20:18:32Z</time>
      </trkpt>
      <trkpt lat="59.5983762" lon="17.5112127">
        <ele>20</ele>
        <time>2013-03-11T20:18:35Z</time>
      </trkpt>
      <trkpt lat="59.5984313" lon="17.5111564">
        <ele>20.6</ele>
        <time>2013-03-11T20:18:36Z</time>
      </trkpt>
      <trkpt lat="59.5985969" lon="17.5110786">
        <ele>19.6</ele>
        <time>2013-03-11T20:18:39Z</time>
      </trkpt>
      <trkpt lat="59.5987892" lon="17.510971">
        <ele>17.4</ele>
        <time>2013-03-11T20:18:43Z</time>
      </trkpt>
      <trkpt lat="59.5989722" lon="17.5108793">
        <ele>15</ele>
        <time>2013-03-11T20:18:47Z</time>
      </trkpt>
      <trkpt lat="59.5990307" lon="17.5108695">
        <ele>14.4</ele>
        <time>2013-03-11T20:18:48Z</time>
      </trkpt>
      <trkpt lat="59.5991534" lon="17.5108972">
        <ele>13</ele>
        <time>2013-03-11T20:18:50Z</time>
      </trkpt>
      <trkpt lat="59.5993472" lon="17.511131">
        <ele>12.4</ele>
        <time>2013-03-11T20:18:54Z</time>
      </trkpt>
      <trkpt lat="59.5994588" lon="17.5115029">
        <ele>14.8</ele>
        <time>2013-03-11T20:18:59Z</time>
      </trkpt>
      <trkpt lat="59.599473" lon="17.5118816">
        <ele>20.4</ele>
        <time>2013-03-11T20:19:04Z</time>
      </trkpt>
      <trkpt lat="59.5994164" lon="17.5120671">
        <ele>25.2</ele>
        <time>2013-03-11T20:19:07Z</time>
      </trkpt>
      <trkpt lat="59.5993587" lon="17.5122072">
        <ele>28.8</ele>
        <time>2013-03-11T20:19:09Z</time>
      </trkpt>
      <trkpt lat="59.5993175" lon="17.5122541">
        <ele>28.2</ele>
        <time>2013-03-11T20:19:10Z</time>
      </trkpt>
      <trkpt lat="59.5991741" lon="17.5123909">
        <ele>31.2</ele>
        <time>2013-03-11T20:19:14Z</time>
      </trkpt>
      <trkpt lat="59.5991482" lon="17.5124472">
        <ele>32.2</ele>
        <time>2013-03-11T20:19:15Z</time>
      </trkpt>
      <trkpt lat="59.5991048" lon="17.512568">
        <ele>32.8</ele>
        <time>2013-03-11T20:19:17Z</time>
      </trkpt>
      <trkpt lat="59.5990763" lon="17.5127181">
        <ele>33.2</ele>
        <time>2013-03-11T20:19:19Z</time>
      </trkpt>
      <trkpt lat="59.5990726" lon="17.5127895">
        <ele>33.4</ele>
        <time>2013-03-11T20:19:20Z</time>
      </trkpt>
      <trkpt lat="59.5990933" lon="17.513146">
        <ele>34.4</ele>
        <time>2013-03-11T20:19:24Z</time>
      </trkpt>
      <trkpt lat="59.5990698" lon="17.5134103">
        <ele>35.6</ele>
        <time>2013-03-11T20:19:27Z</time>
      </trkpt>
      <trkpt lat="59.5990541" lon="17.513472">
        <ele>36.2</ele>
        <time>2013-03-11T20:19:28Z</time>
      </trkpt>
      <trkpt lat="59.5990331" lon="17.5135227">
        <ele>37.2</ele>
        <time>2013-03-11T20:19:29Z</time>
      </trkpt>
      <trkpt lat="59.598994" lon="17.5136152">
        <ele>38.4</ele>
        <time>2013-03-11T20:19:31Z</time>
      </trkpt>
      <trkpt lat="59.5988913" lon="17.5137618">
        <ele>39</ele>
        <time>2013-03-11T20:19:35Z</time>
      </trkpt>
      <trkpt lat="59.5987043" lon="17.5138538">
        <ele>44</ele>
        <time>2013-03-11T20:19:42Z</time>
      </trkpt>
      <trkpt lat="59.5986509" lon="17.51385">
        <ele>43.8</ele>
        <time>2013-03-11T20:19:44Z</time>
      </trkpt>
      <trkpt lat="59.5985441" lon="17.5138428">
        <ele>45</ele>
        <time>2013-03-11T20:19:48Z</time>
      </trkpt>
      <trkpt lat="59.5985188" lon="17.5138351">
        <ele>44.8</ele>
        <time>2013-03-11T20:19:49Z</time>
      </trkpt>
      <trkpt lat="59.598318" lon="17.5137753">
        <ele>42.2</ele>
        <time>2013-03-11T20:19:55Z</time>
      </trkpt>
      <trkpt lat="59.5981371" lon="17.5138126">
        <ele>41.2</ele>
        <time>2013-03-11T20:20:01Z</time>
      </trkpt>
      <trkpt lat="59.59796" lon="17.5139246">
        <ele>39.4</ele>
        <time>2013-03-11T20:20:08Z</time>
      </trkpt>
      <trkpt lat="59.5978181" lon="17.5141567">
        <ele>40.4</ele>
        <time>2013-03-11T20:20:13Z</time>
      </trkpt>
      <trkpt lat="59.5976522" lon="17.5143896">
        <ele>41.2</ele>
        <time>2013-03-11T20:20:18Z</time>
      </trkpt>
      <trkpt lat="59.5974697" lon="17.5145119">
        <ele>40.2</ele>
        <time>2013-03-11T20:20:24Z</time>
      </trkpt>
      <trkpt lat="59.5972894" lon="17.5145867">
        <ele>39</ele>
        <time>2013-03-11T20:20:29Z</time>
      </trkpt>
      <trkpt lat="59.5970921" lon="17.5146482">
        <ele>40.6</ele>
        <time>2013-03-11T20:20:35Z</time>
      </trkpt>
      <trkpt lat="59.5969172" lon="17.5148103">
        <ele>41</ele>
        <time>2013-03-11T20:20:41Z</time>
      </trkpt>
      <trkpt lat="59.5967478" lon="17.514999">
        <ele>44.6</ele>
        <time>2013-03-11T20:20:46Z</time>
      </trkpt>
      <trkpt lat="59.5965779" lon="17.5151656">
        <ele>49.8</ele>
        <time>2013-03-11T20:20:52Z</time>
      </trkpt>
      <trkpt lat="59.5964271" lon="17.515348">
        <ele>51.2</ele>
        <time>2013-03-11T20:20:58Z</time>
      </trkpt>
      <trkpt lat="59.5962483" lon="17.5155093">
        <ele>52</ele>
        <time>2013-03-11T20:21:03Z</time>
      </trkpt>
      <trkpt lat="59.5960599" lon="17.5157061">
        <ele>50.2</ele>
        <time>2013-03-11T20:21:09Z</time>
      </trkpt>
      <trkpt lat="59.5958848" lon="17.515895">
        <ele>50</ele>
        <time>2013-03-11T20:21:14Z</time>
      </trkpt>
      <trkpt lat="59.5957564" lon="17.5162048">
        <ele>51.4</ele>
        <time>2013-03-11T20:21:19Z</time>
      </trkpt>
      <trkpt lat="59.5957173" lon="17.5163461">
        <ele>51.8</ele>
        <time>2013-03-11T20:21:21Z</time>
      </trkpt>
      <trkpt lat="59.5956916" lon="17.5165808">
        <ele>52.6</ele>
        <time>2013-03-11T20:21:24Z</time>
      </trkpt>
      <trkpt lat="59.5956696" lon="17.516796">
        <ele>53.4</ele>
        <time>2013-03-11T20:21:27Z</time>
      </trkpt>
      <trkpt lat="59.5956342" lon="17.5169575">
        <ele>54.4</ele>
        <time>2013-03-11T20:21:29Z</time>
      </trkpt>
      <trkpt lat="59.595609" lon="17.5170351">
        <ele>54.6</ele>
        <time>2013-03-11T20:21:30Z</time>
      </trkpt>
      <trkpt lat="59.5955283" lon="17.517241">
        <ele>55.2</ele>
        <time>2013-03-11T20:21:32Z</time>
      </trkpt>
      <trkpt lat="59.5953172" lon="17.5174614">
        <ele>52.8</ele>
        <time>2013-03-11T20:21:35Z</time>
      </trkpt>
      <trkpt lat="59.5951451" lon="17.5174911">
        <ele>49.8</ele>
        <time>2013-03-11T20:21:37Z</time>
      </trkpt>
      <trkpt lat="59.5950631" lon="17.5175066">
        <ele>49</ele>
        <time>2013-03-11T20:21:38Z</time>
      </trkpt>
      <trkpt lat="59.5948317" lon="17.5175719">
        <ele>47.4</ele>
        <time>2013-03-11T20:21:41Z</time>
      </trkpt>
      <trkpt lat="59.5946116" lon="17.5176272">
        <ele>46.8</ele>
        <time>2013-03-11T20:21:44Z</time>
      </trkpt>
      <trkpt lat="59.5944152" lon="17.5177142">
        <ele>47.4</ele>
        <time>2013-03-11T20:21:47Z</time>
      </trkpt>
      <trkpt lat="59.5942384" lon="17.5178485">
        <ele>46.6</ele>
        <time>2013-03-11T20:21:50Z</time>
      </trkpt>
      <trkpt lat="59.594051" lon="17.5180036">
        <ele>44.4</ele>
        <time>2013-03-11T20:21:54Z</time>
      </trkpt>
      <trkpt lat="59.5938702" lon="17.5181081">
        <ele>41.8</ele>
        <time>2013-03-11T20:21:59Z</time>
      </trkpt>
      <trkpt lat="59.5936625" lon="17.5181923">
        <ele>39.2</ele>
        <time>2013-03-11T20:22:04Z</time>
      </trkpt>
      <trkpt lat="59.5935418" lon="17.518292">
        <ele>38.8</ele>
        <time>2013-03-11T20:22:07Z</time>
      </trkpt>
      <trkpt lat="59.5934917" lon="17.5183477">
        <ele>39.6</ele>
        <time>2013-03-11T20:22:08Z</time>
      </trkpt>
      <trkpt lat="59.5933803" lon="17.5184981">
        <ele>39</ele>
        <time>2013-03-11T20:22:11Z</time>
      </trkpt>
      <trkpt lat="59.5933414" lon="17.5185415">
        <ele>39.2</ele>
        <time>2013-03-11T20:22:12Z</time>
      </trkpt>
      <trkpt lat="59.5933004" lon="17.5185858">
        <ele>39</ele>
        <time>2013-03-11T20:22:13Z</time>
      </trkpt>
      <trkpt lat="59.5931015" lon="17.5186545">
        <ele>37.8</ele>
        <time>2013-03-11T20:22:18Z</time>
      </trkpt>
      <trkpt lat="59.5929306" lon="17.5185752">
        <ele>37.6</ele>
        <time>2013-03-11T20:22:21Z</time>
      </trkpt>
      <trkpt lat="59.5928887" lon="17.518536">
        <ele>37.4</ele>
        <time>2013-03-11T20:22:22Z</time>
      </trkpt>
      <trkpt lat="59.5927456" lon="17.5183584">
        <ele>35.2</ele>
        <time>2013-03-11T20:22:25Z</time>
      </trkpt>
      <trkpt lat="59.5927026" lon="17.5182963">
        <ele>34.6</ele>
        <time>2013-03-11T20:22:26Z</time>
      </trkpt>
      <trkpt lat="59.5925922" lon="17.5180977">
        <ele>33.2</ele>
        <time>2013-03-11T20:22:29Z</time>
      </trkpt>
      <trkpt lat="59.5925598" lon="17.5180118">
        <ele>32.8</ele>
        <time>2013-03-11T20:22:30Z</time>
      </trkpt>
      <trkpt lat="59.5924964" lon="17.5178287">
        <ele>32.4</ele>
        <time>2013-03-11T20:22:32Z</time>
      </trkpt>
      <trkpt lat="59.5924649" lon="17.5176484">
        <ele>31.6</ele>
        <time>2013-03-11T20:22:34Z</time>
      </trkpt>
      <trkpt lat="59.5924769" lon="17.5174861">
        <ele>31.8</ele>
        <time>2013-03-11T20:22:36Z</time>
      </trkpt>
      <trkpt lat="59.5924861" lon="17.5173181">
        <ele>31.6</ele>
        <time>2013-03-11T20:22:38Z</time>
      </trkpt>
      <trkpt lat="59.5924944" lon="17.517241">
        <ele>30.6</ele>
        <time>2013-03-11T20:22:39Z</time>
      </trkpt>
      <trkpt lat="59.5925114" lon="17.5170682">
        <ele>29.4</ele>
        <time>2013-03-11T20:22:41Z</time>
      </trkpt>
      <trkpt lat="59.5925219" lon="17.5168721">
        <ele>27.6</ele>
        <time>2013-03-11T20:22:43Z</time>
      </trkpt>
      <trkpt lat="59.5925462" lon="17.5166313">
        <ele>26</ele>
        <time>2013-03-11T20:22:45Z</time>
      </trkpt>
      <trkpt lat="59.5925748" lon="17.5165076">
        <ele>25.4</ele>
        <time>2013-03-11T20:22:46Z</time>
      </trkpt>
      <trkpt lat="59.5927072" lon="17.5161613">
        <ele>24</ele>
        <time>2013-03-11T20:22:49Z</time>
      </trkpt>
      <trkpt lat="59.5927549" lon="17.5160574">
        <ele>23</ele>
        <time>2013-03-11T20:22:50Z</time>
      </trkpt>
      <trkpt lat="59.5928266" lon="17.5158051">
        <ele>20.6</ele>
        <time>2013-03-11T20:22:52Z</time>
      </trkpt>
      <trkpt lat="59.5929472" lon="17.5154444">
        <ele>16.6</ele>
        <time>2013-03-11T20:22:55Z</time>
      </trkpt>
      <trkpt lat="59.5930772" lon="17.5150658">
        <ele>14</ele>
        <time>2013-03-11T20:22:58Z</time>
      </trkpt>
      <trkpt lat="59.5932309" lon="17.5147534">
        <ele>11.6</ele>
        <time>2013-03-11T20:23:01Z</time>
      </trkpt>
      <trkpt lat="59.5934134" lon="17.5146162">
        <ele>11</ele>
        <time>2013-03-11T20:23:04Z</time>
      </trkpt>
      <trkpt lat="59.5934745" lon="17.5146028">
        <ele>10</ele>
        <time>2013-03-11T20:23:05Z</time>
      </trkpt>
      <trkpt lat="59.5936347" lon="17.5145623">
        <ele>9</ele>
        <time>2013-03-11T20:23:08Z</time>
      </trkpt>
      <trkpt lat="59.5938412" lon="17.5146892">
        <ele>11.8</ele>
        <time>2013-03-11T20:23:13Z</time>
      </trkpt>
      <trkpt lat="59.5938721" lon="17.5147436">
        <ele>12.8</ele>
        <time>2013-03-11T20:23:14Z</time>
      </trkpt>
      <trkpt lat="59.5939065" lon="17.5147897">
        <ele>13.6</ele>
        <time>2013-03-11T20:23:15Z</time>
      </trkpt>
      <trkpt lat="59.5939907" lon="17.5149269">
        <ele>15.8</ele>
        <time>2013-03-11T20:23:18Z</time>
      </trkpt>
      <trkpt lat="59.5941338" lon="17.5151373">
        <ele>24.8</ele>
        <time>2013-03-11T20:23:23Z</time>
      </trkpt>
      <trkpt lat="59.5943059" lon="17.5153393">
        <ele>30.2</ele>
        <time>2013-03-11T20:23:29Z</time>
      </trkpt>
      <trkpt lat="59.5944815" lon="17.5154772">
        <ele>33.2</ele>
        <time>2013-03-11T20:23:36Z</time>
      </trkpt>
      <trkpt lat="59.5946766" lon="17.5155603">
        <ele>34</ele>
        <time>2013-03-11T20:23:42Z</time>
      </trkpt>
      <trkpt lat="59.5948705" lon="17.5156413">
        <ele>33</ele>
        <time>2013-03-11T20:23:47Z</time>
      </trkpt>
      <trkpt lat="59.5950514" lon="17.5156743">
        <ele>32.4</ele>
        <time>2013-03-11T20:23:52Z</time>
      </trkpt>
      <trkpt lat="59.5952357" lon="17.5156123">
        <ele>32</ele>
        <time>2013-03-11T20:23:57Z</time>
      </trkpt>
      <trkpt lat="59.5953776" lon="17.5153891">
        <ele>31</ele>
        <time>2013-03-11T20:24:03Z</time>
      </trkpt>
      <trkpt lat="59.5954969" lon="17.5150777">
        <ele>32.6</ele>
        <time>2013-03-11T20:24:09Z</time>
      </trkpt>
      <trkpt lat="59.5955677" lon="17.5146738">
        <ele>33</ele>
        <time>2013-03-11T20:24:14Z</time>
      </trkpt>
      <trkpt lat="59.5956499" lon="17.5143551">
        <ele>31.6</ele>
        <time>2013-03-11T20:24:18Z</time>
      </trkpt>
      <trkpt lat="59.5957024" lon="17.5140085">
        <ele>33.8</ele>
        <time>2013-03-11T20:24:22Z</time>
      </trkpt>
      <trkpt lat="59.5957114" lon="17.5136407">
        <ele>32.6</ele>
        <time>2013-03-11T20:24:25Z</time>
      </trkpt>
      <trkpt lat="59.5957279" lon="17.5133594">
        <ele>32.4</ele>
        <time>2013-03-11T20:24:27Z</time>
      </trkpt>
      <trkpt lat="59.5957421" lon="17.5132041">
        <ele>32.4</ele>
        <time>2013-03-11T20:24:28Z</time>
      </trkpt>
      <trkpt lat="59.5958792" lon="17.5128108">
        <ele>31.2</ele>
        <time>2013-03-11T20:24:31Z</time>
      </trkpt>
      <trkpt lat="59.5961055" lon="17.5126654">
        <ele>29.6</ele>
        <time>2013-03-11T20:24:34Z</time>
      </trkpt>
      <trkpt lat="59.5961819" lon="17.5126368">
        <ele>29</ele>
        <time>2013-03-11T20:24:35Z</time>
      </trkpt>
      <trkpt lat="59.5963215" lon="17.5125783">
        <ele>29.2</ele>
        <time>2013-03-11T20:24:37Z</time>
      </trkpt>
      <trkpt lat="59.5965111" lon="17.512553">
        <ele>29.4</ele>
        <time>2013-03-11T20:24:40Z</time>
      </trkpt>
      <trkpt lat="59.5967333" lon="17.5125637">
        <ele>28</ele>
        <time>2013-03-11T20:24:44Z</time>
      </trkpt>
      <trkpt lat="59.5968815" lon="17.5125525">
        <ele>28.4</ele>
        <time>2013-03-11T20:24:47Z</time>
      </trkpt>
      <trkpt lat="59.5969316" lon="17.5125317">
        <ele>28.2</ele>
        <time>2013-03-11T20:24:48Z</time>
      </trkpt>
      <trkpt lat="59.5969745" lon="17.512488">
        <ele>28.2</ele>
        <time>2013-03-11T20:24:49Z</time>
      </trkpt>
      <trkpt lat="59.5971112" lon="17.5124088">
        <ele>27.8</ele>
        <time>2013-03-11T20:24:52Z</time>
      </trkpt>
      <trkpt lat="59.5971512" lon="17.5123815">
        <ele>27.8</ele>
        <time>2013-03-11T20:24:53Z</time>
      </trkpt>
      <trkpt lat="59.5972937" lon="17.5123225">
        <ele>28</ele>
        <time>2013-03-11T20:24:56Z</time>
      </trkpt>
      <trkpt lat="59.5974632" lon="17.5122445">
        <ele>27.4</ele>
        <time>2013-03-11T20:25:00Z</time>
      </trkpt>
      <trkpt lat="59.5975004" lon="17.5122312">
        <ele>26.8</ele>
        <time>2013-03-11T20:25:01Z</time>
      </trkpt>
      <trkpt lat="59.5975801" lon="17.51218">
        <ele>26</ele>
        <time>2013-03-11T20:25:03Z</time>
      </trkpt>
      <trkpt lat="59.5976722" lon="17.5121125">
        <ele>25.4</ele>
        <time>2013-03-11T20:25:05Z</time>
      </trkpt>
      <trkpt lat="59.5978574" lon="17.5119894">
        <ele>21.8</ele>
        <time>2013-03-11T20:25:09Z</time>
      </trkpt>
      <trkpt lat="59.5978983" lon="17.511954">
        <ele>21</ele>
        <time>2013-03-11T20:25:10Z</time>
      </trkpt>
      <trkpt lat="59.598016" lon="17.5117614">
        <ele>18.8</ele>
        <time>2013-03-11T20:25:13Z</time>
      </trkpt>
      <trkpt lat="59.5981893" lon="17.5114872">
        <ele>16.8</ele>
        <time>2013-03-11T20:25:17Z</time>
      </trkpt>
      <trkpt lat="59.598339" lon="17.5112714">
        <ele>15.6</ele>
        <time>2013-03-11T20:25:20Z</time>
      </trkpt>
      <trkpt lat="59.598508" lon="17.5111296">
        <ele>15.4</ele>
        <time>2013-03-11T20:25:23Z</time>
      </trkpt>
      <trkpt lat="59.5987064" lon="17.5110259">
        <ele>15.2</ele>
        <time>2013-03-11T20:25:27Z</time>
      </trkpt>
      <trkpt lat="59.5988976" lon="17.5109089">
        <ele>15.4</ele>
        <time>2013-03-11T20:25:31Z</time>
      </trkpt>
      <trkpt lat="59.5990605" lon="17.5108485">
        <ele>14.4</ele>
        <time>2013-03-11T20:25:34Z</time>
      </trkpt>
      <trkpt lat="59.5991146" lon="17.5108529">
        <ele>14.8</ele>
        <time>2013-03-11T20:25:35Z</time>
      </trkpt>
      <trkpt lat="59.5992789" lon="17.5109234">
        <ele>15.4</ele>
        <time>2013-03-11T20:25:38Z</time>
      </trkpt>
      <trkpt lat="59.5993289" lon="17.5109821">
        <ele>16</ele>
        <time>2013-03-11T20:25:39Z</time>
      </trkpt>
      <trkpt lat="59.5994502" lon="17.5112138">
        <ele>17.2</ele>
        <time>2013-03-11T20:25:42Z</time>
      </trkpt>
      <trkpt lat="59.5994756" lon="17.5112983">
        <ele>18</ele>
        <time>2013-03-11T20:25:43Z</time>
      </trkpt>
      <trkpt lat="59.5995229" lon="17.5116134">
        <ele>23</ele>
        <time>2013-03-11T20:25:47Z</time>
      </trkpt>
      <trkpt lat="59.5995285" lon="17.5117056">
        <ele>24.2</ele>
        <time>2013-03-11T20:25:48Z</time>
      </trkpt>
      <trkpt lat="59.5995456" lon="17.5120749">
        <ele>30.8</ele>
        <time>2013-03-11T20:25:52Z</time>
      </trkpt>
      <trkpt lat="59.5993846" lon="17.5122603">
        <ele>33.4</ele>
        <time>2013-03-11T20:25:56Z</time>
      </trkpt>
      <trkpt lat="59.5992649" lon="17.5123716">
        <ele>37.4</ele>
        <time>2013-03-11T20:25:59Z</time>
      </trkpt>
      <trkpt lat="59.5992081" lon="17.5124574">
        <ele>39.6</ele>
        <time>2013-03-11T20:26:01Z</time>
      </trkpt>
      <trkpt lat="59.5991887" lon="17.5127928">
        <ele>45</ele>
        <time>2013-03-11T20:26:06Z</time>
      </trkpt>
      <trkpt lat="59.5991981" lon="17.5131715">
        <ele>49.8</ele>
        <time>2013-03-11T20:26:10Z</time>
      </trkpt>
      <trkpt lat="59.5991145" lon="17.5135366">
        <ele>52.2</ele>
        <time>2013-03-11T20:26:15Z</time>
      </trkpt>
      <trkpt lat="59.5989624" lon="17.5138127">
        <ele>53.6</ele>
        <time>2013-03-11T20:26:21Z</time>
      </trkpt>
      <trkpt lat="59.5987818" lon="17.513906">
        <ele>49.6</ele>
        <time>2013-03-11T20:26:27Z</time>
      </trkpt>
      <trkpt lat="59.5985847" lon="17.5138489">
        <ele>46.8</ele>
        <time>2013-03-11T20:26:34Z</time>
      </trkpt>
      <trkpt lat="59.598381" lon="17.5138229">
        <ele>42.8</ele>
        <time>2013-03-11T20:26:40Z</time>
      </trkpt>
      <trkpt lat="59.5981933" lon="17.5138345">
        <ele>41.2</ele>
        <time>2013-03-11T20:26:46Z</time>
      </trkpt>
      <trkpt lat="59.5980096" lon="17.513921">
        <ele>41.4</ele>
        <time>2013-03-11T20:26:53Z</time>
      </trkpt>
      <trkpt lat="59.597868" lon="17.5141752">
        <ele>44.6</ele>
        <time>2013-03-11T20:26:59Z</time>
      </trkpt>
      <trkpt lat="59.5977064" lon="17.514452">
        <ele>47.6</ele>
        <time>2013-03-11T20:27:04Z</time>
      </trkpt>
      <trkpt lat="59.5975073" lon="17.5145635">
        <ele>47.6</ele>
        <time>2013-03-11T20:27:10Z</time>
      </trkpt>
      <trkpt lat="59.5973239" lon="17.5146416">
        <ele>49.8</ele>
        <time>2013-03-11T20:27:15Z</time>
      </trkpt>
      <trkpt lat="59.5971336" lon="17.5146597">
        <ele>46.8</ele>
        <time>2013-03-11T20:27:21Z</time>
      </trkpt>
      <trkpt lat="59.596947" lon="17.5147336">
        <ele>44.6</ele>
        <time>2013-03-11T20:27:27Z</time>
      </trkpt>
      <trkpt lat="59.5967686" lon="17.5149674">
        <ele>44.8</ele>
        <time>2013-03-11T20:27:32Z</time>
      </trkpt>
      <trkpt lat="59.5965767" lon="17.515154">
        <ele>47.8</ele>
        <time>2013-03-11T20:27:38Z</time>
      </trkpt>
      <trkpt lat="59.5964318" lon="17.5153616">
        <ele>51.4</ele>
        <time>2013-03-11T20:27:44Z</time>
      </trkpt>
      <trkpt lat="59.5962537" lon="17.5155898">
        <ele>53.6</ele>
        <time>2013-03-11T20:27:50Z</time>
      </trkpt>
      <trkpt lat="59.5960903" lon="17.5157791">
        <ele>58.2</ele>
        <time>2013-03-11T20:27:56Z</time>
      </trkpt>
      <trkpt lat="59.5959379" lon="17.5159872">
        <ele>56.8</ele>
        <time>2013-03-11T20:28:01Z</time>
      </trkpt>
      <trkpt lat="59.5958231" lon="17.5162676">
        <ele>58.8</ele>
        <time>2013-03-11T20:28:06Z</time>
      </trkpt>
      <trkpt lat="59.5957655" lon="17.5166327">
        <ele>59.8</ele>
        <time>2013-03-11T20:28:11Z</time>
      </trkpt>
      <trkpt lat="59.595682" lon="17.5170263">
        <ele>63.8</ele>
        <time>2013-03-11T20:28:16Z</time>
      </trkpt>
      <trkpt lat="59.5955929" lon="17.5172617">
        <ele>65</ele>
        <time>2013-03-11T20:28:19Z</time>
      </trkpt>
      <trkpt lat="59.5955434" lon="17.5173496">
        <ele>65.2</ele>
        <time>2013-03-11T20:28:20Z</time>
      </trkpt>
      <trkpt lat="59.5953336" lon="17.5175583">
        <ele>66</ele>
        <time>2013-03-11T20:28:23Z</time>
      </trkpt>
      <trkpt lat="59.5951658" lon="17.5176091">
        <ele>65.2</ele>
        <time>2013-03-11T20:28:25Z</time>
      </trkpt>
      <trkpt lat="59.595083" lon="17.5176237">
        <ele>64.4</ele>
        <time>2013-03-11T20:28:26Z</time>
      </trkpt>
      <trkpt lat="59.5948451" lon="17.5176782">
        <ele>62.4</ele>
        <time>2013-03-11T20:28:29Z</time>
      </trkpt>
      <trkpt lat="59.5946233" lon="17.5177334">
        <ele>62.8</ele>
        <time>2013-03-11T20:28:32Z</time>
      </trkpt>
      <trkpt lat="59.5944286" lon="17.5178093">
        <ele>64.2</ele>
        <time>2013-03-11T20:28:35Z</time>
      </trkpt>
      <trkpt lat="59.5942758" lon="17.5179251">
        <ele>63</ele>
        <time>2013-03-11T20:28:38Z</time>
      </trkpt>
      <trkpt lat="59.5942277" lon="17.5179713">
        <ele>62.6</ele>
        <time>2013-03-11T20:28:39Z</time>
      </trkpt>
      <trkpt lat="59.5940904" lon="17.5180649">
        <ele>62.4</ele>
        <time>2013-03-11T20:28:42Z</time>
      </trkpt>
      <trkpt lat="59.5940514" lon="17.5180792">
        <ele>61.8</ele>
        <time>2013-03-11T20:28:43Z</time>
      </trkpt>
      <trkpt lat="59.5938876" lon="17.5181572">
        <ele>58.8</ele>
        <time>2013-03-11T20:28:47Z</time>
      </trkpt>
      <trkpt lat="59.5938458" lon="17.5181709">
        <ele>58</ele>
        <time>2013-03-11T20:28:48Z</time>
      </trkpt>
      <trkpt lat="59.5936799" lon="17.5182459">
        <ele>53.6</ele>
        <time>2013-03-11T20:28:52Z</time>
      </trkpt>
      <trkpt lat="59.5936366" lon="17.5182821">
        <ele>52.6</ele>
        <time>2013-03-11T20:28:53Z</time>
      </trkpt>
      <trkpt lat="59.5935931" lon="17.5183236">
        <ele>51.4</ele>
        <time>2013-03-11T20:28:54Z</time>
      </trkpt>
      <trkpt lat="59.593517" lon="17.5184195">
        <ele>50.2</ele>
        <time>2013-03-11T20:28:56Z</time>
      </trkpt>
      <trkpt lat="59.5934608" lon="17.5185169">
        <ele>49.6</ele>
        <time>2013-03-11T20:28:58Z</time>
      </trkpt>
      <trkpt lat="59.5932569" lon="17.5186841">
        <ele>49.8</ele>
        <time>2013-03-11T20:29:03Z</time>
      </trkpt>
      <trkpt lat="59.5930725" lon="17.5186974">
        <ele>49.6</ele>
        <time>2013-03-11T20:29:07Z</time>
      </trkpt>
      <trkpt lat="59.5928746" lon="17.5185337">
        <ele>50.4</ele>
        <time>2013-03-11T20:29:11Z</time>
      </trkpt>
      <trkpt lat="59.5928337" lon="17.5184718">
        <ele>50.4</ele>
        <time>2013-03-11T20:29:12Z</time>
      </trkpt>
      <trkpt lat="59.5927074" lon="17.5182707">
        <ele>48.4</ele>
        <time>2013-03-11T20:29:15Z</time>
      </trkpt>
      <trkpt lat="59.5925399" lon="17.5179689">
        <ele>48</ele>
        <time>2013-03-11T20:29:19Z</time>
      </trkpt>
      <trkpt lat="59.592512" lon="17.5175552">
        <ele>47.6</ele>
        <time>2013-03-11T20:29:24Z</time>
      </trkpt>
      <trkpt lat="59.5925348" lon="17.5174016">
        <ele>47.2</ele>
        <time>2013-03-11T20:29:26Z</time>
      </trkpt>
      <trkpt lat="59.5925773" lon="17.51717">
        <ele>46.8</ele>
        <time>2013-03-11T20:29:29Z</time>
      </trkpt>
      <trkpt lat="59.5926025" lon="17.516867">
        <ele>45.2</ele>
        <time>2013-03-11T20:29:33Z</time>
      </trkpt>
      <trkpt lat="59.5926124" lon="17.5167654">
        <ele>44.4</ele>
        <time>2013-03-11T20:29:34Z</time>
      </trkpt>
      <trkpt lat="59.5926279" lon="17.5166458">
        <ele>43.4</ele>
        <time>2013-03-11T20:29:35Z</time>
      </trkpt>
      <trkpt lat="59.5927025" lon="17.5164233">
        <ele>44.2</ele>
        <time>2013-03-11T20:29:37Z</time>
      </trkpt>
      <trkpt lat="59.592782" lon="17.51621">
        <ele>43.8</ele>
        <time>2013-03-11T20:29:39Z</time>
      </trkpt>
      <trkpt lat="59.5928304" lon="17.5161151">
        <ele>43.2</ele>
        <time>2013-03-11T20:29:40Z</time>
      </trkpt>
      <trkpt lat="59.5929678" lon="17.5157842">
        <ele>43.2</ele>
        <time>2013-03-11T20:29:43Z</time>
      </trkpt>
      <trkpt lat="59.5931037" lon="17.5154177">
        <ele>43.2</ele>
        <time>2013-03-11T20:29:46Z</time>
      </trkpt>
      <trkpt lat="59.5932284" lon="17.5150275">
        <ele>43.8</ele>
        <time>2013-03-11T20:29:49Z</time>
      </trkpt>
      <trkpt lat="59.5932783" lon="17.5149159">
        <ele>44.2</ele>
        <time>2013-03-11T20:29:50Z</time>
      </trkpt>
      <trkpt lat="59.5933801" lon="17.5147232">
        <ele>44.8</ele>
        <time>2013-03-11T20:29:52Z</time>
      </trkpt>
      <trkpt lat="59.5935466" lon="17.514593">
        <ele>44.8</ele>
        <time>2013-03-11T20:29:55Z</time>
      </trkpt>
      <trkpt lat="59.5935963" lon="17.514568">
        <ele>44.8</ele>
        <time>2013-03-11T20:29:56Z</time>
      </trkpt>
      <trkpt lat="59.5937323" lon="17.5145272">
        <ele>44.6</ele>
        <time>2013-03-11T20:29:59Z</time>
      </trkpt>
      <trkpt lat="59.5938095" lon="17.5145312">
        <ele>45.6</ele>
        <time>2013-03-11T20:30:01Z</time>
      </trkpt>
      <trkpt lat="59.593918" lon="17.5146032">
        <ele>46.2</ele>
        <time>2013-03-11T20:30:04Z</time>
      </trkpt>
      <trkpt lat="59.5939775" lon="17.5146754">
        <ele>45.8</ele>
        <time>2013-03-11T20:30:06Z</time>
      </trkpt>
      <trkpt lat="59.5941184" lon="17.514941">
        <ele>52.2</ele>
        <time>2013-03-11T20:30:12Z</time>
      </trkpt>
      <trkpt lat="59.5942637" lon="17.5151689">
        <ele>55</ele>
        <time>2013-03-11T20:30:18Z</time>
      </trkpt>
      <trkpt lat="59.5944349" lon="17.5153289">
        <ele>56</ele>
        <time>2013-03-11T20:30:25Z</time>
      </trkpt>
      <trkpt lat="59.5946048" lon="17.5154709">
        <ele>56.8</ele>
        <time>2013-03-11T20:30:32Z</time>
      </trkpt>
      <trkpt lat="59.5947826" lon="17.5155927">
        <ele>57.4</ele>
        <time>2013-03-11T20:30:38Z</time>
      </trkpt>
      <trkpt lat="59.5949969" lon="17.515647">
        <ele>55.4</ele>
        <time>2013-03-11T20:30:44Z</time>
      </trkpt>
      <trkpt lat="59.5951819" lon="17.5156805">
        <ele>55.2</ele>
        <time>2013-03-11T20:30:49Z</time>
      </trkpt>
      <trkpt lat="59.5953704" lon="17.5156072">
        <ele>54.8</ele>
        <time>2013-03-11T20:30:55Z</time>
      </trkpt>
      <trkpt lat="59.5954922" lon="17.5153298">
        <ele>54</ele>
        <time>2013-03-11T20:31:01Z</time>
      </trkpt>
      <trkpt lat="59.595601" lon="17.5149782">
        <ele>51.4</ele>
        <time>2013-03-11T20:31:07Z</time>
      </trkpt>
      <trkpt lat="59.5956636" lon="17.5146445">
        <ele>49.8</ele>
        <time>2013-03-11T20:31:11Z</time>
      </trkpt>
      <trkpt lat="59.5956973" lon="17.5144727">
        <ele>50</ele>
        <time>2013-03-11T20:31:13Z</time>
      </trkpt>
      <trkpt lat="59.595716" lon="17.5142965">
        <ele>49.6</ele>
        <time>2013-03-11T20:31:15Z</time>
      </trkpt>
      <trkpt lat="59.5957226" lon="17.5141992">
        <ele>49.8</ele>
        <time>2013-03-11T20:31:16Z</time>
      </trkpt>
      <trkpt lat="59.595715" lon="17.5138982">
        <ele>47.8</ele>
        <time>2013-03-11T20:31:19Z</time>
      </trkpt>
      <trkpt lat="59.5957188" lon="17.5137863">
        <ele>47</ele>
        <time>2013-03-11T20:31:20Z</time>
      </trkpt>
      <trkpt lat="59.5957356" lon="17.5135077">
        <ele>45.4</ele>
        <time>2013-03-11T20:31:22Z</time>
      </trkpt>
      <trkpt lat="59.5957765" lon="17.5132103">
        <ele>43.4</ele>
        <time>2013-03-11T20:31:24Z</time>
      </trkpt>
      <trkpt lat="59.5958172" lon="17.5130611">
        <ele>42.6</ele>
        <time>2013-03-11T20:31:25Z</time>
      </trkpt>
      <trkpt lat="59.5960179" lon="17.5127629">
        <ele>40.8</ele>
        <time>2013-03-11T20:31:28Z</time>
      </trkpt>
      <trkpt lat="59.5961814" lon="17.5126923">
        <ele>41.2</ele>
        <time>2013-03-11T20:31:30Z</time>
      </trkpt>
      <trkpt lat="59.596257" lon="17.5126477">
        <ele>41.8</ele>
        <time>2013-03-11T20:31:31Z</time>
      </trkpt>
      <trkpt lat="59.5964044" lon="17.5126056">
        <ele>42.4</ele>
        <time>2013-03-11T20:31:33Z</time>
      </trkpt>
      <trkpt lat="59.5964746" lon="17.5125996">
        <ele>43</ele>
        <time>2013-03-11T20:31:34Z</time>
      </trkpt>
      <trkpt lat="59.5966666" lon="17.5125987">
        <ele>43.6</ele>
        <time>2013-03-11T20:31:37Z</time>
      </trkpt>
      <trkpt lat="59.5968752" lon="17.5125785">
        <ele>44.2</ele>
        <time>2013-03-11T20:31:41Z</time>
      </trkpt>
      <trkpt lat="59.5970622" lon="17.5125078">
        <ele>44.4</ele>
        <time>2013-03-11T20:31:45Z</time>
      </trkpt>
      <trkpt lat="59.5972428" lon="17.5124069">
        <ele>44.2</ele>
        <time>2013-03-11T20:31:49Z</time>
      </trkpt>
      <trkpt lat="59.5974305" lon="17.5123272">
        <ele>42.8</ele>
        <time>2013-03-11T20:31:53Z</time>
      </trkpt>
      <trkpt lat="59.5974792" lon="17.5123135">
        <ele>42.8</ele>
        <time>2013-03-11T20:31:54Z</time>
      </trkpt>
      <trkpt lat="59.5976116" lon="17.5122479">
        <ele>41</ele>
        <time>2013-03-11T20:31:57Z</time>
      </trkpt>
      <trkpt lat="59.5977085" lon="17.5121825">
        <ele>39.8</ele>
        <time>2013-03-11T20:31:59Z</time>
      </trkpt>
      <trkpt lat="59.5977971" lon="17.5121055">
        <ele>40.4</ele>
        <time>2013-03-11T20:32:01Z</time>
      </trkpt>
      <trkpt lat="59.597983" lon="17.511912">
        <ele>38.4</ele>
        <time>2013-03-11T20:32:05Z</time>
      </trkpt>
      <trkpt lat="59.5980298" lon="17.5118446">
        <ele>37.4</ele>
        <time>2013-03-11T20:32:06Z</time>
      </trkpt>
      <trkpt lat="59.598123" lon="17.5116806">
        <ele>36.4</ele>
        <time>2013-03-11T20:32:08Z</time>
      </trkpt>
      <trkpt lat="59.5982819" lon="17.5114346">
        <ele>34.6</ele>
        <time>2013-03-11T20:32:11Z</time>
      </trkpt>
      <trkpt lat="59.5984583" lon="17.5112311">
        <ele>34.4</ele>
        <time>2013-03-11T20:32:14Z</time>
      </trkpt>
      <trkpt lat="59.5986473" lon="17.5111278">
        <ele>34.2</ele>
        <time>2013-03-11T20:32:17Z</time>
      </trkpt>
      <trkpt lat="59.5988246" lon="17.5110574">
        <ele>34.6</ele>
        <time>2013-03-11T20:32:20Z</time>
      </trkpt>
      <trkpt lat="59.5990203" lon="17.5109386">
        <ele>35.8</ele>
        <time>2013-03-11T20:32:24Z</time>
      </trkpt>
      <trkpt lat="59.5991252" lon="17.510915">
        <ele>36</ele>
        <time>2013-03-11T20:32:26Z</time>
      </trkpt>
      <trkpt lat="59.5992456" lon="17.5109153">
        <ele>35.6</ele>
        <time>2013-03-11T20:32:28Z</time>
      </trkpt>
      <trkpt lat="59.5993037" lon="17.5109321">
        <ele>35.4</ele>
        <time>2013-03-11T20:32:29Z</time>
      </trkpt>
      <trkpt lat="59.5994195" lon="17.5110415">
        <ele>36.8</ele>
        <time>2013-03-11T20:32:31Z</time>
      </trkpt>
      <trkpt lat="59.5995809" lon="17.5113624">
        <ele>38.4</ele>
        <time>2013-03-11T20:32:35Z</time>
      </trkpt>
      <trkpt lat="59.5996272" lon="17.5115174">
        <ele>38.4</ele>
        <time>2013-03-11T20:32:37Z</time>
      </trkpt>
      <trkpt lat="59.5996429" lon="17.5117749">
        <ele>38.4</ele>
        <time>2013-03-11T20:32:40Z</time>
      </trkpt>
      <trkpt lat="59.5995435" lon="17.5120834">
        <ele>41.6</ele>
        <time>2013-03-11T20:32:44Z</time>
      </trkpt>
      <trkpt lat="59.599498" lon="17.5121608">
        <ele>43</ele>
        <time>2013-03-11T20:32:45Z</time>
      </trkpt>
      <trkpt lat="59.5994291" lon="17.5122759">
        <ele>45.6</ele>
        <time>2013-03-11T20:32:47Z</time>
      </trkpt>
      <trkpt lat="59.599389" lon="17.5123266">
        <ele>46.8</ele>
        <time>2013-03-11T20:32:48Z</time>
      </trkpt>
      <trkpt lat="59.599287" lon="17.5124407">
        <ele>47.8</ele>
        <time>2013-03-11T20:32:51Z</time>
      </trkpt>
      <trkpt lat="59.5992358" lon="17.5125473">
        <ele>49.8</ele>
        <time>2013-03-11T20:32:53Z</time>
      </trkpt>
      <trkpt lat="59.5992025" lon="17.5129115">
        <ele>52.6</ele>
        <time>2013-03-11T20:32:58Z</time>
      </trkpt>
      <trkpt lat="59.5992125" lon="17.5131476">
        <ele>53.2</ele>
        <time>2013-03-11T20:33:01Z</time>
      </trkpt>
      <trkpt lat="59.5992058" lon="17.5133145">
        <ele>53.6</ele>
        <time>2013-03-11T20:33:03Z</time>
      </trkpt>
      <trkpt lat="59.5991406" lon="17.5135137">
        <ele>53.6</ele>
        <time>2013-03-11T20:33:06Z</time>
      </trkpt>
      <trkpt lat="59.5990901" lon="17.5136211">
        <ele>53.8</ele>
        <time>2013-03-11T20:33:08Z</time>
      </trkpt>
      <trkpt lat="59.5989662" lon="17.5138027">
        <ele>55.4</ele>
        <time>2013-03-11T20:33:12Z</time>
      </trkpt>
      <trkpt lat="59.5989425" lon="17.5138372">
        <ele>55.6</ele>
        <time>2013-03-11T20:33:13Z</time>
      </trkpt>
      <trkpt lat="59.5987683" lon="17.5139436">
        <ele>56.2</ele>
        <time>2013-03-11T20:33:19Z</time>
      </trkpt>
      <trkpt lat="59.5986305" lon="17.513991">
        <ele>54.8</ele>
        <time>2013-03-11T20:33:23Z</time>
      </trkpt>
      <trkpt lat="59.5985633" lon="17.513979">
        <ele>55</ele>
        <time>2013-03-11T20:33:25Z</time>
      </trkpt>
      <trkpt lat="59.5983635" lon="17.5139361">
        <ele>54.4</ele>
        <time>2013-03-11T20:33:31Z</time>
      </trkpt>
      <trkpt lat="59.5981744" lon="17.5139645">
        <ele>58.4</ele>
        <time>2013-03-11T20:33:38Z</time>
      </trkpt>
      <trkpt lat="59.5979927" lon="17.5140573">
        <ele>57.8</ele>
        <time>2013-03-11T20:33:44Z</time>
      </trkpt>
      <trkpt lat="59.5978345" lon="17.514314">
        <ele>58.8</ele>
        <time>2013-03-11T20:33:50Z</time>
      </trkpt>
      <trkpt lat="59.5976724" lon="17.5145437">
        <ele>59.2</ele>
        <time>2013-03-11T20:33:55Z</time>
      </trkpt>
      <trkpt lat="59.5974678" lon="17.5146621">
        <ele>57.6</ele>
        <time>2013-03-11T20:34:01Z</time>
      </trkpt>
      <trkpt lat="59.5972876" lon="17.5147297">
        <ele>57</ele>
        <time>2013-03-11T20:34:06Z</time>
      </trkpt>
      <trkpt lat="59.5970765" lon="17.5148224">
        <ele>56.8</ele>
        <time>2013-03-11T20:34:12Z</time>
      </trkpt>
      <trkpt lat="59.5968907" lon="17.5149344">
        <ele>55.8</ele>
        <time>2013-03-11T20:34:17Z</time>
      </trkpt>
      <trkpt lat="59.5967113" lon="17.5151108">
        <ele>57</ele>
        <time>2013-03-11T20:34:23Z</time>
      </trkpt>
      <trkpt lat="59.5965202" lon="17.5152688">
        <ele>58</ele>
        <time>2013-03-11T20:34:30Z</time>
      </trkpt>
      <trkpt lat="59.5963695" lon="17.5154719">
        <ele>63.4</ele>
        <time>2013-03-11T20:34:36Z</time>
      </trkpt>
      <trkpt lat="59.596192" lon="17.5156748">
        <ele>63.8</ele>
        <time>2013-03-11T20:34:42Z</time>
      </trkpt>
      <trkpt lat="59.5960214" lon="17.5158682">
        <ele>65</ele>
        <time>2013-03-11T20:34:48Z</time>
      </trkpt>
      <trkpt lat="59.595865" lon="17.5161344">
        <ele>66.4</ele>
        <time>2013-03-11T20:34:54Z</time>
      </trkpt>
      <trkpt lat="59.5957958" lon="17.5165042">
        <ele>65.8</ele>
        <time>2013-03-11T20:35:00Z</time>
      </trkpt>
      <trkpt lat="59.5957351" lon="17.5168341">
        <ele>66.4</ele>
        <time>2013-03-11T20:35:05Z</time>
      </trkpt>
      <trkpt lat="59.5956486" lon="17.5171601">
        <ele>68.2</ele>
        <time>2013-03-11T20:35:09Z</time>
      </trkpt>
      <trkpt lat="59.5955736" lon="17.5173477">
        <ele>68.8</ele>
        <time>2013-03-11T20:35:11Z</time>
      </trkpt>
      <trkpt lat="59.5955199" lon="17.5174397">
        <ele>69.2</ele>
        <time>2013-03-11T20:35:12Z</time>
      </trkpt>
      <trkpt lat="59.5953025" lon="17.5176273">
        <ele>69.6</ele>
        <time>2013-03-11T20:35:15Z</time>
      </trkpt>
      <trkpt lat="59.5952191" lon="17.5176532">
        <ele>69.4</ele>
        <time>2013-03-11T20:35:16Z</time>
      </trkpt>
      <trkpt lat="59.5950553" lon="17.517702">
        <ele>69.8</ele>
        <time>2013-03-11T20:35:18Z</time>
      </trkpt>
      <trkpt lat="59.5948165" lon="17.5177077">
        <ele>71.2</ele>
        <time>2013-03-11T20:35:21Z</time>
      </trkpt>
      <trkpt lat="59.5945944" lon="17.5178237">
        <ele>72.4</ele>
        <time>2013-03-11T20:35:24Z</time>
      </trkpt>
      <trkpt lat="59.5944142" lon="17.5178569">
        <ele>70.6</ele>
        <time>2013-03-11T20:35:27Z</time>
      </trkpt>
      <trkpt lat="59.5943648" lon="17.5178691">
        <ele>67.6</ele>
        <time>2013-03-11T20:35:28Z</time>
      </trkpt>
      <trkpt lat="59.5942084" lon="17.5179693">
        <ele>61</ele>
        <time>2013-03-11T20:35:31Z</time>
      </trkpt>
      <trkpt lat="59.5941567" lon="17.5180098">
        <ele>60.4</ele>
        <time>2013-03-11T20:35:32Z</time>
      </trkpt>
      <trkpt lat="59.5940206" lon="17.5180661">
        <ele>59</ele>
        <time>2013-03-11T20:35:35Z</time>
      </trkpt>
      <trkpt lat="59.59395" lon="17.5180883">
        <ele>57.8</ele>
        <time>2013-03-11T20:35:37Z</time>
      </trkpt>
      <trkpt lat="59.5938039" lon="17.5181669">
        <ele>56.8</ele>
        <time>2013-03-11T20:35:41Z</time>
      </trkpt>
      <trkpt lat="59.5937642" lon="17.518194">
        <ele>57.2</ele>
        <time>2013-03-11T20:35:42Z</time>
      </trkpt>
      <trkpt lat="59.5935884" lon="17.5183185">
        <ele>56.4</ele>
        <time>2013-03-11T20:35:46Z</time>
      </trkpt>
      <trkpt lat="59.5934823" lon="17.5184355">
        <ele>54.4</ele>
        <time>2013-03-11T20:35:49Z</time>
      </trkpt>
      <trkpt lat="59.5934273" lon="17.5185254">
        <ele>54.4</ele>
        <time>2013-03-11T20:35:51Z</time>
      </trkpt>
      <trkpt lat="59.5933925" lon="17.518581">
        <ele>55</ele>
        <time>2013-03-11T20:35:52Z</time>
      </trkpt>
      <trkpt lat="59.5932631" lon="17.5186744">
        <ele>55.4</ele>
        <time>2013-03-11T20:35:55Z</time>
      </trkpt>
      <trkpt lat="59.593215" lon="17.5186981">
        <ele>55</ele>
        <time>2013-03-11T20:35:56Z</time>
      </trkpt>
      <trkpt lat="59.5930601" lon="17.5187049">
        <ele>54.6</ele>
        <time>2013-03-11T20:35:59Z</time>
      </trkpt>
      <trkpt lat="59.5928855" lon="17.5185524">
        <ele>53.2</ele>
        <time>2013-03-11T20:36:03Z</time>
      </trkpt>
      <trkpt lat="59.5928072" lon="17.5184241">
        <ele>50.4</ele>
        <time>2013-03-11T20:36:05Z</time>
      </trkpt>
      <trkpt lat="59.5927638" lon="17.5183631">
        <ele>49.2</ele>
        <time>2013-03-11T20:36:06Z</time>
      </trkpt>
      <trkpt lat="59.5927228" lon="17.5183162">
        <ele>48.2</ele>
        <time>2013-03-11T20:36:07Z</time>
      </trkpt>
      <trkpt lat="59.5925748" lon="17.5180361">
        <ele>45.2</ele>
        <time>2013-03-11T20:36:11Z</time>
      </trkpt>
      <trkpt lat="59.5925446" lon="17.5178614">
        <ele>44</ele>
        <time>2013-03-11T20:36:13Z</time>
      </trkpt>
      <trkpt lat="59.5925339" lon="17.5177703">
        <ele>43.4</ele>
        <time>2013-03-11T20:36:14Z</time>
      </trkpt>
      <trkpt lat="59.5925478" lon="17.5176087">
        <ele>42.6</ele>
        <time>2013-03-11T20:36:16Z</time>
      </trkpt>
      <trkpt lat="59.5925836" lon="17.5173549">
        <ele>43</ele>
        <time>2013-03-11T20:36:19Z</time>
      </trkpt>
      <trkpt lat="59.5925939" lon="17.5172612">
        <ele>43.2</ele>
        <time>2013-03-11T20:36:20Z</time>
      </trkpt>
      <trkpt lat="59.59261" lon="17.5170902">
        <ele>43.4</ele>
        <time>2013-03-11T20:36:22Z</time>
      </trkpt>
      <trkpt lat="59.5926212" lon="17.5169095">
        <ele>42.6</ele>
        <time>2013-03-11T20:36:24Z</time>
      </trkpt>
      <trkpt lat="59.5926674" lon="17.5165525">
        <ele>42.8</ele>
        <time>2013-03-11T20:36:27Z</time>
      </trkpt>
      <trkpt lat="59.5927845" lon="17.5162157">
        <ele>43</ele>
        <time>2013-03-11T20:36:30Z</time>
      </trkpt>
      <trkpt lat="59.592885" lon="17.5160061">
        <ele>44.2</ele>
        <time>2013-03-11T20:36:32Z</time>
      </trkpt>
      <trkpt lat="59.5929325" lon="17.5158898">
        <ele>44.6</ele>
        <time>2013-03-11T20:36:33Z</time>
      </trkpt>
      <trkpt lat="59.5930725" lon="17.5155179">
        <ele>44.6</ele>
        <time>2013-03-11T20:36:36Z</time>
      </trkpt>
      <trkpt lat="59.5932159" lon="17.5151385">
        <ele>44.2</ele>
        <time>2013-03-11T20:36:39Z</time>
      </trkpt>
      <trkpt lat="59.5933437" lon="17.5147918">
        <ele>42.2</ele>
        <time>2013-03-11T20:36:42Z</time>
      </trkpt>
      <trkpt lat="59.5935095" lon="17.5146269">
        <ele>41</ele>
        <time>2013-03-11T20:36:45Z</time>
      </trkpt>
      <trkpt lat="59.5936558" lon="17.5145248">
        <ele>40.4</ele>
        <time>2013-03-11T20:36:48Z</time>
      </trkpt>
      <trkpt lat="59.5937071" lon="17.5145162">
        <ele>40.4</ele>
        <time>2013-03-11T20:36:49Z</time>
      </trkpt>
      <trkpt lat="59.5939139" lon="17.5146146">
        <ele>41</ele>
        <time>2013-03-11T20:36:54Z</time>
      </trkpt>
      <trkpt lat="59.5940231" lon="17.5147985">
        <ele>42.6</ele>
        <time>2013-03-11T20:36:58Z</time>
      </trkpt>
      <trkpt lat="59.5940742" lon="17.5148965">
        <ele>44.4</ele>
        <time>2013-03-11T20:37:00Z</time>
      </trkpt>
      <trkpt lat="59.5942409" lon="17.5151357">
        <ele>48.8</ele>
        <time>2013-03-11T20:37:07Z</time>
      </trkpt>
      <trkpt lat="59.5944079" lon="17.5153429">
        <ele>53</ele>
        <time>2013-03-11T20:37:14Z</time>
      </trkpt>
      <trkpt lat="59.5945766" lon="17.5154771">
        <ele>54.8</ele>
        <time>2013-03-11T20:37:20Z</time>
      </trkpt>
      <trkpt lat="59.5947695" lon="17.5156367">
        <ele>57</ele>
        <time>2013-03-11T20:37:27Z</time>
      </trkpt>
      <trkpt lat="59.5949626" lon="17.5156986">
        <ele>56.8</ele>
        <time>2013-03-11T20:37:32Z</time>
      </trkpt>
      <trkpt lat="59.5951547" lon="17.5157069">
        <ele>58.2</ele>
        <time>2013-03-11T20:37:38Z</time>
      </trkpt>
      <trkpt lat="59.5953427" lon="17.5156114">
        <ele>57.8</ele>
        <time>2013-03-11T20:37:44Z</time>
      </trkpt>
      <trkpt lat="59.5954854" lon="17.5153226">
        <ele>55.8</ele>
        <time>2013-03-11T20:37:51Z</time>
      </trkpt>
      <trkpt lat="59.5955885" lon="17.5150108">
        <ele>54</ele>
        <time>2013-03-11T20:37:56Z</time>
      </trkpt>
      <trkpt lat="59.5956604" lon="17.5146088">
        <ele>52.6</ele>
        <time>2013-03-11T20:38:01Z</time>
      </trkpt>
      <trkpt lat="59.5957261" lon="17.5142508">
        <ele>49.6</ele>
        <time>2013-03-11T20:38:05Z</time>
      </trkpt>
      <trkpt lat="59.5957438" lon="17.5138234">
        <ele>48.4</ele>
        <time>2013-03-11T20:38:09Z</time>
      </trkpt>
      <trkpt lat="59.5957745" lon="17.513375">
        <ele>47.4</ele>
        <time>2013-03-11T20:38:12Z</time>
      </trkpt>
      <trkpt lat="59.595797" lon="17.5132134">
        <ele>47.2</ele>
        <time>2013-03-11T20:38:13Z</time>
      </trkpt>
      <trkpt lat="59.5958843" lon="17.5129255">
        <ele>45.2</ele>
        <time>2013-03-11T20:38:15Z</time>
      </trkpt>
      <trkpt lat="59.5961143" lon="17.5127343">
        <ele>43.6</ele>
        <time>2013-03-11T20:38:18Z</time>
      </trkpt>
      <trkpt lat="59.5961946" lon="17.5126983">
        <ele>43.6</ele>
        <time>2013-03-11T20:38:19Z</time>
      </trkpt>
      <trkpt lat="59.5963456" lon="17.5126369">
        <ele>43.4</ele>
        <time>2013-03-11T20:38:21Z</time>
      </trkpt>
      <trkpt lat="59.5965521" lon="17.5126176">
        <ele>43.4</ele>
        <time>2013-03-11T20:38:24Z</time>
      </trkpt>
      <trkpt lat="59.5967381" lon="17.512595">
        <ele>45.6</ele>
        <time>2013-03-11T20:38:27Z</time>
      </trkpt>
      <trkpt lat="59.5968419" lon="17.5125897">
        <ele>46.2</ele>
        <time>2013-03-11T20:38:29Z</time>
      </trkpt>
      <trkpt lat="59.5969396" lon="17.512567">
        <ele>46.6</ele>
        <time>2013-03-11T20:38:31Z</time>
      </trkpt>
      <trkpt lat="59.597027" lon="17.5125229">
        <ele>45.6</ele>
        <time>2013-03-11T20:38:33Z</time>
      </trkpt>
      <trkpt lat="59.5971325" lon="17.512469">
        <ele>44.8</ele>
        <time>2013-03-11T20:38:35Z</time>
      </trkpt>
      <trkpt lat="59.5973192" lon="17.5123726">
        <ele>42.4</ele>
        <time>2013-03-11T20:38:39Z</time>
      </trkpt>
      <trkpt lat="59.5973651" lon="17.5123557">
        <ele>41.2</ele>
        <time>2013-03-11T20:38:40Z</time>
      </trkpt>
      <trkpt lat="59.5974601" lon="17.5123238">
        <ele>39.4</ele>
        <time>2013-03-11T20:38:42Z</time>
      </trkpt>
      <trkpt lat="59.5975071" lon="17.5123001">
        <ele>38.6</ele>
        <time>2013-03-11T20:38:43Z</time>
      </trkpt>
      <trkpt lat="59.5977073" lon="17.5122033">
        <ele>36.6</ele>
        <time>2013-03-11T20:38:47Z</time>
      </trkpt>
      <trkpt lat="59.5978853" lon="17.5120489">
        <ele>34.8</ele>
        <time>2013-03-11T20:38:51Z</time>
      </trkpt>
      <trkpt lat="59.5979786" lon="17.5119401">
        <ele>35.4</ele>
        <time>2013-03-11T20:38:53Z</time>
      </trkpt>
      <trkpt lat="59.5980558" lon="17.5118106">
        <ele>33.6</ele>
        <time>2013-03-11T20:38:55Z</time>
      </trkpt>
      <trkpt lat="59.598089" lon="17.5117372">
        <ele>32.2</ele>
        <time>2013-03-11T20:38:56Z</time>
      </trkpt>
      <trkpt lat="59.5982118" lon="17.5115252">
        <ele>30.2</ele>
        <time>2013-03-11T20:38:59Z</time>
      </trkpt>
      <trkpt lat="59.5983021" lon="17.5113797">
        <ele>29.4</ele>
        <time>2013-03-11T20:39:01Z</time>
      </trkpt>
      <trkpt lat="59.5984092" lon="17.5112769">
        <ele>29</ele>
        <time>2013-03-11T20:39:03Z</time>
      </trkpt>
      <trkpt lat="59.598639" lon="17.5111541">
        <ele>28.2</ele>
        <time>2013-03-11T20:39:07Z</time>
      </trkpt>
      <trkpt lat="59.5986955" lon="17.51113">
        <ele>28.2</ele>
        <time>2013-03-11T20:39:08Z</time>
      </trkpt>
      <trkpt lat="59.598829" lon="17.5110334">
        <ele>27</ele>
        <time>2013-03-11T20:39:11Z</time>
      </trkpt>
      <trkpt lat="59.5989211" lon="17.5109645">
        <ele>25.8</ele>
        <time>2013-03-11T20:39:13Z</time>
      </trkpt>
      <trkpt lat="59.5990301" lon="17.5109044">
        <ele>27.6</ele>
        <time>2013-03-11T20:39:15Z</time>
      </trkpt>
      <trkpt lat="59.5990959" lon="17.5109034">
        <ele>28.8</ele>
        <time>2013-03-11T20:39:16Z</time>
      </trkpt>
      <trkpt lat="59.5992114" lon="17.5109135">
        <ele>29</ele>
        <time>2013-03-11T20:39:18Z</time>
      </trkpt>
      <trkpt lat="59.5994176" lon="17.5110978">
        <ele>32.6</ele>
        <time>2013-03-11T20:39:22Z</time>
      </trkpt>
      <trkpt lat="59.5995269" lon="17.5114017">
        <ele>33.4</ele>
        <time>2013-03-11T20:39:26Z</time>
      </trkpt>
      <trkpt lat="59.59955" lon="17.5117962">
        <ele>36.2</ele>
        <time>2013-03-11T20:39:31Z</time>
      </trkpt>
      <trkpt lat="59.599544" lon="17.5118863">
        <ele>36.6</ele>
        <time>2013-03-11T20:39:32Z</time>
      </trkpt>
      <trkpt lat="59.5995181" lon="17.5120438">
        <ele>37.4</ele>
        <time>2013-03-11T20:39:34Z</time>
      </trkpt>
      <trkpt lat="59.5994797" lon="17.5121841">
        <ele>38.2</ele>
        <time>2013-03-11T20:39:36Z</time>
      </trkpt>
      <trkpt lat="59.5994544" lon="17.5122447">
        <ele>39.4</ele>
        <time>2013-03-11T20:39:37Z</time>
      </trkpt>
      <trkpt lat="59.5993073" lon="17.5124142">
        <ele>41.4</ele>
        <time>2013-03-11T20:39:41Z</time>
      </trkpt>
      <trkpt lat="59.5991786" lon="17.5127317">
        <ele>43.8</ele>
        <time>2013-03-11T20:39:46Z</time>
      </trkpt>
      <trkpt lat="59.5991773" lon="17.5130356">
        <ele>44.8</ele>
        <time>2013-03-11T20:39:50Z</time>
      </trkpt>
      <trkpt lat="59.5991797" lon="17.5131242">
        <ele>45.4</ele>
        <time>2013-03-11T20:39:51Z</time>
      </trkpt>
      <trkpt lat="59.5991857" lon="17.513299">
        <ele>49.6</ele>
        <time>2013-03-11T20:39:53Z</time>
      </trkpt>
      <trkpt lat="59.5991669" lon="17.5135319">
        <ele>54.2</ele>
        <time>2013-03-11T20:39:56Z</time>
      </trkpt>
      <trkpt lat="59.599158" lon="17.5135893">
        <ele>57</ele>
        <time>2013-03-11T20:39:57Z</time>
      </trkpt>
      <trkpt lat="59.5990586" lon="17.5138483">
        <ele>61.6</ele>
        <time>2013-03-11T20:40:02Z</time>
      </trkpt>
      <trkpt lat="59.5988909" lon="17.5139749">
        <ele>61.4</ele>
        <time>2013-03-11T20:40:07Z</time>
      </trkpt>
      <trkpt lat="59.5986853" lon="17.513974">
        <ele>61</ele>
        <time>2013-03-11T20:40:13Z</time>
      </trkpt>
      <trkpt lat="59.5984826" lon="17.5139629">
        <ele>60.2</ele>
        <time>2013-03-11T20:40:20Z</time>
      </trkpt>
      <trkpt lat="59.5982942" lon="17.513947">
        <ele>62</ele>
        <time>2013-03-11T20:40:26Z</time>
      </trkpt>
      <trkpt lat="59.5981034" lon="17.5140013">
        <ele>63.2</ele>
        <time>2013-03-11T20:40:34Z</time>
      </trkpt>
      <trkpt lat="59.5979345" lon="17.5142156">
        <ele>60.4</ele>
        <time>2013-03-11T20:40:40Z</time>
      </trkpt>
      <trkpt lat="59.5977834" lon="17.5144749">
        <ele>59.2</ele>
        <time>2013-03-11T20:40:45Z</time>
      </trkpt>
      <trkpt lat="59.5976065" lon="17.5146006">
        <ele>57.6</ele>
        <time>2013-03-11T20:40:50Z</time>
      </trkpt>
      <trkpt lat="59.5974371" lon="17.5146658">
        <ele>56.2</ele>
        <time>2013-03-11T20:40:54Z</time>
      </trkpt>
      <trkpt lat="59.5973983" lon="17.5146803">
        <ele>55.4</ele>
        <time>2013-03-11T20:40:55Z</time>
      </trkpt>
      <trkpt lat="59.5973177" lon="17.5146892">
        <ele>53.8</ele>
        <time>2013-03-11T20:40:57Z</time>
      </trkpt>
      <trkpt lat="59.5972037" lon="17.5147348">
        <ele>53.4</ele>
        <time>2013-03-11T20:41:00Z</time>
      </trkpt>
      <trkpt lat="59.5970026" lon="17.5147991">
        <ele>53.2</ele>
        <time>2013-03-11T20:41:05Z</time>
      </trkpt>
      <trkpt lat="59.596832" lon="17.5149684">
        <ele>53</ele>
        <time>2013-03-11T20:41:10Z</time>
      </trkpt>
      <trkpt lat="59.5966494" lon="17.5151618">
        <ele>56.8</ele>
        <time>2013-03-11T20:41:17Z</time>
      </trkpt>
      <trkpt lat="59.5964629" lon="17.5153673">
        <ele>60</ele>
        <time>2013-03-11T20:41:24Z</time>
      </trkpt>
      <trkpt lat="59.596291" lon="17.5155564">
        <ele>62.8</ele>
        <time>2013-03-11T20:41:30Z</time>
      </trkpt>
      <trkpt lat="59.5961075" lon="17.5157609">
        <ele>64.8</ele>
        <time>2013-03-11T20:41:36Z</time>
      </trkpt>
      <trkpt lat="59.5959444" lon="17.515992">
        <ele>65.2</ele>
        <time>2013-03-11T20:41:41Z</time>
      </trkpt>
      <trkpt lat="59.5958424" lon="17.5163358">
        <ele>67</ele>
        <time>2013-03-11T20:41:47Z</time>
      </trkpt>
      <trkpt lat="59.5957991" lon="17.5167199">
        <ele>68.8</ele>
        <time>2013-03-11T20:41:52Z</time>
      </trkpt>
      <trkpt lat="59.5957245" lon="17.5170477">
        <ele>70.8</ele>
        <time>2013-03-11T20:41:56Z</time>
      </trkpt>
      <trkpt lat="59.5956639" lon="17.5172162">
        <ele>70.8</ele>
        <time>2013-03-11T20:41:58Z</time>
      </trkpt>
      <trkpt lat="59.5956199" lon="17.517315">
        <ele>70.6</ele>
        <time>2013-03-11T20:41:59Z</time>
      </trkpt>
      <trkpt lat="59.5955642" lon="17.5174103">
        <ele>70.4</ele>
        <time>2013-03-11T20:42:00Z</time>
      </trkpt>
      <trkpt lat="59.5954135" lon="17.5175595">
        <ele>71.4</ele>
        <time>2013-03-11T20:42:02Z</time>
      </trkpt>
      <trkpt lat="59.5952399" lon="17.5176378">
        <ele>74.6</ele>
        <time>2013-03-11T20:42:04Z</time>
      </trkpt>
      <trkpt lat="59.5951557" lon="17.5176725">
        <ele>76.4</ele>
        <time>2013-03-11T20:42:05Z</time>
      </trkpt>
      <trkpt lat="59.5949119" lon="17.5177637">
        <ele>77.8</ele>
        <time>2013-03-11T20:42:08Z</time>
      </trkpt>
      <trkpt lat="59.5946871" lon="17.5178459">
        <ele>78.8</ele>
        <time>2013-03-11T20:42:11Z</time>
      </trkpt>
      <trkpt lat="59.5944891" lon="17.5179217">
        <ele>80.8</ele>
        <time>2013-03-11T20:42:14Z</time>
      </trkpt>
      <trkpt lat="59.5943297" lon="17.5179913">
        <ele>79.6</ele>
        <time>2013-03-11T20:42:17Z</time>
      </trkpt>
      <trkpt lat="59.5942867" lon="17.5180279">
        <ele>78.8</ele>
        <time>2013-03-11T20:42:18Z</time>
      </trkpt>
      <trkpt lat="59.594194" lon="17.5180975">
        <ele>78.2</ele>
        <time>2013-03-11T20:42:20Z</time>
      </trkpt>
      <trkpt lat="59.5940959" lon="17.5181376">
        <ele>77.2</ele>
        <time>2013-03-11T20:42:22Z</time>
      </trkpt>
      <trkpt lat="59.5938786" lon="17.5182246">
        <ele>73.4</ele>
        <time>2013-03-11T20:42:27Z</time>
      </trkpt>
      <trkpt lat="59.5937562" lon="17.5182786">
        <ele>71.2</ele>
        <time>2013-03-11T20:42:30Z</time>
      </trkpt>
      <trkpt lat="59.5936836" lon="17.5183304">
        <ele>70</ele>
        <time>2013-03-11T20:42:32Z</time>
      </trkpt>
      <trkpt lat="59.5934921" lon="17.5185469">
        <ele>65.4</ele>
        <time>2013-03-11T20:42:37Z</time>
      </trkpt>
      <trkpt lat="59.5934569" lon="17.5185954">
        <ele>64.4</ele>
        <time>2013-03-11T20:42:38Z</time>
      </trkpt>
      <trkpt lat="59.5933463" lon="17.5187384">
        <ele>61.8</ele>
        <time>2013-03-11T20:42:41Z</time>
      </trkpt>
      <trkpt lat="59.5933025" lon="17.518763">
        <ele>61.6</ele>
        <time>2013-03-11T20:42:42Z</time>
      </trkpt>
      <trkpt lat="59.5932098" lon="17.5187814">
        <ele>60.4</ele>
        <time>2013-03-11T20:42:44Z</time>
      </trkpt>
      <trkpt lat="59.5931109" lon="17.5187643">
        <ele>60</ele>
        <time>2013-03-11T20:42:46Z</time>
      </trkpt>
      <trkpt lat="59.593073" lon="17.5187354">
        <ele>58.8</ele>
        <time>2013-03-11T20:42:47Z</time>
      </trkpt>
      <trkpt lat="59.5929364" lon="17.5185453">
        <ele>55.8</ele>
        <time>2013-03-11T20:42:51Z</time>
      </trkpt>
      <trkpt lat="59.5928969" lon="17.51848">
        <ele>55.2</ele>
        <time>2013-03-11T20:42:52Z</time>
      </trkpt>
      <trkpt lat="59.5928415" lon="17.5184133">
        <ele>53.8</ele>
        <time>2013-03-11T20:42:53Z</time>
      </trkpt>
      <trkpt lat="59.5927538" lon="17.5183087">
        <ele>51.6</ele>
        <time>2013-03-11T20:42:55Z</time>
      </trkpt>
      <trkpt lat="59.592672" lon="17.5181459">
        <ele>48.8</ele>
        <time>2013-03-11T20:42:57Z</time>
      </trkpt>
      <trkpt lat="59.5926105" lon="17.5179703">
        <ele>46.2</ele>
        <time>2013-03-11T20:42:59Z</time>
      </trkpt>
      <trkpt lat="59.5925613" lon="17.5175777">
        <ele>43.8</ele>
        <time>2013-03-11T20:43:03Z</time>
      </trkpt>
      <trkpt lat="59.5925948" lon="17.5172006">
        <ele>44.2</ele>
        <time>2013-03-11T20:43:07Z</time>
      </trkpt>
      <trkpt lat="59.5925969" lon="17.5170151">
        <ele>44.6</ele>
        <time>2013-03-11T20:43:09Z</time>
      </trkpt>
      <trkpt lat="59.5925921" lon="17.5169172">
        <ele>44.2</ele>
        <time>2013-03-11T20:43:10Z</time>
      </trkpt>
      <trkpt lat="59.5925916" lon="17.5168005">
        <ele>43.8</ele>
        <time>2013-03-11T20:43:11Z</time>
      </trkpt>
      <trkpt lat="59.592672" lon="17.5164347">
        <ele>43</ele>
        <time>2013-03-11T20:43:14Z</time>
      </trkpt>
      <trkpt lat="59.592802" lon="17.516069">
        <ele>45.2</ele>
        <time>2013-03-11T20:43:17Z</time>
      </trkpt>
      <trkpt lat="59.5929412" lon="17.5156968">
        <ele>47.6</ele>
        <time>2013-03-11T20:43:20Z</time>
      </trkpt>
      <trkpt lat="59.5931009" lon="17.515316">
        <ele>51.4</ele>
        <time>2013-03-11T20:43:23Z</time>
      </trkpt>
      <trkpt lat="59.5932471" lon="17.514945">
        <ele>53</ele>
        <time>2013-03-11T20:43:26Z</time>
      </trkpt>
      <trkpt lat="59.5933091" lon="17.5148384">
        <ele>54.2</ele>
        <time>2013-03-11T20:43:27Z</time>
      </trkpt>
      <trkpt lat="59.5934368" lon="17.5146893">
        <ele>53</ele>
        <time>2013-03-11T20:43:29Z</time>
      </trkpt>
      <trkpt lat="59.593557" lon="17.5146062">
        <ele>52.6</ele>
        <time>2013-03-11T20:43:31Z</time>
      </trkpt>
      <trkpt lat="59.5936621" lon="17.5145552">
        <ele>52</ele>
        <time>2013-03-11T20:43:33Z</time>
      </trkpt>
      <trkpt lat="59.5937519" lon="17.5145269">
        <ele>50.2</ele>
        <time>2013-03-11T20:43:35Z</time>
      </trkpt>
      <trkpt lat="59.5938358" lon="17.5145447">
        <ele>49.2</ele>
        <time>2013-03-11T20:43:37Z</time>
      </trkpt>
      <trkpt lat="59.5938729" lon="17.5145613">
        <ele>49</ele>
        <time>2013-03-11T20:43:38Z</time>
      </trkpt>
      <trkpt lat="59.5939096" lon="17.51458">
        <ele>48.8</ele>
        <time>2013-03-11T20:43:39Z</time>
      </trkpt>
      <trkpt lat="59.5940236" lon="17.5147564">
        <ele>47.8</ele>
        <time>2013-03-11T20:43:43Z</time>
      </trkpt>
      <trkpt lat="59.5941337" lon="17.5149905">
        <ele>48.6</ele>
        <time>2013-03-11T20:43:48Z</time>
      </trkpt>
      <trkpt lat="59.5941597" lon="17.5150373">
        <ele>49</ele>
        <time>2013-03-11T20:43:49Z</time>
      </trkpt>
      <trkpt lat="59.594338" lon="17.515227">
        <ele>51.2</ele>
        <time>2013-03-11T20:43:55Z</time>
      </trkpt>
      <trkpt lat="59.5945122" lon="17.5153878">
        <ele>55</ele>
        <time>2013-03-11T20:44:01Z</time>
      </trkpt>
      <trkpt lat="59.5946886" lon="17.5155056">
        <ele>55.4</ele>
        <time>2013-03-11T20:44:07Z</time>
      </trkpt>
      <trkpt lat="59.5948626" lon="17.5155865">
        <ele>56.6</ele>
        <time>2013-03-11T20:44:12Z</time>
      </trkpt>
      <trkpt lat="59.5950767" lon="17.5156847">
        <ele>58.2</ele>
        <time>2013-03-11T20:44:18Z</time>
      </trkpt>
      <trkpt lat="59.5952652" lon="17.5156639">
        <ele>59.8</ele>
        <time>2013-03-11T20:44:23Z</time>
      </trkpt>
      <trkpt lat="59.5954301" lon="17.5155334">
        <ele>61.2</ele>
        <time>2013-03-11T20:44:28Z</time>
      </trkpt>
      <trkpt lat="59.5955617" lon="17.5152526">
        <ele>60.4</ele>
        <time>2013-03-11T20:44:34Z</time>
      </trkpt>
      <trkpt lat="59.5956636" lon="17.5149213">
        <ele>62.2</ele>
        <time>2013-03-11T20:44:39Z</time>
      </trkpt>
      <trkpt lat="59.5957372" lon="17.5145183">
        <ele>61.2</ele>
        <time>2013-03-11T20:44:44Z</time>
      </trkpt>
      <trkpt lat="59.595796" lon="17.5141843">
        <ele>60</ele>
        <time>2013-03-11T20:44:48Z</time>
      </trkpt>
      <trkpt lat="59.595801" lon="17.5141023">
        <ele>59.8</ele>
        <time>2013-03-11T20:44:49Z</time>
      </trkpt>
      <trkpt lat="59.5958194" lon="17.5137459">
        <ele>57.8</ele>
        <time>2013-03-11T20:44:52Z</time>
      </trkpt>
      <trkpt lat="59.5958587" lon="17.5132988">
        <ele>58</ele>
        <time>2013-03-11T20:44:55Z</time>
      </trkpt>
      <trkpt lat="59.5959672" lon="17.5128496">
        <ele>58.4</ele>
        <time>2013-03-11T20:44:58Z</time>
      </trkpt>
      <trkpt lat="59.5960372" lon="17.512783">
        <ele>57.8</ele>
        <time>2013-03-11T20:44:59Z</time>
      </trkpt>
      <trkpt lat="59.5961677" lon="17.5126623">
        <ele>56.6</ele>
        <time>2013-03-11T20:45:01Z</time>
      </trkpt>
      <trkpt lat="59.5963226" lon="17.5126085">
        <ele>55.8</ele>
        <time>2013-03-11T20:45:03Z</time>
      </trkpt>
      <trkpt lat="59.5963939" lon="17.5125877">
        <ele>55.2</ele>
        <time>2013-03-11T20:45:04Z</time>
      </trkpt>
      <trkpt lat="59.596596" lon="17.512585">
        <ele>55</ele>
        <time>2013-03-11T20:45:07Z</time>
      </trkpt>
      <trkpt lat="59.5967636" lon="17.5125983">
        <ele>53</ele>
        <time>2013-03-11T20:45:10Z</time>
      </trkpt>
      <trkpt lat="59.5968171" lon="17.5125952">
        <ele>52.2</ele>
        <time>2013-03-11T20:45:11Z</time>
      </trkpt>
      <trkpt lat="59.5969218" lon="17.5125904">
        <ele>50.8</ele>
        <time>2013-03-11T20:45:13Z</time>
      </trkpt>
      <trkpt lat="59.5970156" lon="17.512556">
        <ele>48.6</ele>
        <time>2013-03-11T20:45:15Z</time>
      </trkpt>
      <trkpt lat="59.5972039" lon="17.5124072">
        <ele>44.2</ele>
        <time>2013-03-11T20:45:19Z</time>
      </trkpt>
      <trkpt lat="59.597404" lon="17.5123105">
        <ele>42.2</ele>
        <time>2013-03-11T20:45:23Z</time>
      </trkpt>
      <trkpt lat="59.5974567" lon="17.5122929">
        <ele>41.4</ele>
        <time>2013-03-11T20:45:24Z</time>
      </trkpt>
      <trkpt lat="59.5976125" lon="17.512209">
        <ele>40.8</ele>
        <time>2013-03-11T20:45:27Z</time>
      </trkpt>
      <trkpt lat="59.5978178" lon="17.51205">
        <ele>39</ele>
        <time>2013-03-11T20:45:31Z</time>
      </trkpt>
      <trkpt lat="59.5978684" lon="17.5120125">
        <ele>38</ele>
        <time>2013-03-11T20:45:32Z</time>
      </trkpt>
      <trkpt lat="59.5980376" lon="17.5118633">
        <ele>37.8</ele>
        <time>2013-03-11T20:45:35Z</time>
      </trkpt>
      <trkpt lat="59.5981386" lon="17.5117293">
        <ele>36.8</ele>
        <time>2013-03-11T20:45:37Z</time>
      </trkpt>
      <trkpt lat="59.5981861" lon="17.5116433">
        <ele>36.2</ele>
        <time>2013-03-11T20:45:38Z</time>
      </trkpt>
      <trkpt lat="59.5983288" lon="17.5113972">
        <ele>34</ele>
        <time>2013-03-11T20:45:41Z</time>
      </trkpt>
      <trkpt lat="59.5984483" lon="17.511264">
        <ele>34.6</ele>
        <time>2013-03-11T20:45:43Z</time>
      </trkpt>
      <trkpt lat="59.5985098" lon="17.5112103">
        <ele>34.8</ele>
        <time>2013-03-11T20:45:44Z</time>
      </trkpt>
      <trkpt lat="59.5986323" lon="17.5111273">
        <ele>36</ele>
        <time>2013-03-11T20:45:46Z</time>
      </trkpt>
      <trkpt lat="59.5986913" lon="17.5111008">
        <ele>36.4</ele>
        <time>2013-03-11T20:45:47Z</time>
      </trkpt>
      <trkpt lat="59.598797" lon="17.5110368">
        <ele>36.4</ele>
        <time>2013-03-11T20:45:49Z</time>
      </trkpt>
      <trkpt lat="59.5988918" lon="17.5109651">
        <ele>35.6</ele>
        <time>2013-03-11T20:45:51Z</time>
      </trkpt>
      <trkpt lat="59.5991227" lon="17.5109021">
        <ele>35.8</ele>
        <time>2013-03-11T20:45:55Z</time>
      </trkpt>
      <trkpt lat="59.5991841" lon="17.5108988">
        <ele>36</ele>
        <time>2013-03-11T20:45:56Z</time>
      </trkpt>
      <trkpt lat="59.5993066" lon="17.5109502">
        <ele>36.4</ele>
        <time>2013-03-11T20:45:58Z</time>
      </trkpt>
      <trkpt lat="59.5994659" lon="17.5111513">
        <ele>38.4</ele>
        <time>2013-03-11T20:46:01Z</time>
      </trkpt>
      <trkpt lat="59.5995079" lon="17.5112308">
        <ele>38</ele>
        <time>2013-03-11T20:46:02Z</time>
      </trkpt>
      <trkpt lat="59.599543" lon="17.5113128">
        <ele>38</ele>
        <time>2013-03-11T20:46:03Z</time>
      </trkpt>
      <trkpt lat="59.5996019" lon="17.5114733">
        <ele>37.8</ele>
        <time>2013-03-11T20:46:05Z</time>
      </trkpt>
      <trkpt lat="59.599616" lon="17.5115553">
        <ele>38.4</ele>
        <time>2013-03-11T20:46:06Z</time>
      </trkpt>
      <trkpt lat="59.5996418" lon="17.5118693">
        <ele>37.2</ele>
        <time>2013-03-11T20:46:10Z</time>
      </trkpt>
      <trkpt lat="59.5995777" lon="17.5120257">
        <ele>41.2</ele>
        <time>2013-03-11T20:46:12Z</time>
      </trkpt>
      <trkpt lat="59.5995141" lon="17.5121598">
        <ele>41.4</ele>
        <time>2013-03-11T20:46:14Z</time>
      </trkpt>
      <trkpt lat="59.5993514" lon="17.5124202">
        <ele>50</ele>
        <time>2013-03-11T20:46:19Z</time>
      </trkpt>
      <trkpt lat="59.5992653" lon="17.5125659">
        <ele>54.2</ele>
        <time>2013-03-11T20:46:22Z</time>
      </trkpt>
      <trkpt lat="59.599217" lon="17.5126964">
        <ele>54.2</ele>
        <time>2013-03-11T20:46:24Z</time>
      </trkpt>
      <trkpt lat="59.5992" lon="17.5129829">
        <ele>52.2</ele>
        <time>2013-03-11T20:46:28Z</time>
      </trkpt>
      <trkpt lat="59.5992053" lon="17.5130812">
        <ele>52.8</ele>
        <time>2013-03-11T20:46:29Z</time>
      </trkpt>
      <trkpt lat="59.5992234" lon="17.5132669">
        <ele>55.6</ele>
        <time>2013-03-11T20:46:31Z</time>
      </trkpt>
      <trkpt lat="59.5991978" lon="17.5134365">
        <ele>59.2</ele>
        <time>2013-03-11T20:46:33Z</time>
      </trkpt>
      <trkpt lat="59.5991348" lon="17.5136107">
        <ele>63.2</ele>
        <time>2013-03-11T20:46:36Z</time>
      </trkpt>
      <trkpt lat="59.5991186" lon="17.5136532">
        <ele>63.2</ele>
        <time>2013-03-11T20:46:37Z</time>
      </trkpt>
      <trkpt lat="59.5990807" lon="17.5137636">
        <ele>65.6</ele>
        <time>2013-03-11T20:46:39Z</time>
      </trkpt>
      <trkpt lat="59.5988955" lon="17.5139533">
        <ele>67.2</ele>
        <time>2013-03-11T20:46:46Z</time>
      </trkpt>
      <trkpt lat="59.5988396" lon="17.513963">
        <ele>66.8</ele>
        <time>2013-03-11T20:46:48Z</time>
      </trkpt>
      <trkpt lat="59.598682" lon="17.5139453">
        <ele>67.8</ele>
        <time>2013-03-11T20:46:53Z</time>
      </trkpt>
      <trkpt lat="59.5984751" lon="17.5139406">
        <ele>67.4</ele>
        <time>2013-03-11T20:46:59Z</time>
      </trkpt>
      <trkpt lat="59.5982713" lon="17.5139427">
        <ele>67.2</ele>
        <time>2013-03-11T20:47:05Z</time>
      </trkpt>
      <trkpt lat="59.5980925" lon="17.5140096">
        <ele>66.8</ele>
        <time>2013-03-11T20:47:11Z</time>
      </trkpt>
      <trkpt lat="59.5979283" lon="17.5142477">
        <ele>68.6</ele>
        <time>2013-03-11T20:47:17Z</time>
      </trkpt>
      <trkpt lat="59.5977881" lon="17.5144752">
        <ele>67.4</ele>
        <time>2013-03-11T20:47:22Z</time>
      </trkpt>
      <trkpt lat="59.5976153" lon="17.5145887">
        <ele>66</ele>
        <time>2013-03-11T20:47:27Z</time>
      </trkpt>
      <trkpt lat="59.597407" lon="17.5146421">
        <ele>62.4</ele>
        <time>2013-03-11T20:47:32Z</time>
      </trkpt>
      <trkpt lat="59.597216" lon="17.5147505">
        <ele>59.2</ele>
        <time>2013-03-11T20:47:37Z</time>
      </trkpt>
      <trkpt lat="59.5971354" lon="17.5147726">
        <ele>58.6</ele>
        <time>2013-03-11T20:47:39Z</time>
      </trkpt>
      <trkpt lat="59.5970337" lon="17.5148085">
        <ele>59</ele>
        <time>2013-03-11T20:47:42Z</time>
      </trkpt>
      <trkpt lat="59.5968652" lon="17.5149525">
        <ele>60.2</ele>
        <time>2013-03-11T20:47:47Z</time>
      </trkpt>
      <trkpt lat="59.5966908" lon="17.5151744">
        <ele>67.2</ele>
        <time>2013-03-11T20:47:54Z</time>
      </trkpt>
      <trkpt lat="59.5965049" lon="17.5153529">
        <ele>70.4</ele>
        <time>2013-03-11T20:48:01Z</time>
      </trkpt>
      <trkpt lat="59.5963505" lon="17.51553">
        <ele>73.6</ele>
        <time>2013-03-11T20:48:07Z</time>
      </trkpt>
      <trkpt lat="59.5961943" lon="17.5157439">
        <ele>75.4</ele>
        <time>2013-03-11T20:48:13Z</time>
      </trkpt>
      <trkpt lat="59.5960267" lon="17.5159256">
        <ele>75.2</ele>
        <time>2013-03-11T20:48:18Z</time>
      </trkpt>
      <trkpt lat="59.5958858" lon="17.5162438">
        <ele>75.2</ele>
        <time>2013-03-11T20:48:24Z</time>
      </trkpt>
      <trkpt lat="59.595838" lon="17.5166528">
        <ele>75.4</ele>
        <time>2013-03-11T20:48:30Z</time>
      </trkpt>
      <trkpt lat="59.5957677" lon="17.5170224">
        <ele>74</ele>
        <time>2013-03-11T20:48:35Z</time>
      </trkpt>
      <trkpt lat="59.5956349" lon="17.517385">
        <ele>76</ele>
        <time>2013-03-11T20:48:39Z</time>
      </trkpt>
      <trkpt lat="59.5954144" lon="17.5175927">
        <ele>76.8</ele>
        <time>2013-03-11T20:48:42Z</time>
      </trkpt>
      <trkpt lat="59.5952428" lon="17.5176287">
        <ele>75</ele>
        <time>2013-03-11T20:48:44Z</time>
      </trkpt>
      <trkpt lat="59.5951604" lon="17.5176422">
        <ele>74</ele>
        <time>2013-03-11T20:48:45Z</time>
      </trkpt>
      <trkpt lat="59.5949296" lon="17.5177075">
        <ele>73</ele>
        <time>2013-03-11T20:48:48Z</time>
      </trkpt>
      <trkpt lat="59.5947114" lon="17.5177605">
        <ele>72.6</ele>
        <time>2013-03-11T20:48:51Z</time>
      </trkpt>
      <trkpt lat="59.5945104" lon="17.5178335">
        <ele>74.6</ele>
        <time>2013-03-11T20:48:54Z</time>
      </trkpt>
      <trkpt lat="59.5944566" lon="17.5178756">
        <ele>75.8</ele>
        <time>2013-03-11T20:48:55Z</time>
      </trkpt>
      <trkpt lat="59.5943023" lon="17.5179952">
        <ele>72.4</ele>
        <time>2013-03-11T20:48:58Z</time>
      </trkpt>
      <trkpt lat="59.5941151" lon="17.5181474">
        <ele>71</ele>
        <time>2013-03-11T20:49:02Z</time>
      </trkpt>
      <trkpt lat="59.5940043" lon="17.5181861">
        <ele>70.6</ele>
        <time>2013-03-11T20:49:05Z</time>
      </trkpt>
      <trkpt lat="59.593969" lon="17.5181972">
        <ele>70.4</ele>
        <time>2013-03-11T20:49:06Z</time>
      </trkpt>
      <trkpt lat="59.5939324" lon="17.5182139">
        <ele>70</ele>
        <time>2013-03-11T20:49:07Z</time>
      </trkpt>
      <trkpt lat="59.5937382" lon="17.5182951">
        <ele>67.8</ele>
        <time>2013-03-11T20:49:12Z</time>
      </trkpt>
      <trkpt lat="59.5936128" lon="17.5184075">
        <ele>68.4</ele>
        <time>2013-03-11T20:49:15Z</time>
      </trkpt>
      <trkpt lat="59.5935754" lon="17.5184505">
        <ele>67.4</ele>
        <time>2013-03-11T20:49:16Z</time>
      </trkpt>
      <trkpt lat="59.5934578" lon="17.5186085">
        <ele>66</ele>
        <time>2013-03-11T20:49:19Z</time>
      </trkpt>
      <trkpt lat="59.5934189" lon="17.5186519">
        <ele>65</ele>
        <time>2013-03-11T20:49:20Z</time>
      </trkpt>
      <trkpt lat="59.5933399" lon="17.5187298">
        <ele>64.6</ele>
        <time>2013-03-11T20:49:22Z</time>
      </trkpt>
      <trkpt lat="59.5932476" lon="17.518752">
        <ele>63.6</ele>
        <time>2013-03-11T20:49:24Z</time>
      </trkpt>
      <trkpt lat="59.5931607" lon="17.5187627">
        <ele>63.2</ele>
        <time>2013-03-11T20:49:26Z</time>
      </trkpt>
      <trkpt lat="59.5930274" lon="17.5187163">
        <ele>64</ele>
        <time>2013-03-11T20:49:29Z</time>
      </trkpt>
      <trkpt lat="59.5928757" lon="17.5184845">
        <ele>61.8</ele>
        <time>2013-03-11T20:49:33Z</time>
      </trkpt>
      <trkpt lat="59.5927892" lon="17.518379">
        <ele>60.2</ele>
        <time>2013-03-11T20:49:35Z</time>
      </trkpt>
      <trkpt lat="59.5927099" lon="17.5182418">
        <ele>57.2</ele>
        <time>2013-03-11T20:49:37Z</time>
      </trkpt>
      <trkpt lat="59.5926773" lon="17.5181754">
        <ele>56.4</ele>
        <time>2013-03-11T20:49:38Z</time>
      </trkpt>
      <trkpt lat="59.5925807" lon="17.5176101">
        <ele>58.8</ele>
        <time>2013-03-11T20:56:06Z</time>
      </trkpt>
      <trkpt lat="59.5926336" lon="17.5172554">
        <ele>57.8</ele>
        <time>2013-03-11T20:56:11Z</time>
      </trkpt>
      <trkpt lat="59.5926773" lon="17.5168906">
        <ele>57</ele>
        <time>2013-03-11T20:56:15Z</time>
      </trkpt>
      <trkpt lat="59.5927084" lon="17.5166373">
        <ele>55.8</ele>
        <time>2013-03-11T20:56:17Z</time>
      </trkpt>
      <trkpt lat="59.5927333" lon="17.5165102">
        <ele>55.2</ele>
        <time>2013-03-11T20:56:18Z</time>
      </trkpt>
      <trkpt lat="59.5928302" lon="17.5161392">
        <ele>54</ele>
        <time>2013-03-11T20:56:21Z</time>
      </trkpt>
      <trkpt lat="59.592874" lon="17.5160302">
        <ele>53.6</ele>
        <time>2013-03-11T20:56:22Z</time>
      </trkpt>
      <trkpt lat="59.5929105" lon="17.5159024">
        <ele>53.8</ele>
        <time>2013-03-11T20:56:23Z</time>
      </trkpt>
      <trkpt lat="59.5929495" lon="17.5157569">
        <ele>54.4</ele>
        <time>2013-03-11T20:56:24Z</time>
      </trkpt>
      <trkpt lat="59.5930674" lon="17.5153575">
        <ele>53</ele>
        <time>2013-03-11T20:56:27Z</time>
      </trkpt>
      <trkpt lat="59.5931814" lon="17.5149767">
        <ele>52</ele>
        <time>2013-03-11T20:56:30Z</time>
      </trkpt>
      <trkpt lat="59.5932656" lon="17.5147489">
        <ele>51.4</ele>
        <time>2013-03-11T20:56:32Z</time>
      </trkpt>
      <trkpt lat="59.5933246" lon="17.5146709">
        <ele>51.2</ele>
        <time>2013-03-11T20:56:33Z</time>
      </trkpt>
      <trkpt lat="59.5935215" lon="17.5145592">
        <ele>50.4</ele>
        <time>2013-03-11T20:56:36Z</time>
      </trkpt>
      <trkpt lat="59.5937211" lon="17.5144924">
        <ele>48.8</ele>
        <time>2013-03-11T20:56:40Z</time>
      </trkpt>
      <trkpt lat="59.5937633" lon="17.5144858">
        <ele>48.4</ele>
        <time>2013-03-11T20:56:41Z</time>
      </trkpt>
      <trkpt lat="59.5939319" lon="17.5145763">
        <ele>47</ele>
        <time>2013-03-11T20:56:45Z</time>
      </trkpt>
      <trkpt lat="59.5940516" lon="17.5147856">
        <ele>45.6</ele>
        <time>2013-03-11T20:56:50Z</time>
      </trkpt>
      <trkpt lat="59.5940806" lon="17.5148374">
        <ele>46.2</ele>
        <time>2013-03-11T20:56:51Z</time>
      </trkpt>
      <trkpt lat="59.5942239" lon="17.5151145">
        <ele>48.6</ele>
        <time>2013-03-11T20:56:58Z</time>
      </trkpt>
      <trkpt lat="59.5944003" lon="17.5152873">
        <ele>50.8</ele>
        <time>2013-03-11T20:57:05Z</time>
      </trkpt>
      <trkpt lat="59.5945982" lon="17.5154309">
        <ele>54.6</ele>
        <time>2013-03-11T20:57:12Z</time>
      </trkpt>
      <trkpt lat="59.5947845" lon="17.515552">
        <ele>56.2</ele>
        <time>2013-03-11T20:57:18Z</time>
      </trkpt>
      <trkpt lat="59.5949783" lon="17.5156423">
        <ele>56.4</ele>
        <time>2013-03-11T20:57:24Z</time>
      </trkpt>
      <trkpt lat="59.5951781" lon="17.5156558">
        <ele>56.4</ele>
        <time>2013-03-11T20:57:30Z</time>
      </trkpt>
      <trkpt lat="59.5953693" lon="17.5155847">
        <ele>57.2</ele>
        <time>2013-03-11T20:57:36Z</time>
      </trkpt>
      <trkpt lat="59.5955253" lon="17.5153501">
        <ele>57.8</ele>
        <time>2013-03-11T20:57:42Z</time>
      </trkpt>
      <trkpt lat="59.5956351" lon="17.5150623">
        <ele>57.6</ele>
        <time>2013-03-11T20:57:47Z</time>
      </trkpt>
      <trkpt lat="59.5957143" lon="17.5146621">
        <ele>57.8</ele>
        <time>2013-03-11T20:57:52Z</time>
      </trkpt>
      <trkpt lat="59.5957787" lon="17.5143193">
        <ele>55.8</ele>
        <time>2013-03-11T20:57:56Z</time>
      </trkpt>
      <trkpt lat="59.5957993" lon="17.5138778">
        <ele>53.2</ele>
        <time>2013-03-11T20:58:02Z</time>
      </trkpt>
      <trkpt lat="59.5958118" lon="17.5134992">
        <ele>51.6</ele>
        <time>2013-03-11T20:58:04Z</time>
      </trkpt>
      <trkpt lat="59.5958312" lon="17.513202">
        <ele>50.6</ele>
        <time>2013-03-11T20:58:07Z</time>
      </trkpt>
      <trkpt lat="59.595854" lon="17.5130512">
        <ele>50.2</ele>
        <time>2013-03-11T20:58:08Z</time>
      </trkpt>
      <trkpt lat="59.5960189" lon="17.5127405">
        <ele>49</ele>
        <time>2013-03-11T20:58:11Z</time>
      </trkpt>
      <trkpt lat="59.5961685" lon="17.5126623">
        <ele>48.4</ele>
        <time>2013-03-11T20:58:12Z</time>
      </trkpt>
      <trkpt lat="59.5962431" lon="17.5126299">
        <ele>48.2</ele>
        <time>2013-03-11T20:58:14Z</time>
      </trkpt>
      <trkpt lat="59.5964379" lon="17.5125663">
        <ele>48</ele>
        <time>2013-03-11T20:58:16Z</time>
      </trkpt>
      <trkpt lat="59.596622" lon="17.5125644">
        <ele>47.8</ele>
        <time>2013-03-11T20:58:20Z</time>
      </trkpt>
      <trkpt lat="59.5968246" lon="17.5125769">
        <ele>47.8</ele>
        <time>2013-03-11T20:58:24Z</time>
      </trkpt>
      <trkpt lat="59.5970177" lon="17.5125256">
        <ele>48.2</ele>
        <time>2013-03-11T20:58:27Z</time>
      </trkpt>
      <trkpt lat="59.5972055" lon="17.5124229">
        <ele>48.8</ele>
        <time>2013-03-11T20:58:31Z</time>
      </trkpt>
      <trkpt lat="59.597386" lon="17.5123576">
        <ele>48.8</ele>
        <time>2013-03-11T20:58:36Z</time>
      </trkpt>
      <trkpt lat="59.5975725" lon="17.5122756">
        <ele>48.2</ele>
        <time>2013-03-11T20:58:40Z</time>
      </trkpt>
      <trkpt lat="59.5977694" lon="17.5121462">
        <ele>46.8</ele>
        <time>2013-03-11T20:58:43Z</time>
      </trkpt>
      <trkpt lat="59.5979081" lon="17.5120319">
        <ele>47</ele>
        <time>2013-03-11T20:58:46Z</time>
      </trkpt>
      <trkpt lat="59.5979532" lon="17.5119864">
        <ele>47</ele>
        <time>2013-03-11T20:58:48Z</time>
      </trkpt>
      <trkpt lat="59.5980734" lon="17.5118213">
        <ele>46.6</ele>
        <time>2013-03-11T20:58:50Z</time>
      </trkpt>
      <trkpt lat="59.5981061" lon="17.5117716">
        <ele>45.8</ele>
        <time>2013-03-11T20:58:52Z</time>
      </trkpt>
      <trkpt lat="59.5981387" lon="17.5117216">
        <ele>45.4</ele>
        <time>2013-03-11T20:58:53Z</time>
      </trkpt>
      <trkpt lat="59.5982659" lon="17.5115377">
        <ele>43.6</ele>
        <time>2013-03-11T20:58:56Z</time>
      </trkpt>
      <trkpt lat="59.5984115" lon="17.5113294">
        <ele>41.8</ele>
        <time>2013-03-11T20:58:58Z</time>
      </trkpt>
      <trkpt lat="59.5984661" lon="17.5112689">
        <ele>41.2</ele>
        <time>2013-03-11T20:59:00Z</time>
      </trkpt>
      <trkpt lat="59.5985882" lon="17.5111875">
        <ele>40.2</ele>
        <time>2013-03-11T20:59:01Z</time>
      </trkpt>
      <trkpt lat="59.598697" lon="17.5111284">
        <ele>40.2</ele>
        <time>2013-03-11T20:59:04Z</time>
      </trkpt>
      <trkpt lat="59.5987484" lon="17.5111036">
        <ele>40.4</ele>
        <time>2013-03-11T20:59:05Z</time>
      </trkpt>
      <trkpt lat="59.5987995" lon="17.5110734">
        <ele>40.6</ele>
        <time>2013-03-11T20:59:06Z</time>
      </trkpt>
      <trkpt lat="59.5990093" lon="17.5109642">
        <ele>40.2</ele>
        <time>2013-03-11T20:59:10Z</time>
      </trkpt>
      <trkpt lat="59.5991776" lon="17.510905">
        <ele>39.6</ele>
        <time>2013-03-11T20:59:13Z</time>
      </trkpt>
      <trkpt lat="59.5992371" lon="17.5109057">
        <ele>39.2</ele>
        <time>2013-03-11T20:59:14Z</time>
      </trkpt>
      <trkpt lat="59.5994524" lon="17.5110255">
        <ele>38.2</ele>
        <time>2013-03-11T20:59:17Z</time>
      </trkpt>
      <trkpt lat="59.5995684" lon="17.5112314">
        <ele>38</ele>
        <time>2013-03-11T20:59:20Z</time>
      </trkpt>
      <trkpt lat="59.5995838" lon="17.5113244">
        <ele>38</ele>
        <time>2013-03-11T20:59:22Z</time>
      </trkpt>
      <trkpt lat="59.5996015" lon="17.5114951">
        <ele>39.4</ele>
        <time>2013-03-11T20:59:24Z</time>
      </trkpt>
      <trkpt lat="59.5996054" lon="17.5117194">
        <ele>39.8</ele>
        <time>2013-03-11T20:59:27Z</time>
      </trkpt>
      <trkpt lat="59.5996056" lon="17.5117949">
        <ele>40.2</ele>
        <time>2013-03-11T20:59:28Z</time>
      </trkpt>
      <trkpt lat="59.5995267" lon="17.5120831">
        <ele>40.2</ele>
        <time>2013-03-11T20:59:32Z</time>
      </trkpt>
      <trkpt lat="59.5993569" lon="17.5122893">
        <ele>40.4</ele>
        <time>2013-03-11T20:59:35Z</time>
      </trkpt>
      <trkpt lat="59.5992504" lon="17.5124013">
        <ele>40.4</ele>
        <time>2013-03-11T20:59:39Z</time>
      </trkpt>
      <trkpt lat="59.5992009" lon="17.5125006">
        <ele>40.2</ele>
        <time>2013-03-11T20:59:41Z</time>
      </trkpt>
      <trkpt lat="59.5991964" lon="17.5128643">
        <ele>41.6</ele>
        <time>2013-03-11T20:59:46Z</time>
      </trkpt>
      <trkpt lat="59.5991731" lon="17.5132951">
        <ele>41.4</ele>
        <time>2013-03-11T20:59:50Z</time>
      </trkpt>
      <trkpt lat="59.5990752" lon="17.5135764">
        <ele>42.4</ele>
        <time>2013-03-11T20:59:56Z</time>
      </trkpt>
      <trkpt lat="59.5990548" lon="17.513633">
        <ele>42.6</ele>
        <time>2013-03-11T20:59:57Z</time>
      </trkpt>
      <trkpt lat="59.5989083" lon="17.5138341">
        <ele>42.6</ele>
        <time>2013-03-11T21:00:02Z</time>
      </trkpt>
      <trkpt lat="59.5987058" lon="17.5139237">
        <ele>47.4</ele>
        <time>2013-03-11T21:00:09Z</time>
      </trkpt>
      <trkpt lat="59.5985266" lon="17.5139365">
        <ele>50.4</ele>
        <time>2013-03-11T21:00:16Z</time>
      </trkpt>
      <trkpt lat="59.5983306" lon="17.513941">
        <ele>51</ele>
        <time>2013-03-11T21:00:22Z</time>
      </trkpt>
      <trkpt lat="59.5981371" lon="17.5140016">
        <ele>50.6</ele>
        <time>2013-03-11T21:00:29Z</time>
      </trkpt>
      <trkpt lat="59.5979546" lon="17.514106">
        <ele>49</ele>
        <time>2013-03-11T21:00:35Z</time>
      </trkpt>
      <trkpt lat="59.5978164" lon="17.5143422">
        <ele>49</ele>
        <time>2013-03-11T21:00:41Z</time>
      </trkpt>
      <trkpt lat="59.5976397" lon="17.5145526">
        <ele>50</ele>
        <time>2013-03-11T21:00:47Z</time>
      </trkpt>
      <trkpt lat="59.5974658" lon="17.5146457">
        <ele>49.6</ele>
        <time>2013-03-11T21:00:52Z</time>
      </trkpt>
      <trkpt lat="59.5972513" lon="17.5147239">
        <ele>50.8</ele>
        <time>2013-03-11T21:00:58Z</time>
      </trkpt>
      <trkpt lat="59.5970462" lon="17.514831">
        <ele>50.2</ele>
        <time>2013-03-11T21:01:04Z</time>
      </trkpt>
      <trkpt lat="59.5968535" lon="17.5149706">
        <ele>48.8</ele>
        <time>2013-03-11T21:01:10Z</time>
      </trkpt>
      <trkpt lat="59.5966824" lon="17.5151554">
        <ele>50</ele>
        <time>2013-03-11T21:01:16Z</time>
      </trkpt>
      <trkpt lat="59.5965054" lon="17.5152911">
        <ele>49.6</ele>
        <time>2013-03-11T21:01:22Z</time>
      </trkpt>
      <trkpt lat="59.5963245" lon="17.5154549">
        <ele>48.6</ele>
        <time>2013-03-11T21:01:28Z</time>
      </trkpt>
      <trkpt lat="59.5961536" lon="17.5156263">
        <ele>49.2</ele>
        <time>2013-03-11T21:01:33Z</time>
      </trkpt>
      <trkpt lat="59.5959866" lon="17.5158252">
        <ele>50</ele>
        <time>2013-03-11T21:01:39Z</time>
      </trkpt>
      <trkpt lat="59.5958428" lon="17.5160757">
        <ele>50.4</ele>
        <time>2013-03-11T21:01:45Z</time>
      </trkpt>
      <trkpt lat="59.5957584" lon="17.5164058">
        <ele>50.4</ele>
        <time>2013-03-11T21:01:50Z</time>
      </trkpt>
      <trkpt lat="59.595703" lon="17.5168015">
        <ele>50.6</ele>
        <time>2013-03-11T21:01:57Z</time>
      </trkpt>
      <trkpt lat="59.5956114" lon="17.5171128">
        <ele>50.2</ele>
        <time>2013-03-11T21:02:01Z</time>
      </trkpt>
      <trkpt lat="59.5954859" lon="17.5174005">
        <ele>49.8</ele>
        <time>2013-03-11T21:02:04Z</time>
      </trkpt>
      <trkpt lat="59.5953313" lon="17.5175414">
        <ele>51.4</ele>
        <time>2013-03-11T21:02:06Z</time>
      </trkpt>
      <trkpt lat="59.5951601" lon="17.5176112">
        <ele>53.2</ele>
        <time>2013-03-11T21:02:08Z</time>
      </trkpt>
      <trkpt lat="59.5950746" lon="17.5176381">
        <ele>53.8</ele>
        <time>2013-03-11T21:02:09Z</time>
      </trkpt>
      <trkpt lat="59.5948343" lon="17.5177243">
        <ele>55.4</ele>
        <time>2013-03-11T21:02:12Z</time>
      </trkpt>
      <trkpt lat="59.5946078" lon="17.5178025">
        <ele>57.6</ele>
        <time>2013-03-11T21:02:15Z</time>
      </trkpt>
      <trkpt lat="59.594409" lon="17.5178406">
        <ele>55.6</ele>
        <time>2013-03-11T21:02:18Z</time>
      </trkpt>
      <trkpt lat="59.5943499" lon="17.5178687">
        <ele>56.2</ele>
        <time>2013-03-11T21:02:19Z</time>
      </trkpt>
      <trkpt lat="59.5941919" lon="17.5179768">
        <ele>56.6</ele>
        <time>2013-03-11T21:02:22Z</time>
      </trkpt>
      <trkpt lat="59.5941464" lon="17.5180149">
        <ele>56.4</ele>
        <time>2013-03-11T21:02:23Z</time>
      </trkpt>
      <trkpt lat="59.5940672" lon="17.5180874">
        <ele>56</ele>
        <time>2013-03-11T21:02:25Z</time>
      </trkpt>
      <trkpt lat="59.5939897" lon="17.5181268">
        <ele>55.4</ele>
        <time>2013-03-11T21:02:27Z</time>
      </trkpt>
      <trkpt lat="59.5937926" lon="17.5182175">
        <ele>50.8</ele>
        <time>2013-03-11T21:02:32Z</time>
      </trkpt>
      <trkpt lat="59.5937552" lon="17.518232">
        <ele>49.6</ele>
        <time>2013-03-11T21:02:33Z</time>
      </trkpt>
      <trkpt lat="59.5936165" lon="17.5182937">
        <ele>46.6</ele>
        <time>2013-03-11T21:02:36Z</time>
      </trkpt>
      <trkpt lat="59.5935719" lon="17.5183296">
        <ele>46.2</ele>
        <time>2013-03-11T21:02:37Z</time>
      </trkpt>
      <trkpt lat="59.5934183" lon="17.5184785">
        <ele>45</ele>
        <time>2013-03-11T21:02:41Z</time>
      </trkpt>
      <trkpt lat="59.5933583" lon="17.5185593">
        <ele>44.2</ele>
        <time>2013-03-11T21:02:43Z</time>
      </trkpt>
      <trkpt lat="59.5932658" lon="17.5186762">
        <ele>43.6</ele>
        <time>2013-03-11T21:02:46Z</time>
      </trkpt>
      <trkpt lat="59.5930658" lon="17.518743">
        <ele>41.4</ele>
        <time>2013-03-11T21:02:51Z</time>
      </trkpt>
      <trkpt lat="59.592985" lon="17.5187173">
        <ele>39.8</ele>
        <time>2013-03-11T21:02:53Z</time>
      </trkpt>
      <trkpt lat="59.5929042" lon="17.518621">
        <ele>39</ele>
        <time>2013-03-11T21:02:55Z</time>
      </trkpt>
      <trkpt lat="59.5927508" lon="17.5183852">
        <ele>36.8</ele>
        <time>2013-03-11T21:02:59Z</time>
      </trkpt>
      <trkpt lat="59.5926115" lon="17.5181439">
        <ele>34.6</ele>
        <time>2013-03-11T21:03:03Z</time>
      </trkpt>
      <trkpt lat="59.5925903" lon="17.518076">
        <ele>34.4</ele>
        <time>2013-03-11T21:03:04Z</time>
      </trkpt>
      <trkpt lat="59.5925592" lon="17.5177274">
        <ele>31.6</ele>
        <time>2013-03-11T21:03:08Z</time>
      </trkpt>
      <trkpt lat="59.5925654" lon="17.5176433">
        <ele>32.2</ele>
        <time>2013-03-11T21:03:09Z</time>
      </trkpt>
      <trkpt lat="59.5925699" lon="17.5175545">
        <ele>31.8</ele>
        <time>2013-03-11T21:03:10Z</time>
      </trkpt>
      <trkpt lat="59.5926062" lon="17.5172949">
        <ele>32.4</ele>
        <time>2013-03-11T21:03:13Z</time>
      </trkpt>
      <trkpt lat="59.592623" lon="17.5171206">
        <ele>33</ele>
        <time>2013-03-11T21:03:15Z</time>
      </trkpt>
      <trkpt lat="59.5926388" lon="17.516933">
        <ele>32.6</ele>
        <time>2013-03-11T21:03:17Z</time>
      </trkpt>
      <trkpt lat="59.5926781" lon="17.5165759">
        <ele>32.4</ele>
        <time>2013-03-11T21:03:20Z</time>
      </trkpt>
      <trkpt lat="59.5927788" lon="17.5162371">
        <ele>33</ele>
        <time>2013-03-11T21:03:23Z</time>
      </trkpt>
      <trkpt lat="59.5929066" lon="17.5159117">
        <ele>33.4</ele>
        <time>2013-03-11T21:03:26Z</time>
      </trkpt>
      <trkpt lat="59.5929415" lon="17.5157833">
        <ele>33.6</ele>
        <time>2013-03-11T21:03:27Z</time>
      </trkpt>
      <trkpt lat="59.5930114" lon="17.5155212">
        <ele>33.2</ele>
        <time>2013-03-11T21:03:29Z</time>
      </trkpt>
      <trkpt lat="59.5931373" lon="17.5151419">
        <ele>33.2</ele>
        <time>2013-03-11T21:03:32Z</time>
      </trkpt>
      <trkpt lat="59.5932782" lon="17.5148045">
        <ele>33.4</ele>
        <time>2013-03-11T21:03:35Z</time>
      </trkpt>
      <trkpt lat="59.5933345" lon="17.5147212">
        <ele>33.6</ele>
        <time>2013-03-11T21:03:36Z</time>
      </trkpt>
      <trkpt lat="59.5934444" lon="17.5146053">
        <ele>34.2</ele>
        <time>2013-03-11T21:03:38Z</time>
      </trkpt>
      <trkpt lat="59.5935501" lon="17.5145524">
        <ele>34</ele>
        <time>2013-03-11T21:03:40Z</time>
      </trkpt>
      <trkpt lat="59.5936465" lon="17.5145103">
        <ele>34.2</ele>
        <time>2013-03-11T21:03:42Z</time>
      </trkpt>
      <trkpt lat="59.5937638" lon="17.5144951">
        <ele>33.6</ele>
        <time>2013-03-11T21:03:45Z</time>
      </trkpt>
      <trkpt lat="59.593839" lon="17.5145452">
        <ele>34.6</ele>
        <time>2013-03-11T21:03:47Z</time>
      </trkpt>
      <trkpt lat="59.5939571" lon="17.5147033">
        <ele>33.8</ele>
        <time>2013-03-11T21:03:51Z</time>
      </trkpt>
      <trkpt lat="59.5940028" lon="17.5148134">
        <ele>34.2</ele>
        <time>2013-03-11T21:03:53Z</time>
      </trkpt>
      <trkpt lat="59.5941499" lon="17.5150685">
        <ele>36</ele>
        <time>2013-03-11T21:04:00Z</time>
      </trkpt>
      <trkpt lat="59.5943278" lon="17.5152306">
        <ele>40.8</ele>
        <time>2013-03-11T21:04:07Z</time>
      </trkpt>
      <trkpt lat="59.5945072" lon="17.5154093">
        <ele>43.8</ele>
        <time>2013-03-11T21:04:14Z</time>
      </trkpt>
      <trkpt lat="59.5945407" lon="17.5154459">
        <ele>44.8</ele>
        <time>2013-03-11T21:04:16Z</time>
      </trkpt>
      <trkpt lat="59.594688" lon="17.5155551">
        <ele>47</ele>
        <time>2013-03-11T21:04:21Z</time>
      </trkpt>
      <trkpt lat="59.5949038" lon="17.5156464">
        <ele>47.8</ele>
        <time>2013-03-11T21:04:26Z</time>
      </trkpt>
      <trkpt lat="59.595099" lon="17.5156652">
        <ele>48.2</ele>
        <time>2013-03-11T21:04:32Z</time>
      </trkpt>
      <trkpt lat="59.5953023" lon="17.5156274">
        <ele>47.8</ele>
        <time>2013-03-11T21:04:38Z</time>
      </trkpt>
      <trkpt lat="59.5954437" lon="17.5154015">
        <ele>46.4</ele>
        <time>2013-03-11T21:04:44Z</time>
      </trkpt>
      <trkpt lat="59.5955497" lon="17.5150989">
        <ele>44.6</ele>
        <time>2013-03-11T21:04:50Z</time>
      </trkpt>
      <trkpt lat="59.5956399" lon="17.5147367">
        <ele>44.8</ele>
        <time>2013-03-11T21:04:55Z</time>
      </trkpt>
      <trkpt lat="59.5957189" lon="17.5144245">
        <ele>42.8</ele>
        <time>2013-03-11T21:04:59Z</time>
      </trkpt>
      <trkpt lat="59.5957237" lon="17.5143506">
        <ele>42</ele>
        <time>2013-03-11T21:05:00Z</time>
      </trkpt>
      <trkpt lat="59.5957309" lon="17.5139956">
        <ele>40.2</ele>
        <time>2013-03-11T21:05:04Z</time>
      </trkpt>
      <trkpt lat="59.5957356" lon="17.5138843">
        <ele>39.6</ele>
        <time>2013-03-11T21:05:05Z</time>
      </trkpt>
      <trkpt lat="59.5957437" lon="17.5136263">
        <ele>38.2</ele>
        <time>2013-03-11T21:05:07Z</time>
      </trkpt>
      <trkpt lat="59.5957744" lon="17.5131858">
        <ele>36.4</ele>
        <time>2013-03-11T21:05:10Z</time>
      </trkpt>
      <trkpt lat="59.5959113" lon="17.5127932">
        <ele>36</ele>
        <time>2013-03-11T21:05:13Z</time>
      </trkpt>
      <trkpt lat="59.5961448" lon="17.512653">
        <ele>35.2</ele>
        <time>2013-03-11T21:05:16Z</time>
      </trkpt>
      <trkpt lat="59.5963732" lon="17.5125711">
        <ele>35.2</ele>
        <time>2013-03-11T21:05:19Z</time>
      </trkpt>
      <trkpt lat="59.596607" lon="17.5125507">
        <ele>35.4</ele>
        <time>2013-03-11T21:05:23Z</time>
      </trkpt>
      <trkpt lat="59.5968315" lon="17.512521">
        <ele>36.4</ele>
        <time>2013-03-11T21:05:27Z</time>
      </trkpt>
      <trkpt lat="59.5970187" lon="17.5124628">
        <ele>33.4</ele>
        <time>2013-03-11T21:05:31Z</time>
      </trkpt>
      <trkpt lat="59.5970651" lon="17.5124359">
        <ele>32.8</ele>
        <time>2013-03-11T21:05:32Z</time>
      </trkpt>
      <trkpt lat="59.5972364" lon="17.5123597">
        <ele>31.8</ele>
        <time>2013-03-11T21:05:36Z</time>
      </trkpt>
      <trkpt lat="59.597379" lon="17.5123362">
        <ele>31.8</ele>
        <time>2013-03-11T21:05:39Z</time>
      </trkpt>
      <trkpt lat="59.5974341" lon="17.5123235">
        <ele>32</ele>
        <time>2013-03-11T21:05:40Z</time>
      </trkpt>
      <trkpt lat="59.5976267" lon="17.5122357">
        <ele>30.6</ele>
        <time>2013-03-11T21:05:44Z</time>
      </trkpt>
      <trkpt lat="59.5978206" lon="17.5121023">
        <ele>30.4</ele>
        <time>2013-03-11T21:05:48Z</time>
      </trkpt>
      <trkpt lat="59.5979687" lon="17.5119696">
        <ele>30.2</ele>
        <time>2013-03-11T21:05:51Z</time>
      </trkpt>
      <trkpt lat="59.5980203" lon="17.5119204">
        <ele>30.2</ele>
        <time>2013-03-11T21:05:52Z</time>
      </trkpt>
      <trkpt lat="59.5981867" lon="17.5116738">
        <ele>29.6</ele>
        <time>2013-03-11T21:05:56Z</time>
      </trkpt>
      <trkpt lat="59.5983566" lon="17.5113864">
        <ele>27.8</ele>
        <time>2013-03-11T21:06:00Z</time>
      </trkpt>
      <trkpt lat="59.5985578" lon="17.5111709">
        <ele>27.8</ele>
        <time>2013-03-11T21:06:04Z</time>
      </trkpt>
      <trkpt lat="59.5987396" lon="17.5110594">
        <ele>28.4</ele>
        <time>2013-03-11T21:06:08Z</time>
      </trkpt>
      <trkpt lat="59.5989443" lon="17.5109371">
        <ele>27.4</ele>
        <time>2013-03-11T21:06:12Z</time>
      </trkpt>
      <trkpt lat="59.5991561" lon="17.5108569">
        <ele>28.4</ele>
        <time>2013-03-11T21:06:16Z</time>
      </trkpt>
      <trkpt lat="59.5992539" lon="17.5108627">
        <ele>27.8</ele>
        <time>2013-03-11T21:06:18Z</time>
      </trkpt>
      <trkpt lat="59.5993488" lon="17.5109234">
        <ele>27</ele>
        <time>2013-03-11T21:06:20Z</time>
      </trkpt>
      <trkpt lat="59.5995041" lon="17.5111782">
        <ele>25.4</ele>
        <time>2013-03-11T21:06:24Z</time>
      </trkpt>
      <trkpt lat="59.5995428" lon="17.5112585">
        <ele>27</ele>
        <time>2013-03-11T21:06:25Z</time>
      </trkpt>
      <trkpt lat="59.5995663" lon="17.5113487">
        <ele>29</ele>
        <time>2013-03-11T21:06:26Z</time>
      </trkpt>
      <trkpt lat="59.5995736" lon="17.5115023">
        <ele>29</ele>
        <time>2013-03-11T21:06:28Z</time>
      </trkpt>
      <trkpt lat="59.5995746" lon="17.5118408">
        <ele>30.2</ele>
        <time>2013-03-11T21:06:32Z</time>
      </trkpt>
      <trkpt lat="59.5995699" lon="17.5119113">
        <ele>30</ele>
        <time>2013-03-11T21:06:33Z</time>
      </trkpt>
      <trkpt lat="59.5995563" lon="17.5119811">
        <ele>30.4</ele>
        <time>2013-03-11T21:06:34Z</time>
      </trkpt>
      <trkpt lat="59.5994382" lon="17.5122218">
        <ele>31</ele>
        <time>2013-03-11T21:06:38Z</time>
      </trkpt>
      <trkpt lat="59.599402" lon="17.5122624">
        <ele>31.2</ele>
        <time>2013-03-11T21:06:39Z</time>
      </trkpt>
      <trkpt lat="59.5993259" lon="17.5123385">
        <ele>30.8</ele>
        <time>2013-03-11T21:06:41Z</time>
      </trkpt>
      <trkpt lat="59.599258" lon="17.5124126">
        <ele>30.4</ele>
        <time>2013-03-11T21:06:43Z</time>
      </trkpt>
      <trkpt lat="59.5991884" lon="17.5127279">
        <ele>31.6</ele>
        <time>2013-03-11T21:06:48Z</time>
      </trkpt>
      <trkpt lat="59.5991938" lon="17.5128011">
        <ele>31.8</ele>
        <time>2013-03-11T21:06:49Z</time>
      </trkpt>
      <trkpt lat="59.5992109" lon="17.5131487">
        <ele>32.6</ele>
        <time>2013-03-11T21:06:53Z</time>
      </trkpt>
      <trkpt lat="59.5991965" lon="17.5132417">
        <ele>32.2</ele>
        <time>2013-03-11T21:06:54Z</time>
      </trkpt>
      <trkpt lat="59.5991202" lon="17.5134712">
        <ele>32.4</ele>
        <time>2013-03-11T21:06:57Z</time>
      </trkpt>
      <trkpt lat="59.5990655" lon="17.5135774">
        <ele>33</ele>
        <time>2013-03-11T21:06:59Z</time>
      </trkpt>
      <trkpt lat="59.5989908" lon="17.5137362">
        <ele>33</ele>
        <time>2013-03-11T21:07:02Z</time>
      </trkpt>
      <trkpt lat="59.5989638" lon="17.513779">
        <ele>32.4</ele>
        <time>2013-03-11T21:07:03Z</time>
      </trkpt>
      <trkpt lat="59.5988179" lon="17.5138764">
        <ele>33.6</ele>
        <time>2013-03-11T21:07:08Z</time>
      </trkpt>
      <trkpt lat="59.5987937" lon="17.5138723">
        <ele>33.8</ele>
        <time>2013-03-11T21:07:09Z</time>
      </trkpt>
      <trkpt lat="59.5986194" lon="17.5138776">
        <ele>36</ele>
        <time>2013-03-11T21:07:17Z</time>
      </trkpt>
      <trkpt lat="59.5984327" lon="17.5138744">
        <ele>37.4</ele>
        <time>2013-03-11T21:07:23Z</time>
      </trkpt>
      <trkpt lat="59.5982376" lon="17.5139115">
        <ele>40.4</ele>
        <time>2013-03-11T21:07:29Z</time>
      </trkpt>
      <trkpt lat="59.5981366" lon="17.5139464">
        <ele>39.8</ele>
        <time>2013-03-11T21:07:33Z</time>
      </trkpt>
      <trkpt lat="59.5980438" lon="17.5139873">
        <ele>40.4</ele>
        <time>2013-03-11T21:07:36Z</time>
      </trkpt>
      <trkpt lat="59.5978715" lon="17.5141729">
        <ele>42.4</ele>
        <time>2013-03-11T21:07:42Z</time>
      </trkpt>
      <trkpt lat="59.5977082" lon="17.5144528">
        <ele>43.2</ele>
        <time>2013-03-11T21:07:48Z</time>
      </trkpt>
      <trkpt lat="59.597514" lon="17.5146059">
        <ele>42.2</ele>
        <time>2013-03-11T21:07:54Z</time>
      </trkpt>
      <trkpt lat="59.5973309" lon="17.5146719">
        <ele>42</ele>
        <time>2013-03-11T21:08:00Z</time>
      </trkpt>
      <trkpt lat="59.597127" lon="17.5147544">
        <ele>41.4</ele>
        <time>2013-03-11T21:08:06Z</time>
      </trkpt>
      <trkpt lat="59.5969307" lon="17.5148342">
        <ele>40.4</ele>
        <time>2013-03-11T21:08:12Z</time>
      </trkpt>
      <trkpt lat="59.5967574" lon="17.5150144">
        <ele>41.6</ele>
        <time>2013-03-11T21:08:18Z</time>
      </trkpt>
      <trkpt lat="59.5965938" lon="17.5151886">
        <ele>44.4</ele>
        <time>2013-03-11T21:08:25Z</time>
      </trkpt>
      <trkpt lat="59.5964238" lon="17.5153704">
        <ele>47</ele>
        <time>2013-03-11T21:08:31Z</time>
      </trkpt>
      <trkpt lat="59.596236" lon="17.5155502">
        <ele>48</ele>
        <time>2013-03-11T21:08:37Z</time>
      </trkpt>
      <trkpt lat="59.5960652" lon="17.5157438">
        <ele>47.8</ele>
        <time>2013-03-11T21:08:43Z</time>
      </trkpt>
      <trkpt lat="59.595889" lon="17.5159665">
        <ele>48.6</ele>
        <time>2013-03-11T21:08:49Z</time>
      </trkpt>
      <trkpt lat="59.5957722" lon="17.5162651">
        <ele>48.8</ele>
        <time>2013-03-11T21:08:55Z</time>
      </trkpt>
      <trkpt lat="59.5957308" lon="17.5166426">
        <ele>48.8</ele>
        <time>2013-03-11T21:09:01Z</time>
      </trkpt>
      <trkpt lat="59.5956523" lon="17.5169457">
        <ele>48.2</ele>
        <time>2013-03-11T21:09:06Z</time>
      </trkpt>
      <trkpt lat="59.5955289" lon="17.5172656">
        <ele>48.4</ele>
        <time>2013-03-11T21:09:10Z</time>
      </trkpt>
      <trkpt lat="59.5954698" lon="17.5173518">
        <ele>48.4</ele>
        <time>2013-03-11T21:09:11Z</time>
      </trkpt>
      <trkpt lat="59.5953175" lon="17.5174896">
        <ele>48.6</ele>
        <time>2013-03-11T21:09:13Z</time>
      </trkpt>
      <trkpt lat="59.5950762" lon="17.5175814">
        <ele>47.2</ele>
        <time>2013-03-11T21:09:16Z</time>
      </trkpt>
      <trkpt lat="59.5948436" lon="17.5176495">
        <ele>45.4</ele>
        <time>2013-03-11T21:09:19Z</time>
      </trkpt>
      <trkpt lat="59.5946214" lon="17.5177155">
        <ele>44</ele>
        <time>2013-03-11T21:09:22Z</time>
      </trkpt>
      <trkpt lat="59.594425" lon="17.5177694">
        <ele>42.4</ele>
        <time>2013-03-11T21:09:25Z</time>
      </trkpt>
      <trkpt lat="59.5943675" lon="17.5177842">
        <ele>41.2</ele>
        <time>2013-03-11T21:09:26Z</time>
      </trkpt>
      <trkpt lat="59.5942119" lon="17.5179171">
        <ele>41.8</ele>
        <time>2013-03-11T21:09:29Z</time>
      </trkpt>
      <trkpt lat="59.5940804" lon="17.5180086">
        <ele>41.6</ele>
        <time>2013-03-11T21:09:32Z</time>
      </trkpt>
      <trkpt lat="59.5940097" lon="17.5180542">
        <ele>42.2</ele>
        <time>2013-03-11T21:09:34Z</time>
      </trkpt>
      <trkpt lat="59.5939427" lon="17.5180865">
        <ele>41.6</ele>
        <time>2013-03-11T21:09:36Z</time>
      </trkpt>
      <trkpt lat="59.5938745" lon="17.518145">
        <ele>42</ele>
        <time>2013-03-11T21:09:38Z</time>
      </trkpt>
      <trkpt lat="59.5938413" lon="17.5181704">
        <ele>41.8</ele>
        <time>2013-03-11T21:09:39Z</time>
      </trkpt>
      <trkpt lat="59.593634" lon="17.5182666">
        <ele>41.2</ele>
        <time>2013-03-11T21:09:44Z</time>
      </trkpt>
      <trkpt lat="59.5934708" lon="17.5184068">
        <ele>39.8</ele>
        <time>2013-03-11T21:09:48Z</time>
      </trkpt>
      <trkpt lat="59.5934423" lon="17.5184495">
        <ele>39.8</ele>
        <time>2013-03-11T21:09:49Z</time>
      </trkpt>
      <trkpt lat="59.593379" lon="17.5185592">
        <ele>40.2</ele>
        <time>2013-03-11T21:09:51Z</time>
      </trkpt>
      <trkpt lat="59.5932952" lon="17.5186751">
        <ele>40.4</ele>
        <time>2013-03-11T21:09:53Z</time>
      </trkpt>
      <trkpt lat="59.5932484" lon="17.5187135">
        <ele>40.4</ele>
        <time>2013-03-11T21:09:54Z</time>
      </trkpt>
      <trkpt lat="59.5931137" lon="17.5187712">
        <ele>40</ele>
        <time>2013-03-11T21:09:57Z</time>
      </trkpt>
      <trkpt lat="59.59292" lon="17.5186888">
        <ele>38.4</ele>
        <time>2013-03-11T21:10:01Z</time>
      </trkpt>
      <trkpt lat="59.5928104" lon="17.5184876">
        <ele>36.2</ele>
        <time>2013-03-11T21:10:04Z</time>
      </trkpt>
      <trkpt lat="59.5927668" lon="17.5184231">
        <ele>36.4</ele>
        <time>2013-03-11T21:10:05Z</time>
      </trkpt>
      <trkpt lat="59.5927254" lon="17.5183683">
        <ele>36.6</ele>
        <time>2013-03-11T21:10:06Z</time>
      </trkpt>
      <trkpt lat="59.5926218" lon="17.5181817">
        <ele>36.8</ele>
        <time>2013-03-11T21:10:09Z</time>
      </trkpt>
      <trkpt lat="59.5925406" lon="17.5177863">
        <ele>37.2</ele>
        <time>2013-03-11T21:10:14Z</time>
      </trkpt>
      <trkpt lat="59.5925872" lon="17.5173913">
        <ele>38.8</ele>
        <time>2013-03-11T21:10:19Z</time>
      </trkpt>
      <trkpt lat="59.5925978" lon="17.517315">
        <ele>39</ele>
        <time>2013-03-11T21:10:20Z</time>
      </trkpt>
      <trkpt lat="59.5926343" lon="17.5170372">
        <ele>39</ele>
        <time>2013-03-11T21:10:23Z</time>
      </trkpt>
      <trkpt lat="59.5926783" lon="17.5166155">
        <ele>37</ele>
        <time>2013-03-11T21:10:27Z</time>
      </trkpt>
      <trkpt lat="59.5927218" lon="17.5163827">
        <ele>37.8</ele>
        <time>2013-03-11T21:10:29Z</time>
      </trkpt>
      <trkpt lat="59.5927542" lon="17.5162738">
        <ele>38.2</ele>
        <time>2013-03-11T21:10:30Z</time>
      </trkpt>
      <trkpt lat="59.5928783" lon="17.5159661">
        <ele>40</ele>
        <time>2013-03-11T21:10:33Z</time>
      </trkpt>
      <trkpt lat="59.5929959" lon="17.5156124">
        <ele>41</ele>
        <time>2013-03-11T21:10:36Z</time>
      </trkpt>
      <trkpt lat="59.5931269" lon="17.5152465">
        <ele>41.4</ele>
        <time>2013-03-11T21:10:39Z</time>
      </trkpt>
      <trkpt lat="59.5932757" lon="17.5149063">
        <ele>42</ele>
        <time>2013-03-11T21:10:42Z</time>
      </trkpt>
      <trkpt lat="59.5933237" lon="17.5148041">
        <ele>41.8</ele>
        <time>2013-03-11T21:10:43Z</time>
      </trkpt>
      <trkpt lat="59.593433" lon="17.5146644">
        <ele>42.2</ele>
        <time>2013-03-11T21:10:45Z</time>
      </trkpt>
      <trkpt lat="59.5935439" lon="17.5145829">
        <ele>43.2</ele>
        <time>2013-03-11T21:10:47Z</time>
      </trkpt>
      <trkpt lat="59.5935988" lon="17.5145577">
        <ele>44</ele>
        <time>2013-03-11T21:10:48Z</time>
      </trkpt>
      <trkpt lat="59.5936563" lon="17.5145462">
        <ele>43</ele>
        <time>2013-03-11T21:10:49Z</time>
      </trkpt>
      <trkpt lat="59.5937547" lon="17.5145181">
        <ele>42.4</ele>
        <time>2013-03-11T21:10:51Z</time>
      </trkpt>
      <trkpt lat="59.5938428" lon="17.5145235">
        <ele>42</ele>
        <time>2013-03-11T21:10:53Z</time>
      </trkpt>
      <trkpt lat="59.5938758" lon="17.5145391">
        <ele>41.6</ele>
        <time>2013-03-11T21:10:54Z</time>
      </trkpt>
      <trkpt lat="59.594012" lon="17.5147681">
        <ele>41</ele>
        <time>2013-03-11T21:11:00Z</time>
      </trkpt>
      <trkpt lat="59.5941511" lon="17.5150385">
        <ele>44.2</ele>
        <time>2013-03-11T21:11:07Z</time>
      </trkpt>
      <trkpt lat="59.5943178" lon="17.5152388">
        <ele>46.6</ele>
        <time>2013-03-11T21:11:14Z</time>
      </trkpt>
      <trkpt lat="59.594495" lon="17.5154036">
        <ele>48.8</ele>
        <time>2013-03-11T21:11:21Z</time>
      </trkpt>
      <trkpt lat="59.5946857" lon="17.5155529">
        <ele>53</ele>
        <time>2013-03-11T21:11:28Z</time>
      </trkpt>
      <trkpt lat="59.5948822" lon="17.5156356">
        <ele>53.2</ele>
        <time>2013-03-11T21:11:33Z</time>
      </trkpt>
      <trkpt lat="59.5950599" lon="17.5156762">
        <ele>53.6</ele>
        <time>2013-03-11T21:11:38Z</time>
      </trkpt>
      <trkpt lat="59.5952559" lon="17.5156749">
        <ele>54.4</ele>
        <time>2013-03-11T21:11:43Z</time>
      </trkpt>
      <trkpt lat="59.5954221" lon="17.5155289">
        <ele>55.4</ele>
        <time>2013-03-11T21:11:48Z</time>
      </trkpt>
      <trkpt lat="59.5955725" lon="17.5152668">
        <ele>58.2</ele>
        <time>2013-03-11T21:11:54Z</time>
      </trkpt>
      <trkpt lat="59.5956734" lon="17.5148954">
        <ele>59.4</ele>
        <time>2013-03-11T21:12:00Z</time>
      </trkpt>
      <trkpt lat="59.5957278" lon="17.5145611">
        <ele>58.6</ele>
        <time>2013-03-11T21:12:04Z</time>
      </trkpt>
      <trkpt lat="59.5957661" lon="17.5143958">
        <ele>58.6</ele>
        <time>2013-03-11T21:12:06Z</time>
      </trkpt>
      <trkpt lat="59.5957786" lon="17.514204">
        <ele>57.8</ele>
        <time>2013-03-11T21:12:08Z</time>
      </trkpt>
      <trkpt lat="59.595783" lon="17.5138956">
        <ele>55</ele>
        <time>2013-03-11T21:12:11Z</time>
      </trkpt>
      <trkpt lat="59.5957801" lon="17.5137706">
        <ele>53.8</ele>
        <time>2013-03-11T21:12:12Z</time>
      </trkpt>
      <trkpt lat="59.5957832" lon="17.5133379">
        <ele>50.8</ele>
        <time>2013-03-11T21:12:15Z</time>
      </trkpt>
      <trkpt lat="59.5958996" lon="17.5129206">
        <ele>49</ele>
        <time>2013-03-11T21:12:18Z</time>
      </trkpt>
      <trkpt lat="59.5961136" lon="17.512737">
        <ele>47.6</ele>
        <time>2013-03-11T21:12:21Z</time>
      </trkpt>
      <trkpt lat="59.5961874" lon="17.5127094">
        <ele>46.8</ele>
        <time>2013-03-11T21:12:22Z</time>
      </trkpt>
      <trkpt lat="59.5963474" lon="17.5126518">
        <ele>46.8</ele>
        <time>2013-03-11T21:12:24Z</time>
      </trkpt>
      <trkpt lat="59.5965349" lon="17.5126168">
        <ele>46.2</ele>
        <time>2013-03-11T21:12:27Z</time>
      </trkpt>
      <trkpt lat="59.5967576" lon="17.5126021">
        <ele>47.6</ele>
        <time>2013-03-11T21:12:31Z</time>
      </trkpt>
      <trkpt lat="59.5969742" lon="17.5125514">
        <ele>48</ele>
        <time>2013-03-11T21:12:35Z</time>
      </trkpt>
      <trkpt lat="59.5971581" lon="17.5124322">
        <ele>47</ele>
        <time>2013-03-11T21:12:39Z</time>
      </trkpt>
      <trkpt lat="59.5972584" lon="17.5123971">
        <ele>46.2</ele>
        <time>2013-03-11T21:12:41Z</time>
      </trkpt>
      <trkpt lat="59.5973542" lon="17.5123749">
        <ele>46.6</ele>
        <time>2013-03-11T21:12:43Z</time>
      </trkpt>
      <trkpt lat="59.5974516" lon="17.5123648">
        <ele>47</ele>
        <time>2013-03-11T21:12:45Z</time>
      </trkpt>
      <trkpt lat="59.5975455" lon="17.5123217">
        <ele>46.6</ele>
        <time>2013-03-11T21:12:47Z</time>
      </trkpt>
      <trkpt lat="59.5977128" lon="17.5121817">
        <ele>45.8</ele>
        <time>2013-03-11T21:12:51Z</time>
      </trkpt>
      <trkpt lat="59.5977551" lon="17.5121524">
        <ele>46</ele>
        <time>2013-03-11T21:12:52Z</time>
      </trkpt>
      <trkpt lat="59.5979139" lon="17.5120096">
        <ele>45.6</ele>
        <time>2013-03-11T21:12:56Z</time>
      </trkpt>
      <trkpt lat="59.5979559" lon="17.5119614">
        <ele>45</ele>
        <time>2013-03-11T21:12:57Z</time>
      </trkpt>
      <trkpt lat="59.5980877" lon="17.5117811">
        <ele>44.2</ele>
        <time>2013-03-11T21:13:00Z</time>
      </trkpt>
      <trkpt lat="59.5982607" lon="17.5115043">
        <ele>43</ele>
        <time>2013-03-11T21:13:04Z</time>
      </trkpt>
      <trkpt lat="59.5983583" lon="17.5113682">
        <ele>42.6</ele>
        <time>2013-03-11T21:13:06Z</time>
      </trkpt>
      <trkpt lat="59.5984107" lon="17.5113059">
        <ele>42.6</ele>
        <time>2013-03-11T21:13:07Z</time>
      </trkpt>
      <trkpt lat="59.5984691" lon="17.5112546">
        <ele>42.6</ele>
        <time>2013-03-11T21:13:08Z</time>
      </trkpt>
      <trkpt lat="59.5985835" lon="17.5111819">
        <ele>43.2</ele>
        <time>2013-03-11T21:13:10Z</time>
      </trkpt>
      <trkpt lat="59.5987863" lon="17.5110431">
        <ele>44.6</ele>
        <time>2013-03-11T21:13:15Z</time>
      </trkpt>
      <trkpt lat="59.5989292" lon="17.5109731">
        <ele>43</ele>
        <time>2013-03-11T21:13:18Z</time>
      </trkpt>
      <trkpt lat="59.5989742" lon="17.510959">
        <ele>43</ele>
        <time>2013-03-11T21:13:19Z</time>
      </trkpt>
      <trkpt lat="59.5990729" lon="17.5109241">
        <ele>42.8</ele>
        <time>2013-03-11T21:13:21Z</time>
      </trkpt>
      <trkpt lat="59.5991877" lon="17.5109275">
        <ele>42.6</ele>
        <time>2013-03-11T21:13:23Z</time>
      </trkpt>
      <trkpt lat="59.599399" lon="17.5110751">
        <ele>42.6</ele>
        <time>2013-03-11T21:13:27Z</time>
      </trkpt>
      <trkpt lat="59.5994413" lon="17.5111362">
        <ele>42.8</ele>
        <time>2013-03-11T21:13:28Z</time>
      </trkpt>
      <trkpt lat="59.5995402" lon="17.5114168">
        <ele>42.8</ele>
        <time>2013-03-11T21:13:32Z</time>
      </trkpt>
      <trkpt lat="59.5995659" lon="17.5118068">
        <ele>43.6</ele>
        <time>2013-03-11T21:13:37Z</time>
      </trkpt>
      <trkpt lat="59.5995654" lon="17.5118842">
        <ele>44.2</ele>
        <time>2013-03-11T21:13:38Z</time>
      </trkpt>
      <trkpt lat="59.5995563" lon="17.5119627">
        <ele>44.4</ele>
        <time>2013-03-11T21:13:39Z</time>
      </trkpt>
      <trkpt lat="59.5994881" lon="17.5121795">
        <ele>42.8</ele>
        <time>2013-03-11T21:13:42Z</time>
      </trkpt>
      <trkpt lat="59.5993404" lon="17.5123995">
        <ele>41</ele>
        <time>2013-03-11T21:13:47Z</time>
      </trkpt>
      <trkpt lat="59.5991938" lon="17.5126224">
        <ele>39.8</ele>
        <time>2013-03-11T21:13:52Z</time>
      </trkpt>
      <trkpt lat="59.5991748" lon="17.5129822">
        <ele>41</ele>
        <time>2013-03-11T21:13:57Z</time>
      </trkpt>
      <trkpt lat="59.5991446" lon="17.5133304">
        <ele>40.8</ele>
        <time>2013-03-11T21:14:01Z</time>
      </trkpt>
      <trkpt lat="59.5990496" lon="17.513551">
        <ele>40</ele>
        <time>2013-03-11T21:14:05Z</time>
      </trkpt>
      <trkpt lat="59.5990093" lon="17.5136494">
        <ele>39.6</ele>
        <time>2013-03-11T21:14:07Z</time>
      </trkpt>
      <trkpt lat="59.5989251" lon="17.5137839">
        <ele>39</ele>
        <time>2013-03-11T21:14:10Z</time>
      </trkpt>
      <trkpt lat="59.5988431" lon="17.5138743">
        <ele>39.4</ele>
        <time>2013-03-11T21:14:13Z</time>
      </trkpt>
      <trkpt lat="59.598637" lon="17.5139133">
        <ele>41.6</ele>
        <time>2013-03-11T21:14:22Z</time>
      </trkpt>
      <trkpt lat="59.5984407" lon="17.5138687">
        <ele>42.6</ele>
        <time>2013-03-11T21:14:29Z</time>
      </trkpt>
      <trkpt lat="59.5982579" lon="17.5138795">
        <ele>44.6</ele>
        <time>2013-03-11T21:14:35Z</time>
      </trkpt>
      <trkpt lat="59.5980748" lon="17.5139574">
        <ele>45</ele>
        <time>2013-03-11T21:14:42Z</time>
      </trkpt>
      <trkpt lat="59.5978997" lon="17.5141432">
        <ele>46.8</ele>
        <time>2013-03-11T21:14:48Z</time>
      </trkpt>
      <trkpt lat="59.5977569" lon="17.5144199">
        <ele>47</ele>
        <time>2013-03-11T21:14:54Z</time>
      </trkpt>
      <trkpt lat="59.5975667" lon="17.5145944">
        <ele>48.2</ele>
        <time>2013-03-11T21:15:00Z</time>
      </trkpt>
      <trkpt lat="59.5973709" lon="17.5146742">
        <ele>48.8</ele>
        <time>2013-03-11T21:15:06Z</time>
      </trkpt>
      <trkpt lat="59.5971968" lon="17.5147403">
        <ele>49.8</ele>
        <time>2013-03-11T21:15:11Z</time>
      </trkpt>
      <trkpt lat="59.5969976" lon="17.5148395">
        <ele>49.2</ele>
        <time>2013-03-11T21:15:17Z</time>
      </trkpt>
      <trkpt lat="59.5968167" lon="17.5150182">
        <ele>49.6</ele>
        <time>2013-03-11T21:15:23Z</time>
      </trkpt>
      <trkpt lat="59.5966292" lon="17.5151726">
        <ele>51.2</ele>
        <time>2013-03-11T21:15:29Z</time>
      </trkpt>
      <trkpt lat="59.5964591" lon="17.5153041">
        <ele>51.6</ele>
        <time>2013-03-11T21:15:35Z</time>
      </trkpt>
      <trkpt lat="59.5962772" lon="17.5155026">
        <ele>51.4</ele>
        <time>2013-03-11T21:15:41Z</time>
      </trkpt>
      <trkpt lat="59.5961095" lon="17.5157277">
        <ele>51.8</ele>
        <time>2013-03-11T21:15:47Z</time>
      </trkpt>
      <trkpt lat="59.5959563" lon="17.5159062">
        <ele>52.4</ele>
        <time>2013-03-11T21:15:52Z</time>
      </trkpt>
      <trkpt lat="59.5958113" lon="17.5161934">
        <ele>53.6</ele>
        <time>2013-03-11T21:15:58Z</time>
      </trkpt>
      <trkpt lat="59.5957408" lon="17.5165925">
        <ele>55.2</ele>
        <time>2013-03-11T21:16:04Z</time>
      </trkpt>
      <trkpt lat="59.5956681" lon="17.5169622">
        <ele>55</ele>
        <time>2013-03-11T21:16:09Z</time>
      </trkpt>
      <trkpt lat="59.5955191" lon="17.5173162">
        <ele>54.4</ele>
        <time>2013-03-11T21:16:13Z</time>
      </trkpt>
      <trkpt lat="59.5953166" lon="17.5175454">
        <ele>55</ele>
        <time>2013-03-11T21:16:16Z</time>
      </trkpt>
      <trkpt lat="59.59515" lon="17.5176181">
        <ele>55</ele>
        <time>2013-03-11T21:16:18Z</time>
      </trkpt>
      <trkpt lat="59.5950683" lon="17.5176279">
        <ele>53.6</ele>
        <time>2013-03-11T21:16:19Z</time>
      </trkpt>
      <trkpt lat="59.5948317" lon="17.5177004">
        <ele>52.2</ele>
        <time>2013-03-11T21:16:22Z</time>
      </trkpt>
      <trkpt lat="59.5946075" lon="17.5177404">
        <ele>50.2</ele>
        <time>2013-03-11T21:16:25Z</time>
      </trkpt>
      <trkpt lat="59.59441" lon="17.517794">
        <ele>49.2</ele>
        <time>2013-03-11T21:16:28Z</time>
      </trkpt>
      <trkpt lat="59.5942996" lon="17.5178615">
        <ele>50.4</ele>
        <time>2013-03-11T21:16:30Z</time>
      </trkpt>
      <trkpt lat="59.5941996" lon="17.5179475">
        <ele>51</ele>
        <time>2013-03-11T21:16:32Z</time>
      </trkpt>
      <trkpt lat="59.5941033" lon="17.5180326">
        <ele>51</ele>
        <time>2013-03-11T21:16:34Z</time>
      </trkpt>
      <trkpt lat="59.5940049" lon="17.5180802">
        <ele>51</ele>
        <time>2013-03-11T21:16:36Z</time>
      </trkpt>
      <trkpt lat="59.5938739" lon="17.5181532">
        <ele>50.8</ele>
        <time>2013-03-11T21:16:39Z</time>
      </trkpt>
      <trkpt lat="59.5937977" lon="17.5181677">
        <ele>50.2</ele>
        <time>2013-03-11T21:16:41Z</time>
      </trkpt>
      <trkpt lat="59.5937163" lon="17.5182054">
        <ele>48.6</ele>
        <time>2013-03-11T21:16:43Z</time>
      </trkpt>
      <trkpt lat="59.5936271" lon="17.5182615">
        <ele>47.8</ele>
        <time>2013-03-11T21:16:45Z</time>
      </trkpt>
      <trkpt lat="59.5935796" lon="17.5182889">
        <ele>47.2</ele>
        <time>2013-03-11T21:16:46Z</time>
      </trkpt>
      <trkpt lat="59.5934394" lon="17.5184432">
        <ele>47</ele>
        <time>2013-03-11T21:16:49Z</time>
      </trkpt>
      <trkpt lat="59.593363" lon="17.5185596">
        <ele>46.2</ele>
        <time>2013-03-11T21:16:51Z</time>
      </trkpt>
      <trkpt lat="59.5932552" lon="17.5186888">
        <ele>45</ele>
        <time>2013-03-11T21:16:54Z</time>
      </trkpt>
      <trkpt lat="59.5932127" lon="17.5187177">
        <ele>45</ele>
        <time>2013-03-11T21:16:55Z</time>
      </trkpt>
      <trkpt lat="59.5930801" lon="17.5187732">
        <ele>43.8</ele>
        <time>2013-03-11T21:16:58Z</time>
      </trkpt>
      <trkpt lat="59.592942" lon="17.5187157">
        <ele>42</ele>
        <time>2013-03-11T21:17:01Z</time>
      </trkpt>
      <trkpt lat="59.5929012" lon="17.5186654">
        <ele>41.6</ele>
        <time>2013-03-11T21:17:02Z</time>
      </trkpt>
      <trkpt lat="59.5927401" lon="17.5183804">
        <ele>41.6</ele>
        <time>2013-03-11T21:17:06Z</time>
      </trkpt>
      <trkpt lat="59.5926978" lon="17.5183156">
        <ele>41.6</ele>
        <time>2013-03-11T21:17:07Z</time>
      </trkpt>
      <trkpt lat="59.5926229" lon="17.5182084">
        <ele>41.6</ele>
        <time>2013-03-11T21:17:09Z</time>
      </trkpt>
      <trkpt lat="59.5925924" lon="17.5181336">
        <ele>42</ele>
        <time>2013-03-11T21:17:10Z</time>
      </trkpt>
      <trkpt lat="59.5925519" lon="17.5179838">
        <ele>42.2</ele>
        <time>2013-03-11T21:17:12Z</time>
      </trkpt>
      <trkpt lat="59.5925416" lon="17.5177216">
        <ele>42.8</ele>
        <time>2013-03-11T21:17:15Z</time>
      </trkpt>
      <trkpt lat="59.5925659" lon="17.5173589">
        <ele>43.6</ele>
        <time>2013-03-11T21:17:19Z</time>
      </trkpt>
      <trkpt lat="59.5926011" lon="17.5169194">
        <ele>45</ele>
        <time>2013-03-11T21:17:24Z</time>
      </trkpt>
      <trkpt lat="59.592654" lon="17.5166965">
        <ele>45.8</ele>
        <time>2013-03-11T21:17:26Z</time>
      </trkpt>
      <trkpt lat="59.5926857" lon="17.5165778">
        <ele>46</ele>
        <time>2013-03-11T21:17:27Z</time>
      </trkpt>
      <trkpt lat="59.5928056" lon="17.516236">
        <ele>47.6</ele>
        <time>2013-03-11T21:17:30Z</time>
      </trkpt>
      <trkpt lat="59.5928533" lon="17.5161296">
        <ele>47.6</ele>
        <time>2013-03-11T21:17:31Z</time>
      </trkpt>
      <trkpt lat="59.592945" lon="17.5158977">
        <ele>47.6</ele>
        <time>2013-03-11T21:17:33Z</time>
      </trkpt>
      <trkpt lat="59.5930668" lon="17.515513">
        <ele>47.6</ele>
        <time>2013-03-11T21:17:36Z</time>
      </trkpt>
      <trkpt lat="59.5931951" lon="17.5151296">
        <ele>47</ele>
        <time>2013-03-11T21:17:39Z</time>
      </trkpt>
      <trkpt lat="59.5932788" lon="17.5148891">
        <ele>47.2</ele>
        <time>2013-03-11T21:17:41Z</time>
      </trkpt>
      <trkpt lat="59.5933213" lon="17.5147849">
        <ele>47.6</ele>
        <time>2013-03-11T21:17:42Z</time>
      </trkpt>
      <trkpt lat="59.5934893" lon="17.5146219">
        <ele>45.8</ele>
        <time>2013-03-11T21:17:45Z</time>
      </trkpt>
      <trkpt lat="59.5937059" lon="17.514525">
        <ele>44.6</ele>
        <time>2013-03-11T21:17:49Z</time>
      </trkpt>
      <trkpt lat="59.5938491" lon="17.5145358">
        <ele>44.2</ele>
        <time>2013-03-11T21:17:52Z</time>
      </trkpt>
      <trkpt lat="59.5938845" lon="17.5145749">
        <ele>44</ele>
        <time>2013-03-11T21:17:53Z</time>
      </trkpt>
      <trkpt lat="59.5939718" lon="17.5147016">
        <ele>43.2</ele>
        <time>2013-03-11T21:17:56Z</time>
      </trkpt>
      <trkpt lat="59.5940374" lon="17.514826">
        <ele>43</ele>
        <time>2013-03-11T21:17:59Z</time>
      </trkpt>
      <trkpt lat="59.5940842" lon="17.5148988">
        <ele>43.2</ele>
        <time>2013-03-11T21:18:01Z</time>
      </trkpt>
      <trkpt lat="59.5941764" lon="17.5150994">
        <ele>42.8</ele>
        <time>2013-03-11T21:18:07Z</time>
      </trkpt>
      <trkpt lat="59.5942464" lon="17.5152029">
        <ele>44.4</ele>
        <time>2013-03-11T21:18:11Z</time>
      </trkpt>
      <trkpt lat="59.5943266" lon="17.515284">
        <ele>45.4</ele>
        <time>2013-03-11T21:18:14Z</time>
      </trkpt>
      <trkpt lat="59.5945104" lon="17.515459">
        <ele>46.6</ele>
        <time>2013-03-11T21:18:21Z</time>
      </trkpt>
      <trkpt lat="59.5947084" lon="17.5155869">
        <ele>49.6</ele>
        <time>2013-03-11T21:18:27Z</time>
      </trkpt>
      <trkpt lat="59.5948964" lon="17.515661">
        <ele>51.2</ele>
        <time>2013-03-11T21:18:32Z</time>
      </trkpt>
      <trkpt lat="59.5950954" lon="17.5156863">
        <ele>52</ele>
        <time>2013-03-11T21:18:37Z</time>
      </trkpt>
      <trkpt lat="59.5953011" lon="17.5156574">
        <ele>53.8</ele>
        <time>2013-03-11T21:18:43Z</time>
      </trkpt>
      <trkpt lat="59.5954629" lon="17.5154156">
        <ele>57.6</ele>
        <time>2013-03-11T21:18:50Z</time>
      </trkpt>
      <trkpt lat="59.5955933" lon="17.5151084">
        <ele>58.6</ele>
        <time>2013-03-11T21:18:56Z</time>
      </trkpt>
      <trkpt lat="59.5956605" lon="17.5147214">
        <ele>57.8</ele>
        <time>2013-03-11T21:19:01Z</time>
      </trkpt>
      <trkpt lat="59.5957131" lon="17.5144107">
        <ele>56.8</ele>
        <time>2013-03-11T21:19:05Z</time>
      </trkpt>
      <trkpt lat="59.5957071" lon="17.5143264">
        <ele>55.6</ele>
        <time>2013-03-11T21:19:06Z</time>
      </trkpt>
      <trkpt lat="59.5957112" lon="17.5139656">
        <ele>53.4</ele>
        <time>2013-03-11T21:19:10Z</time>
      </trkpt>
      <trkpt lat="59.5957164" lon="17.5138517">
        <ele>52.6</ele>
        <time>2013-03-11T21:19:11Z</time>
      </trkpt>
      <trkpt lat="59.5957283" lon="17.513587">
        <ele>51.6</ele>
        <time>2013-03-11T21:19:13Z</time>
      </trkpt>
      <trkpt lat="59.5957538" lon="17.5132945">
        <ele>50.8</ele>
        <time>2013-03-11T21:19:15Z</time>
      </trkpt>
      <trkpt lat="59.595796" lon="17.5131428">
        <ele>48.2</ele>
        <time>2013-03-11T21:19:16Z</time>
      </trkpt>
      <trkpt lat="59.595964" lon="17.5128151">
        <ele>48.4</ele>
        <time>2013-03-11T21:19:19Z</time>
      </trkpt>
      <trkpt lat="59.5961379" lon="17.512718">
        <ele>47.6</ele>
        <time>2013-03-11T21:19:21Z</time>
      </trkpt>
      <trkpt lat="59.5963468" lon="17.5126075">
        <ele>47.8</ele>
        <time>2013-03-11T21:19:24Z</time>
      </trkpt>
      <trkpt lat="59.5965453" lon="17.5125812">
        <ele>47.4</ele>
        <time>2013-03-11T21:19:27Z</time>
      </trkpt>
      <trkpt lat="59.5967443" lon="17.5125697">
        <ele>48.4</ele>
        <time>2013-03-11T21:19:31Z</time>
      </trkpt>
      <trkpt lat="59.5968509" lon="17.512568">
        <ele>49.2</ele>
        <time>2013-03-11T21:19:33Z</time>
      </trkpt>
      <trkpt lat="59.5969528" lon="17.5125385">
        <ele>49</ele>
        <time>2013-03-11T21:19:35Z</time>
      </trkpt>
      <trkpt lat="59.5970511" lon="17.5125038">
        <ele>48.2</ele>
        <time>2013-03-11T21:19:37Z</time>
      </trkpt>
      <trkpt lat="59.597153" lon="17.5124665">
        <ele>47.6</ele>
        <time>2013-03-11T21:19:39Z</time>
      </trkpt>
      <trkpt lat="59.597199" lon="17.5124385">
        <ele>46.8</ele>
        <time>2013-03-11T21:19:40Z</time>
      </trkpt>
      <trkpt lat="59.5973227" lon="17.5123482">
        <ele>45.6</ele>
        <time>2013-03-11T21:19:43Z</time>
      </trkpt>
      <trkpt lat="59.5973715" lon="17.5123311">
        <ele>45.4</ele>
        <time>2013-03-11T21:19:44Z</time>
      </trkpt>
      <trkpt lat="59.5975456" lon="17.5122509">
        <ele>44.6</ele>
        <time>2013-03-11T21:19:48Z</time>
      </trkpt>
      <trkpt lat="59.5975921" lon="17.5122244">
        <ele>44.6</ele>
        <time>2013-03-11T21:19:49Z</time>
      </trkpt>
      <trkpt lat="59.5977755" lon="17.512096">
        <ele>44.6</ele>
        <time>2013-03-11T21:19:53Z</time>
      </trkpt>
      <trkpt lat="59.5979652" lon="17.511937">
        <ele>44.2</ele>
        <time>2013-03-11T21:19:57Z</time>
      </trkpt>
      <trkpt lat="59.5981133" lon="17.5117229">
        <ele>43.8</ele>
        <time>2013-03-11T21:20:00Z</time>
      </trkpt>
      <trkpt lat="59.5983095" lon="17.5114392">
        <ele>43.8</ele>
        <time>2013-03-11T21:20:04Z</time>
      </trkpt>
      <trkpt lat="59.598452" lon="17.5112412">
        <ele>43.6</ele>
        <time>2013-03-11T21:20:07Z</time>
      </trkpt>
      <trkpt lat="59.5985075" lon="17.5111897">
        <ele>43.6</ele>
        <time>2013-03-11T21:20:08Z</time>
      </trkpt>
      <trkpt lat="59.5987176" lon="17.5110704">
        <ele>43.4</ele>
        <time>2013-03-11T21:20:12Z</time>
      </trkpt>
      <trkpt lat="59.5988026" lon="17.5110175">
        <ele>42.8</ele>
        <time>2013-03-11T21:20:14Z</time>
      </trkpt>
      <trkpt lat="59.5989009" lon="17.5109592">
        <ele>41.8</ele>
        <time>2013-03-11T21:20:16Z</time>
      </trkpt>
      <trkpt lat="59.5990939" lon="17.5108879">
        <ele>41.2</ele>
        <time>2013-03-11T21:20:20Z</time>
      </trkpt>
      <trkpt lat="59.5992056" lon="17.5108823">
        <ele>40.4</ele>
        <time>2013-03-11T21:20:22Z</time>
      </trkpt>
      <trkpt lat="59.5993149" lon="17.5109409">
        <ele>39.8</ele>
        <time>2013-03-11T21:20:24Z</time>
      </trkpt>
      <trkpt lat="59.5994915" lon="17.5111803">
        <ele>39</ele>
        <time>2013-03-11T21:20:28Z</time>
      </trkpt>
      <trkpt lat="59.5995224" lon="17.5112511">
        <ele>38.6</ele>
        <time>2013-03-11T21:20:29Z</time>
      </trkpt>
      <trkpt lat="59.5995772" lon="17.5115739">
        <ele>37.8</ele>
        <time>2013-03-11T21:20:33Z</time>
      </trkpt>
      <trkpt lat="59.5995716" lon="17.5117234">
        <ele>37.4</ele>
        <time>2013-03-11T21:20:35Z</time>
      </trkpt>
      <trkpt lat="59.5995448" lon="17.5119459">
        <ele>37.8</ele>
        <time>2013-03-11T21:20:38Z</time>
      </trkpt>
      <trkpt lat="59.5994482" lon="17.5122203">
        <ele>37</ele>
        <time>2013-03-11T21:20:42Z</time>
      </trkpt>
      <trkpt lat="59.5993796" lon="17.5123339">
        <ele>37.2</ele>
        <time>2013-03-11T21:20:44Z</time>
      </trkpt>
      <trkpt lat="59.5992623" lon="17.5124082">
        <ele>37.2</ele>
        <time>2013-03-11T21:20:47Z</time>
      </trkpt>
      <trkpt lat="59.599232" lon="17.5124338">
        <ele>37.6</ele>
        <time>2013-03-11T21:20:48Z</time>
      </trkpt>
      <trkpt lat="59.5991773" lon="17.5126605">
        <ele>39.8</ele>
        <time>2013-03-11T21:20:52Z</time>
      </trkpt>
      <trkpt lat="59.5991693" lon="17.5127378">
        <ele>40.2</ele>
        <time>2013-03-11T21:20:53Z</time>
      </trkpt>
      <trkpt lat="59.5991726" lon="17.5131694">
        <ele>40.4</ele>
        <time>2013-03-11T21:20:58Z</time>
      </trkpt>
      <trkpt lat="59.5991454" lon="17.5133243">
        <ele>39</ele>
        <time>2013-03-11T21:21:00Z</time>
      </trkpt>
      <trkpt lat="59.5990665" lon="17.5135185">
        <ele>38.2</ele>
        <time>2013-03-11T21:21:03Z</time>
      </trkpt>
      <trkpt lat="59.5990421" lon="17.5135703">
        <ele>38</ele>
        <time>2013-03-11T21:21:04Z</time>
      </trkpt>
      <trkpt lat="59.598995" lon="17.5136786">
        <ele>39.2</ele>
        <time>2013-03-11T21:21:06Z</time>
      </trkpt>
      <trkpt lat="59.5989224" lon="17.5138086">
        <ele>39.6</ele>
        <time>2013-03-11T21:21:09Z</time>
      </trkpt>
      <trkpt lat="59.5987261" lon="17.513939">
        <ele>42.2</ele>
        <time>2013-03-11T21:21:17Z</time>
      </trkpt>
      <trkpt lat="59.5985406" lon="17.5139184">
        <ele>42.8</ele>
        <time>2013-03-11T21:21:24Z</time>
      </trkpt>
      <trkpt lat="59.5983405" lon="17.5139105">
        <ele>43.2</ele>
        <time>2013-03-11T21:21:30Z</time>
      </trkpt>
      <trkpt lat="59.5981386" lon="17.5139771">
        <ele>44.6</ele>
        <time>2013-03-11T21:21:37Z</time>
      </trkpt>
      <trkpt lat="59.5979523" lon="17.5141148">
        <ele>44.2</ele>
        <time>2013-03-11T21:21:43Z</time>
      </trkpt>
      <trkpt lat="59.5978158" lon="17.514349">
        <ele>45.6</ele>
        <time>2013-03-11T21:21:48Z</time>
      </trkpt>
      <trkpt lat="59.5976465" lon="17.5145354">
        <ele>46.6</ele>
        <time>2013-03-11T21:21:53Z</time>
      </trkpt>
      <trkpt lat="59.5974636" lon="17.5146598">
        <ele>47.8</ele>
        <time>2013-03-11T21:21:58Z</time>
      </trkpt>
      <trkpt lat="59.5972699" lon="17.5147198">
        <ele>47.6</ele>
        <time>2013-03-11T21:22:03Z</time>
      </trkpt>
      <trkpt lat="59.597071" lon="17.5147901">
        <ele>47.2</ele>
        <time>2013-03-11T21:22:09Z</time>
      </trkpt>
      <trkpt lat="59.596895" lon="17.5149389">
        <ele>47.6</ele>
        <time>2013-03-11T21:22:15Z</time>
      </trkpt>
      <trkpt lat="59.596711" lon="17.5151528">
        <ele>47.8</ele>
        <time>2013-03-11T21:22:21Z</time>
      </trkpt>
      <trkpt lat="59.5965209" lon="17.5153222">
        <ele>49</ele>
        <time>2013-03-11T21:22:28Z</time>
      </trkpt>
      <trkpt lat="59.5963323" lon="17.5154868">
        <ele>50.6</ele>
        <time>2013-03-11T21:22:34Z</time>
      </trkpt>
      <trkpt lat="59.5961612" lon="17.5157064">
        <ele>51.2</ele>
        <time>2013-03-11T21:22:40Z</time>
      </trkpt>
      <trkpt lat="59.5959856" lon="17.5159165">
        <ele>51.4</ele>
        <time>2013-03-11T21:22:46Z</time>
      </trkpt>
      <trkpt lat="59.5958468" lon="17.5161795">
        <ele>53</ele>
        <time>2013-03-11T21:22:52Z</time>
      </trkpt>
      <trkpt lat="59.595776" lon="17.516513">
        <ele>50.8</ele>
        <time>2013-03-11T21:22:58Z</time>
      </trkpt>
      <trkpt lat="59.5957241" lon="17.5168638">
        <ele>50.2</ele>
        <time>2013-03-11T21:23:03Z</time>
      </trkpt>
      <trkpt lat="59.5956274" lon="17.5171998">
        <ele>50.8</ele>
        <time>2013-03-11T21:23:07Z</time>
      </trkpt>
      <trkpt lat="59.5955868" lon="17.517284">
        <ele>50</ele>
        <time>2013-03-11T21:23:08Z</time>
      </trkpt>
      <trkpt lat="59.5954579" lon="17.517449">
        <ele>49.8</ele>
        <time>2013-03-11T21:23:10Z</time>
      </trkpt>
      <trkpt lat="59.5952089" lon="17.5175626">
        <ele>48.2</ele>
        <time>2013-03-11T21:23:13Z</time>
      </trkpt>
      <trkpt lat="59.5951259" lon="17.5175712">
        <ele>47</ele>
        <time>2013-03-11T21:23:14Z</time>
      </trkpt>
      <trkpt lat="59.5949654" lon="17.5176062">
        <ele>45.4</ele>
        <time>2013-03-11T21:23:16Z</time>
      </trkpt>
      <trkpt lat="59.5947405" lon="17.5176844">
        <ele>44.6</ele>
        <time>2013-03-11T21:23:19Z</time>
      </trkpt>
      <trkpt lat="59.5945317" lon="17.5177497">
        <ele>44.2</ele>
        <time>2013-03-11T21:23:22Z</time>
      </trkpt>
      <trkpt lat="59.5943038" lon="17.5178456">
        <ele>45.2</ele>
        <time>2013-03-11T21:23:26Z</time>
      </trkpt>
      <trkpt lat="59.5941524" lon="17.5179831">
        <ele>45.6</ele>
        <time>2013-03-11T21:23:29Z</time>
      </trkpt>
      <trkpt lat="59.5941075" lon="17.5180101">
        <ele>45.8</ele>
        <time>2013-03-11T21:23:30Z</time>
      </trkpt>
      <trkpt lat="59.5938977" lon="17.5181344">
        <ele>44.4</ele>
        <time>2013-03-11T21:23:35Z</time>
      </trkpt>
      <trkpt lat="59.5937914" lon="17.518196">
        <ele>44</ele>
        <time>2013-03-11T21:23:38Z</time>
      </trkpt>
      <trkpt lat="59.5937514" lon="17.5182211">
        <ele>43.6</ele>
        <time>2013-03-11T21:23:39Z</time>
      </trkpt>
      <trkpt lat="59.593704" lon="17.5182375">
        <ele>42.8</ele>
        <time>2013-03-11T21:23:40Z</time>
      </trkpt>
      <trkpt lat="59.5935232" lon="17.5183626">
        <ele>41.6</ele>
        <time>2013-03-11T21:23:44Z</time>
      </trkpt>
      <trkpt lat="59.5933833" lon="17.5185075">
        <ele>42</ele>
        <time>2013-03-11T21:23:47Z</time>
      </trkpt>
      <trkpt lat="59.5933439" lon="17.518561">
        <ele>41.6</ele>
        <time>2013-03-11T21:23:48Z</time>
      </trkpt>
      <trkpt lat="59.5931638" lon="17.5187121">
        <ele>40.4</ele>
        <time>2013-03-11T21:23:52Z</time>
      </trkpt>
      <trkpt lat="59.5930678" lon="17.5187306">
        <ele>40.6</ele>
        <time>2013-03-11T21:23:54Z</time>
      </trkpt>
      <trkpt lat="59.5930223" lon="17.5187297">
        <ele>40.2</ele>
        <time>2013-03-11T21:23:55Z</time>
      </trkpt>
      <trkpt lat="59.5929416" lon="17.5186881">
        <ele>40.2</ele>
        <time>2013-03-11T21:23:57Z</time>
      </trkpt>
      <trkpt lat="59.5928424" lon="17.5185307">
        <ele>39.6</ele>
        <time>2013-03-11T21:24:00Z</time>
      </trkpt>
      <trkpt lat="59.5928114" lon="17.5184607">
        <ele>39.6</ele>
        <time>2013-03-11T21:24:01Z</time>
      </trkpt>
      <trkpt lat="59.5926525" lon="17.5181893">
        <ele>39.6</ele>
        <time>2013-03-11T21:24:05Z</time>
      </trkpt>
      <trkpt lat="59.592624" lon="17.518119">
        <ele>39.2</ele>
        <time>2013-03-11T21:24:06Z</time>
      </trkpt>
      <trkpt lat="59.5925576" lon="17.5178718">
        <ele>39.2</ele>
        <time>2013-03-11T21:24:09Z</time>
      </trkpt>
      <trkpt lat="59.5925488" lon="17.517623">
        <ele>39.2</ele>
        <time>2013-03-11T21:24:12Z</time>
      </trkpt>
      <trkpt lat="59.5925531" lon="17.5175558">
        <ele>38.8</ele>
        <time>2013-03-11T21:24:13Z</time>
      </trkpt>
      <trkpt lat="59.5925593" lon="17.5174788">
        <ele>39.4</ele>
        <time>2013-03-11T21:24:14Z</time>
      </trkpt>
      <trkpt lat="59.5926125" lon="17.5170457">
        <ele>41</ele>
        <time>2013-03-11T21:24:19Z</time>
      </trkpt>
      <trkpt lat="59.5926332" lon="17.5168468">
        <ele>41</ele>
        <time>2013-03-11T21:24:21Z</time>
      </trkpt>
      <trkpt lat="59.5926668" lon="17.5166178">
        <ele>41.4</ele>
        <time>2013-03-11T21:24:23Z</time>
      </trkpt>
      <trkpt lat="59.5927616" lon="17.5162872">
        <ele>41</ele>
        <time>2013-03-11T21:24:26Z</time>
      </trkpt>
      <trkpt lat="59.5928004" lon="17.5161823">
        <ele>41.2</ele>
        <time>2013-03-11T21:24:27Z</time>
      </trkpt>
      <trkpt lat="59.5928855" lon="17.515969">
        <ele>41.2</ele>
        <time>2013-03-11T21:24:29Z</time>
      </trkpt>
      <trkpt lat="59.5930013" lon="17.5156016">
        <ele>40.6</ele>
        <time>2013-03-11T21:24:32Z</time>
      </trkpt>
      <trkpt lat="59.5931277" lon="17.5152218">
        <ele>39.6</ele>
        <time>2013-03-11T21:24:35Z</time>
      </trkpt>
      <trkpt lat="59.593258" lon="17.5148658">
        <ele>39.2</ele>
        <time>2013-03-11T21:24:38Z</time>
      </trkpt>
      <trkpt lat="59.5933025" lon="17.514761">
        <ele>39.4</ele>
        <time>2013-03-11T21:24:39Z</time>
      </trkpt>
      <trkpt lat="59.5934013" lon="17.5146147">
        <ele>40.2</ele>
        <time>2013-03-11T21:24:41Z</time>
      </trkpt>
      <trkpt lat="59.593576" lon="17.5145198">
        <ele>39.2</ele>
        <time>2013-03-11T21:24:44Z</time>
      </trkpt>
      <trkpt lat="59.5937875" lon="17.5144976">
        <ele>39.8</ele>
        <time>2013-03-11T21:24:48Z</time>
      </trkpt>
      <trkpt lat="59.5938336" lon="17.5145041">
        <ele>39.2</ele>
        <time>2013-03-11T21:24:49Z</time>
      </trkpt>
      <trkpt lat="59.59398" lon="17.5146776">
        <ele>36.8</ele>
        <time>2013-03-11T21:24:54Z</time>
      </trkpt>
      <trkpt lat="59.5940011" lon="17.5147408">
        <ele>36.6</ele>
        <time>2013-03-11T21:24:55Z</time>
      </trkpt>
      <trkpt lat="59.5941168" lon="17.5150078">
        <ele>37.8</ele>
        <time>2013-03-11T21:25:01Z</time>
      </trkpt>
      <trkpt lat="59.5942758" lon="17.5152229">
        <ele>39.8</ele>
        <time>2013-03-11T21:25:08Z</time>
      </trkpt>
      <trkpt lat="59.5944727" lon="17.5153514">
        <ele>40.2</ele>
        <time>2013-03-11T21:25:15Z</time>
      </trkpt>
      <trkpt lat="59.5946434" lon="17.5154801">
        <ele>40.4</ele>
        <time>2013-03-11T21:25:22Z</time>
      </trkpt>
      <trkpt lat="59.5948344" lon="17.5155968">
        <ele>40.2</ele>
        <time>2013-03-11T21:25:28Z</time>
      </trkpt>
      <trkpt lat="59.5950367" lon="17.5156642">
        <ele>42.2</ele>
        <time>2013-03-11T21:25:34Z</time>
      </trkpt>
      <trkpt lat="59.5952479" lon="17.5156587">
        <ele>44.6</ele>
        <time>2013-03-11T21:25:40Z</time>
      </trkpt>
      <trkpt lat="59.5954117" lon="17.5154811">
        <ele>48.4</ele>
        <time>2013-03-11T21:25:46Z</time>
      </trkpt>
      <trkpt lat="59.5955154" lon="17.5151932">
        <ele>50.4</ele>
        <time>2013-03-11T21:25:52Z</time>
      </trkpt>
      <trkpt lat="59.5956098" lon="17.5148976">
        <ele>52.6</ele>
        <time>2013-03-11T21:25:57Z</time>
      </trkpt>
      <trkpt lat="59.5956843" lon="17.5145191">
        <ele>53.8</ele>
        <time>2013-03-11T21:26:02Z</time>
      </trkpt>
      <trkpt lat="59.5957136" lon="17.5140842">
        <ele>52.6</ele>
        <time>2013-03-11T21:26:07Z</time>
      </trkpt>
      <trkpt lat="59.5957289" lon="17.5136667">
        <ele>49.8</ele>
        <time>2013-03-11T21:26:11Z</time>
      </trkpt>
      <trkpt lat="59.5957544" lon="17.5132373">
        <ele>48.4</ele>
        <time>2013-03-11T21:26:14Z</time>
      </trkpt>
      <trkpt lat="59.5958896" lon="17.5128374">
        <ele>46.4</ele>
        <time>2013-03-11T21:26:17Z</time>
      </trkpt>
      <trkpt lat="59.5961055" lon="17.5126717">
        <ele>44.6</ele>
        <time>2013-03-11T21:26:20Z</time>
      </trkpt>
      <trkpt lat="59.5963329" lon="17.5125892">
        <ele>43.8</ele>
        <time>2013-03-11T21:26:23Z</time>
      </trkpt>
      <trkpt lat="59.5965298" lon="17.5125691">
        <ele>43.2</ele>
        <time>2013-03-11T21:26:26Z</time>
      </trkpt>
      <trkpt lat="59.5967592" lon="17.5125726">
        <ele>44.8</ele>
        <time>2013-03-11T21:26:30Z</time>
      </trkpt>
      <trkpt lat="59.5968566" lon="17.5125582">
        <ele>44.6</ele>
        <time>2013-03-11T21:26:32Z</time>
      </trkpt>
      <trkpt lat="59.5969626" lon="17.512525">
        <ele>44.4</ele>
        <time>2013-03-11T21:26:34Z</time>
      </trkpt>
      <trkpt lat="59.5970187" lon="17.5125005">
        <ele>44.2</ele>
        <time>2013-03-11T21:26:35Z</time>
      </trkpt>
      <trkpt lat="59.597156" lon="17.5124245">
        <ele>42.4</ele>
        <time>2013-03-11T21:26:38Z</time>
      </trkpt>
      <trkpt lat="59.5972793" lon="17.5123487">
        <ele>41.4</ele>
        <time>2013-03-11T21:26:41Z</time>
      </trkpt>
      <trkpt lat="59.5973668" lon="17.5123015">
        <ele>41</ele>
        <time>2013-03-11T21:26:43Z</time>
      </trkpt>
      <trkpt lat="59.5974574" lon="17.5122815">
        <ele>40.6</ele>
        <time>2013-03-11T21:26:45Z</time>
      </trkpt>
      <trkpt lat="59.5975522" lon="17.5122675">
        <ele>38.8</ele>
        <time>2013-03-11T21:26:47Z</time>
      </trkpt>
      <trkpt lat="59.5976429" lon="17.5122129">
        <ele>37.4</ele>
        <time>2013-03-11T21:26:49Z</time>
      </trkpt>
      <trkpt lat="59.5977298" lon="17.5121472">
        <ele>37.2</ele>
        <time>2013-03-11T21:26:51Z</time>
      </trkpt>
      <trkpt lat="59.5979175" lon="17.5119966">
        <ele>38.4</ele>
        <time>2013-03-11T21:26:55Z</time>
      </trkpt>
      <trkpt lat="59.5980086" lon="17.5118819">
        <ele>37.6</ele>
        <time>2013-03-11T21:26:57Z</time>
      </trkpt>
      <trkpt lat="59.5981004" lon="17.5117445">
        <ele>37</ele>
        <time>2013-03-11T21:26:59Z</time>
      </trkpt>
      <trkpt lat="59.5981852" lon="17.5116144">
        <ele>36</ele>
        <time>2013-03-11T21:27:01Z</time>
      </trkpt>
      <trkpt lat="59.5982714" lon="17.5114698">
        <ele>36</ele>
        <time>2013-03-11T21:27:03Z</time>
      </trkpt>
      <trkpt lat="59.5984241" lon="17.5112776">
        <ele>37</ele>
        <time>2013-03-11T21:27:06Z</time>
      </trkpt>
      <trkpt lat="59.5985412" lon="17.5111736">
        <ele>36.8</ele>
        <time>2013-03-11T21:27:08Z</time>
      </trkpt>
      <trkpt lat="59.5985975" lon="17.5111339">
        <ele>37.2</ele>
        <time>2013-03-11T21:27:09Z</time>
      </trkpt>
      <trkpt lat="59.5987994" lon="17.5110305">
        <ele>37.8</ele>
        <time>2013-03-11T21:27:13Z</time>
      </trkpt>
      <trkpt lat="59.5989971" lon="17.5109205">
        <ele>37.4</ele>
        <time>2013-03-11T21:27:17Z</time>
      </trkpt>
      <trkpt lat="59.5990473" lon="17.5109004">
        <ele>37.6</ele>
        <time>2013-03-11T21:27:18Z</time>
      </trkpt>
      <trkpt lat="59.5991969" lon="17.5108477">
        <ele>36.6</ele>
        <time>2013-03-11T21:27:21Z</time>
      </trkpt>
      <trkpt lat="59.599241" lon="17.5108446">
        <ele>37.4</ele>
        <time>2013-03-11T21:27:22Z</time>
      </trkpt>
      <trkpt lat="59.59937" lon="17.5109471">
        <ele>36.4</ele>
        <time>2013-03-11T21:27:25Z</time>
      </trkpt>
      <trkpt lat="59.599403" lon="17.5110098">
        <ele>35.8</ele>
        <time>2013-03-11T21:27:26Z</time>
      </trkpt>
      <trkpt lat="59.5994689" lon="17.5111294">
        <ele>35.4</ele>
        <time>2013-03-11T21:27:28Z</time>
      </trkpt>
      <trkpt lat="59.5994944" lon="17.511206">
        <ele>35</ele>
        <time>2013-03-11T21:27:29Z</time>
      </trkpt>
      <trkpt lat="59.5995426" lon="17.5114392">
        <ele>33.6</ele>
        <time>2013-03-11T21:27:32Z</time>
      </trkpt>
      <trkpt lat="59.5995646" lon="17.5115838">
        <ele>33.4</ele>
        <time>2013-03-11T21:27:34Z</time>
      </trkpt>
      <trkpt lat="59.5995659" lon="17.5119489">
        <ele>30.6</ele>
        <time>2013-03-11T21:27:39Z</time>
      </trkpt>
      <trkpt lat="59.5995471" lon="17.5120246">
        <ele>29.6</ele>
        <time>2013-03-11T21:27:40Z</time>
      </trkpt>
      <trkpt lat="59.5994896" lon="17.5121433">
        <ele>27</ele>
        <time>2013-03-11T21:27:42Z</time>
      </trkpt>
      <trkpt lat="59.5994196" lon="17.5122236">
        <ele>25.6</ele>
        <time>2013-03-11T21:27:44Z</time>
      </trkpt>
      <trkpt lat="59.5992964" lon="17.5123536">
        <ele>22.2</ele>
        <time>2013-03-11T21:27:48Z</time>
      </trkpt>
      <trkpt lat="59.5992679" lon="17.5124">
        <ele>21.8</ele>
        <time>2013-03-11T21:27:49Z</time>
      </trkpt>
      <trkpt lat="59.5992209" lon="17.5127475">
        <ele>23.8</ele>
        <time>2013-03-11T21:27:54Z</time>
      </trkpt>
      <trkpt lat="59.5992323" lon="17.5131798">
        <ele>26.6</ele>
        <time>2013-03-11T21:27:59Z</time>
      </trkpt>
      <trkpt lat="59.5992159" lon="17.5132605">
        <ele>27</ele>
        <time>2013-03-11T21:28:00Z</time>
      </trkpt>
      <trkpt lat="59.5991125" lon="17.5134766">
        <ele>26.8</ele>
        <time>2013-03-11T21:28:04Z</time>
      </trkpt>
      <trkpt lat="59.5989825" lon="17.513723">
        <ele>29.4</ele>
        <time>2013-03-11T21:28:09Z</time>
      </trkpt>
      <trkpt lat="59.5988094" lon="17.5138847">
        <ele>32.6</ele>
        <time>2013-03-11T21:28:15Z</time>
      </trkpt>
      <trkpt lat="59.5986106" lon="17.5138926">
        <ele>35.8</ele>
        <time>2013-03-11T21:28:22Z</time>
      </trkpt>
      <trkpt lat="59.5984265" lon="17.5138602">
        <ele>38.6</ele>
        <time>2013-03-11T21:28:28Z</time>
      </trkpt>
      <trkpt lat="59.5982306" lon="17.5138908">
        <ele>40.4</ele>
        <time>2013-03-11T21:28:34Z</time>
      </trkpt>
      <trkpt lat="59.5980381" lon="17.5139791">
        <ele>42.2</ele>
        <time>2013-03-11T21:28:41Z</time>
      </trkpt>
      <trkpt lat="59.5978724" lon="17.5142014">
        <ele>44.2</ele>
        <time>2013-03-11T21:28:47Z</time>
      </trkpt>
      <trkpt lat="59.5977304" lon="17.5144759">
        <ele>46.4</ele>
        <time>2013-03-11T21:28:53Z</time>
      </trkpt>
      <trkpt lat="59.5975436" lon="17.5146113">
        <ele>46.8</ele>
        <time>2013-03-11T21:28:59Z</time>
      </trkpt>
      <trkpt lat="59.5973388" lon="17.5146719">
        <ele>48.2</ele>
        <time>2013-03-11T21:29:05Z</time>
      </trkpt>
      <trkpt lat="59.5971442" lon="17.514766">
        <ele>47.8</ele>
        <time>2013-03-11T21:29:11Z</time>
      </trkpt>
      <trkpt lat="59.5969694" lon="17.5148501">
        <ele>47</ele>
        <time>2013-03-11T21:29:16Z</time>
      </trkpt>
      <trkpt lat="59.5967789" lon="17.5150301">
        <ele>47.6</ele>
        <time>2013-03-11T21:29:22Z</time>
      </trkpt>
      <trkpt lat="59.5965861" lon="17.5151985">
        <ele>49</ele>
        <time>2013-03-11T21:29:29Z</time>
      </trkpt>
      <trkpt lat="59.5964203" lon="17.5153826">
        <ele>49.2</ele>
        <time>2013-03-11T21:29:35Z</time>
      </trkpt>
      <trkpt lat="59.5962568" lon="17.5155573">
        <ele>49.8</ele>
        <time>2013-03-11T21:29:41Z</time>
      </trkpt>
      <trkpt lat="59.5960987" lon="17.5157554">
        <ele>52.4</ele>
        <time>2013-03-11T21:29:47Z</time>
      </trkpt>
      <trkpt lat="59.5959515" lon="17.5159496">
        <ele>53.8</ele>
        <time>2013-03-11T21:29:52Z</time>
      </trkpt>
      <trkpt lat="59.5958292" lon="17.5162364">
        <ele>52.2</ele>
        <time>2013-03-11T21:29:58Z</time>
      </trkpt>
      <trkpt lat="59.5957734" lon="17.5165753">
        <ele>53.8</ele>
        <time>2013-03-11T21:30:03Z</time>
      </trkpt>
      <trkpt lat="59.5956951" lon="17.5169284">
        <ele>54.8</ele>
        <time>2013-03-11T21:30:08Z</time>
      </trkpt>
      <trkpt lat="59.5955748" lon="17.5172855">
        <ele>54.8</ele>
        <time>2013-03-11T21:30:12Z</time>
      </trkpt>
      <trkpt lat="59.5953656" lon="17.5175161">
        <ele>53.6</ele>
        <time>2013-03-11T21:30:15Z</time>
      </trkpt>
      <trkpt lat="59.5951177" lon="17.5175788">
        <ele>51.2</ele>
        <time>2013-03-11T21:30:18Z</time>
      </trkpt>
      <trkpt lat="59.5948827" lon="17.5176295">
        <ele>49</ele>
        <time>2013-03-11T21:30:21Z</time>
      </trkpt>
      <trkpt lat="59.5946627" lon="17.5176792">
        <ele>47.8</ele>
        <time>2013-03-11T21:30:24Z</time>
      </trkpt>
      <trkpt lat="59.5944643" lon="17.5177476">
        <ele>47.6</ele>
        <time>2013-03-11T21:30:27Z</time>
      </trkpt>
      <trkpt lat="59.5944046" lon="17.5177767">
        <ele>46.8</ele>
        <time>2013-03-11T21:30:28Z</time>
      </trkpt>
      <trkpt lat="59.5942971" lon="17.5178505">
        <ele>45.8</ele>
        <time>2013-03-11T21:30:30Z</time>
      </trkpt>
      <trkpt lat="59.5942442" lon="17.5178955">
        <ele>44.8</ele>
        <time>2013-03-11T21:30:31Z</time>
      </trkpt>
      <trkpt lat="59.5940914" lon="17.5180009">
        <ele>43.6</ele>
        <time>2013-03-11T21:30:34Z</time>
      </trkpt>
      <trkpt lat="59.5940453" lon="17.518023">
        <ele>43.2</ele>
        <time>2013-03-11T21:30:35Z</time>
      </trkpt>
      <trkpt lat="59.5938677" lon="17.5181065">
        <ele>41.8</ele>
        <time>2013-03-11T21:30:39Z</time>
      </trkpt>
      <trkpt lat="59.5937413" lon="17.5181816">
        <ele>40.2</ele>
        <time>2013-03-11T21:30:42Z</time>
      </trkpt>
      <trkpt lat="59.5936532" lon="17.5182242">
        <ele>39.4</ele>
        <time>2013-03-11T21:30:44Z</time>
      </trkpt>
      <trkpt lat="59.5935311" lon="17.5183096">
        <ele>38</ele>
        <time>2013-03-11T21:30:47Z</time>
      </trkpt>
      <trkpt lat="59.5934906" lon="17.5183474">
        <ele>37.2</ele>
        <time>2013-03-11T21:30:48Z</time>
      </trkpt>
      <trkpt lat="59.5934534" lon="17.518397">
        <ele>36.4</ele>
        <time>2013-03-11T21:30:49Z</time>
      </trkpt>
      <trkpt lat="59.593331" lon="17.5185869">
        <ele>34.4</ele>
        <time>2013-03-11T21:30:53Z</time>
      </trkpt>
      <trkpt lat="59.5932927" lon="17.5186391">
        <ele>33.8</ele>
        <time>2013-03-11T21:30:54Z</time>
      </trkpt>
      <trkpt lat="59.5931246" lon="17.5187219">
        <ele>32.4</ele>
        <time>2013-03-11T21:30:58Z</time>
      </trkpt>
      <trkpt lat="59.5930827" lon="17.5187188">
        <ele>31.8</ele>
        <time>2013-03-11T21:30:59Z</time>
      </trkpt>
      <trkpt lat="59.593002" lon="17.5186936">
        <ele>31.2</ele>
        <time>2013-03-11T21:31:01Z</time>
      </trkpt>
      <trkpt lat="59.5928898" lon="17.5185379">
        <ele>31.6</ele>
        <time>2013-03-11T21:31:04Z</time>
      </trkpt>
      <trkpt lat="59.5927454" lon="17.5182759">
        <ele>33.2</ele>
        <time>2013-03-11T21:31:08Z</time>
      </trkpt>
      <trkpt lat="59.5925939" lon="17.5179914">
        <ele>35.6</ele>
        <time>2013-03-11T21:31:13Z</time>
      </trkpt>
      <trkpt lat="59.5925714" lon="17.5178862">
        <ele>37.2</ele>
        <time>2013-03-11T21:31:15Z</time>
      </trkpt>
      <trkpt lat="59.5925642" lon="17.5178484">
        <ele>38</ele>
        <time>2013-03-11T21:31:16Z</time>
      </trkpt>
      <trkpt lat="59.5925789" lon="17.5175678">
        <ele>51.4</ele>
        <time>2013-03-11T21:38:49Z</time>
      </trkpt>
      <trkpt lat="59.5926208" lon="17.5172177">
        <ele>49.8</ele>
        <time>2013-03-11T21:38:53Z</time>
      </trkpt>
      <trkpt lat="59.5926439" lon="17.5168705">
        <ele>48.2</ele>
        <time>2013-03-11T21:38:56Z</time>
      </trkpt>
      <trkpt lat="59.5926581" lon="17.5167352">
        <ele>48</ele>
        <time>2013-03-11T21:38:57Z</time>
      </trkpt>
      <trkpt lat="59.592712" lon="17.5164796">
        <ele>47</ele>
        <time>2013-03-11T21:38:59Z</time>
      </trkpt>
      <trkpt lat="59.5928425" lon="17.5161359">
        <ele>46.4</ele>
        <time>2013-03-11T21:39:02Z</time>
      </trkpt>
      <trkpt lat="59.5928855" lon="17.5160212">
        <ele>46</ele>
        <time>2013-03-11T21:39:03Z</time>
      </trkpt>
      <trkpt lat="59.5929632" lon="17.515762">
        <ele>46</ele>
        <time>2013-03-11T21:39:05Z</time>
      </trkpt>
      <trkpt lat="59.5930938" lon="17.5153647">
        <ele>45</ele>
        <time>2013-03-11T21:39:08Z</time>
      </trkpt>
      <trkpt lat="59.5932305" lon="17.5149747">
        <ele>45</ele>
        <time>2013-03-11T21:39:11Z</time>
      </trkpt>
      <trkpt lat="59.5932809" lon="17.5148631">
        <ele>45</ele>
        <time>2013-03-11T21:39:12Z</time>
      </trkpt>
      <trkpt lat="59.5933947" lon="17.5146992">
        <ele>46</ele>
        <time>2013-03-11T21:39:14Z</time>
      </trkpt>
      <trkpt lat="59.5935618" lon="17.5145621">
        <ele>45.6</ele>
        <time>2013-03-11T21:39:17Z</time>
      </trkpt>
      <trkpt lat="59.5936188" lon="17.5145338">
        <ele>45.4</ele>
        <time>2013-03-11T21:39:18Z</time>
      </trkpt>
      <trkpt lat="59.5937735" lon="17.5145012">
        <ele>43.8</ele>
        <time>2013-03-11T21:39:21Z</time>
      </trkpt>
      <trkpt lat="59.5938222" lon="17.5145161">
        <ele>43.8</ele>
        <time>2013-03-11T21:39:22Z</time>
      </trkpt>
      <trkpt lat="59.5939371" lon="17.514616">
        <ele>42</ele>
        <time>2013-03-11T21:39:25Z</time>
      </trkpt>
      <trkpt lat="59.5939883" lon="17.514715">
        <ele>41.4</ele>
        <time>2013-03-11T21:39:27Z</time>
      </trkpt>
      <trkpt lat="59.5940277" lon="17.5148266">
        <ele>40.2</ele>
        <time>2013-03-11T21:39:29Z</time>
      </trkpt>
      <trkpt lat="59.594107" lon="17.5150169">
        <ele>40.8</ele>
        <time>2013-03-11T21:39:33Z</time>
      </trkpt>
      <trkpt lat="59.5942846" lon="17.5152368">
        <ele>42.2</ele>
        <time>2013-03-11T21:39:40Z</time>
      </trkpt>
      <trkpt lat="59.5944704" lon="17.515421">
        <ele>45</ele>
        <time>2013-03-11T21:39:47Z</time>
      </trkpt>
      <trkpt lat="59.594637" lon="17.5155336">
        <ele>45.4</ele>
        <time>2013-03-11T21:39:53Z</time>
      </trkpt>
      <trkpt lat="59.5948317" lon="17.5156303">
        <ele>45.4</ele>
        <time>2013-03-11T21:39:58Z</time>
      </trkpt>
      <trkpt lat="59.5950419" lon="17.5156539">
        <ele>45.2</ele>
        <time>2013-03-11T21:40:03Z</time>
      </trkpt>
      <trkpt lat="59.5950827" lon="17.5156448">
        <ele>45.2</ele>
        <time>2013-03-11T21:40:04Z</time>
      </trkpt>
      <trkpt lat="59.5951702" lon="17.5156335">
        <ele>44.6</ele>
        <time>2013-03-11T21:40:06Z</time>
      </trkpt>
      <trkpt lat="59.5952221" lon="17.5156294">
        <ele>45.6</ele>
        <time>2013-03-11T21:40:07Z</time>
      </trkpt>
      <trkpt lat="59.5953077" lon="17.5156077">
        <ele>46.8</ele>
        <time>2013-03-11T21:40:09Z</time>
      </trkpt>
      <trkpt lat="59.595402" lon="17.5155014">
        <ele>48</ele>
        <time>2013-03-11T21:40:12Z</time>
      </trkpt>
      <trkpt lat="59.5955372" lon="17.5151843">
        <ele>48.6</ele>
        <time>2013-03-11T21:40:18Z</time>
      </trkpt>
      <trkpt lat="59.5956048" lon="17.5148213">
        <ele>48.8</ele>
        <time>2013-03-11T21:40:23Z</time>
      </trkpt>
      <trkpt lat="59.5956605" lon="17.5144706">
        <ele>50.2</ele>
        <time>2013-03-11T21:40:27Z</time>
      </trkpt>
      <trkpt lat="59.5956932" lon="17.5141266">
        <ele>51</ele>
        <time>2013-03-11T21:40:31Z</time>
      </trkpt>
      <trkpt lat="59.5956945" lon="17.5139231">
        <ele>50</ele>
        <time>2013-03-11T21:40:33Z</time>
      </trkpt>
      <trkpt lat="59.595703" lon="17.5136813">
        <ele>48.6</ele>
        <time>2013-03-11T21:40:35Z</time>
      </trkpt>
      <trkpt lat="59.5957351" lon="17.5132521">
        <ele>47</ele>
        <time>2013-03-11T21:40:38Z</time>
      </trkpt>
      <trkpt lat="59.5958646" lon="17.5128485">
        <ele>45.6</ele>
        <time>2013-03-11T21:40:41Z</time>
      </trkpt>
      <trkpt lat="59.5960877" lon="17.5126726">
        <ele>45.2</ele>
        <time>2013-03-11T21:40:44Z</time>
      </trkpt>
      <trkpt lat="59.5961654" lon="17.5126347">
        <ele>45.2</ele>
        <time>2013-03-11T21:40:45Z</time>
      </trkpt>
      <trkpt lat="59.5963142" lon="17.5125769">
        <ele>45.4</ele>
        <time>2013-03-11T21:40:47Z</time>
      </trkpt>
      <trkpt lat="59.5965209" lon="17.512575">
        <ele>44.2</ele>
        <time>2013-03-11T21:40:50Z</time>
      </trkpt>
      <trkpt lat="59.5967491" lon="17.512575">
        <ele>43.8</ele>
        <time>2013-03-11T21:40:54Z</time>
      </trkpt>
      <trkpt lat="59.5968518" lon="17.5125472">
        <ele>43.6</ele>
        <time>2013-03-11T21:40:56Z</time>
      </trkpt>
      <trkpt lat="59.5969468" lon="17.5124899">
        <ele>43.4</ele>
        <time>2013-03-11T21:40:58Z</time>
      </trkpt>
      <trkpt lat="59.5970549" lon="17.5124498">
        <ele>42.8</ele>
        <time>2013-03-11T21:41:00Z</time>
      </trkpt>
      <trkpt lat="59.5971182" lon="17.5124233">
        <ele>42.6</ele>
        <time>2013-03-11T21:41:01Z</time>
      </trkpt>
      <trkpt lat="59.5971731" lon="17.5124028">
        <ele>41.6</ele>
        <time>2013-03-11T21:41:02Z</time>
      </trkpt>
      <trkpt lat="59.5973321" lon="17.5123371">
        <ele>40.8</ele>
        <time>2013-03-11T21:41:05Z</time>
      </trkpt>
      <trkpt lat="59.597491" lon="17.5122565">
        <ele>40.4</ele>
        <time>2013-03-11T21:41:08Z</time>
      </trkpt>
      <trkpt lat="59.5975408" lon="17.5122225">
        <ele>41.2</ele>
        <time>2013-03-11T21:41:09Z</time>
      </trkpt>
      <trkpt lat="59.5977466" lon="17.5120794">
        <ele>40.2</ele>
        <time>2013-03-11T21:41:14Z</time>
      </trkpt>
      <trkpt lat="59.5978507" lon="17.5120094">
        <ele>40.4</ele>
        <time>2013-03-11T21:41:16Z</time>
      </trkpt>
      <trkpt lat="59.59791" lon="17.5119527">
        <ele>40.2</ele>
        <time>2013-03-11T21:41:17Z</time>
      </trkpt>
      <trkpt lat="59.5980799" lon="17.5117556">
        <ele>39.8</ele>
        <time>2013-03-11T21:41:20Z</time>
      </trkpt>
      <trkpt lat="59.5981879" lon="17.5115955">
        <ele>39.2</ele>
        <time>2013-03-11T21:41:22Z</time>
      </trkpt>
      <trkpt lat="59.5982406" lon="17.5115096">
        <ele>39.2</ele>
        <time>2013-03-11T21:41:23Z</time>
      </trkpt>
      <trkpt lat="59.598419" lon="17.5112849">
        <ele>39.2</ele>
        <time>2013-03-11T21:41:26Z</time>
      </trkpt>
      <trkpt lat="59.5986093" lon="17.5111523">
        <ele>39.6</ele>
        <time>2013-03-11T21:41:29Z</time>
      </trkpt>
      <trkpt lat="59.5988245" lon="17.5110236">
        <ele>41.2</ele>
        <time>2013-03-11T21:41:33Z</time>
      </trkpt>
      <trkpt lat="59.5989215" lon="17.5109475">
        <ele>40.8</ele>
        <time>2013-03-11T21:41:35Z</time>
      </trkpt>
      <trkpt lat="59.599023" lon="17.5108896">
        <ele>39.8</ele>
        <time>2013-03-11T21:41:37Z</time>
      </trkpt>
      <trkpt lat="59.5991306" lon="17.5108535">
        <ele>38.2</ele>
        <time>2013-03-11T21:41:39Z</time>
      </trkpt>
      <trkpt lat="59.5992326" lon="17.5108599">
        <ele>37.2</ele>
        <time>2013-03-11T21:41:41Z</time>
      </trkpt>
      <trkpt lat="59.5992834" lon="17.510892">
        <ele>36.8</ele>
        <time>2013-03-11T21:41:42Z</time>
      </trkpt>
      <trkpt lat="59.5994166" lon="17.5111082">
        <ele>35.8</ele>
        <time>2013-03-11T21:41:45Z</time>
      </trkpt>
      <trkpt lat="59.5995141" lon="17.5114697">
        <ele>33.6</ele>
        <time>2013-03-11T21:41:49Z</time>
      </trkpt>
      <trkpt lat="59.5995378" lon="17.511647">
        <ele>33</ele>
        <time>2013-03-11T21:41:51Z</time>
      </trkpt>
      <trkpt lat="59.5995495" lon="17.5118226">
        <ele>32.2</ele>
        <time>2013-03-11T21:41:53Z</time>
      </trkpt>
      <trkpt lat="59.5994558" lon="17.5122058">
        <ele>30.2</ele>
        <time>2013-03-11T21:41:58Z</time>
      </trkpt>
      <trkpt lat="59.599275" lon="17.5123804">
        <ele>30.8</ele>
        <time>2013-03-11T21:42:03Z</time>
      </trkpt>
      <trkpt lat="59.5991625" lon="17.512685">
        <ele>33.4</ele>
        <time>2013-03-11T21:42:08Z</time>
      </trkpt>
      <trkpt lat="59.5991701" lon="17.5129428">
        <ele>33.8</ele>
        <time>2013-03-11T21:42:11Z</time>
      </trkpt>
      <trkpt lat="59.5991685" lon="17.5130258">
        <ele>33.4</ele>
        <time>2013-03-11T21:42:12Z</time>
      </trkpt>
      <trkpt lat="59.5991647" lon="17.5131197">
        <ele>33.6</ele>
        <time>2013-03-11T21:42:13Z</time>
      </trkpt>
      <trkpt lat="59.5991286" lon="17.5133808">
        <ele>33</ele>
        <time>2013-03-11T21:42:16Z</time>
      </trkpt>
      <trkpt lat="59.5991076" lon="17.5135267">
        <ele>33.8</ele>
        <time>2013-03-11T21:42:18Z</time>
      </trkpt>
      <trkpt lat="59.5990758" lon="17.5136437">
        <ele>34.2</ele>
        <time>2013-03-11T21:42:20Z</time>
      </trkpt>
      <trkpt lat="59.5989641" lon="17.5138398">
        <ele>37</ele>
        <time>2013-03-11T21:42:24Z</time>
      </trkpt>
      <trkpt lat="59.5987586" lon="17.5139374">
        <ele>41.2</ele>
        <time>2013-03-11T21:42:30Z</time>
      </trkpt>
      <trkpt lat="59.5986897" lon="17.5139162">
        <ele>43.2</ele>
        <time>2013-03-11T21:42:32Z</time>
      </trkpt>
      <trkpt lat="59.5985727" lon="17.5139064">
        <ele>44.8</ele>
        <time>2013-03-11T21:42:35Z</time>
      </trkpt>
      <trkpt lat="59.5983919" lon="17.5139033">
        <ele>46</ele>
        <time>2013-03-11T21:42:40Z</time>
      </trkpt>
      <trkpt lat="59.5982043" lon="17.5139506">
        <ele>48</ele>
        <time>2013-03-11T21:42:46Z</time>
      </trkpt>
      <trkpt lat="59.5980117" lon="17.5140391">
        <ele>48.8</ele>
        <time>2013-03-11T21:42:52Z</time>
      </trkpt>
      <trkpt lat="59.5978573" lon="17.5142157">
        <ele>50.4</ele>
        <time>2013-03-11T21:42:57Z</time>
      </trkpt>
      <trkpt lat="59.5977112" lon="17.5144825">
        <ele>50.2</ele>
        <time>2013-03-11T21:43:02Z</time>
      </trkpt>
      <trkpt lat="59.597563" lon="17.5146354">
        <ele>50.6</ele>
        <time>2013-03-11T21:43:06Z</time>
      </trkpt>
      <trkpt lat="59.5975234" lon="17.5146567">
        <ele>50.8</ele>
        <time>2013-03-11T21:43:07Z</time>
      </trkpt>
      <trkpt lat="59.5974185" lon="17.5146954">
        <ele>51.4</ele>
        <time>2013-03-11T21:43:10Z</time>
      </trkpt>
      <trkpt lat="59.5973144" lon="17.51471">
        <ele>51.8</ele>
        <time>2013-03-11T21:43:13Z</time>
      </trkpt>
      <trkpt lat="59.5971332" lon="17.5147961">
        <ele>52.8</ele>
        <time>2013-03-11T21:43:18Z</time>
      </trkpt>
      <trkpt lat="59.5970949" lon="17.5148084">
        <ele>53.4</ele>
        <time>2013-03-11T21:43:19Z</time>
      </trkpt>
      <trkpt lat="59.5969518" lon="17.5148648">
        <ele>54.8</ele>
        <time>2013-03-11T21:43:23Z</time>
      </trkpt>
      <trkpt lat="59.5967897" lon="17.5150318">
        <ele>56</ele>
        <time>2013-03-11T21:43:28Z</time>
      </trkpt>
      <trkpt lat="59.5965991" lon="17.5152057">
        <ele>57</ele>
        <time>2013-03-11T21:43:34Z</time>
      </trkpt>
      <trkpt lat="59.5964218" lon="17.5153792">
        <ele>54.4</ele>
        <time>2013-03-11T21:43:40Z</time>
      </trkpt>
      <trkpt lat="59.5962348" lon="17.5155857">
        <ele>54.6</ele>
        <time>2013-03-11T21:43:46Z</time>
      </trkpt>
      <trkpt lat="59.5960661" lon="17.5157986">
        <ele>56.6</ele>
        <time>2013-03-11T21:43:52Z</time>
      </trkpt>
      <trkpt lat="59.5959053" lon="17.5160236">
        <ele>56.8</ele>
        <time>2013-03-11T21:43:58Z</time>
      </trkpt>
      <trkpt lat="59.5957884" lon="17.5163014">
        <ele>57.2</ele>
        <time>2013-03-11T21:44:03Z</time>
      </trkpt>
      <trkpt lat="59.5957267" lon="17.5166411">
        <ele>56</ele>
        <time>2013-03-11T21:44:08Z</time>
      </trkpt>
      <trkpt lat="59.5956615" lon="17.5169815">
        <ele>54</ele>
        <time>2013-03-11T21:44:13Z</time>
      </trkpt>
      <trkpt lat="59.5955221" lon="17.5172943">
        <ele>53.2</ele>
        <time>2013-03-11T21:44:17Z</time>
      </trkpt>
      <trkpt lat="59.5954643" lon="17.5173797">
        <ele>53.2</ele>
        <time>2013-03-11T21:44:18Z</time>
      </trkpt>
      <trkpt lat="59.5953196" lon="17.5175089">
        <ele>52</ele>
        <time>2013-03-11T21:44:20Z</time>
      </trkpt>
      <trkpt lat="59.5950747" lon="17.5175888">
        <ele>50.2</ele>
        <time>2013-03-11T21:44:23Z</time>
      </trkpt>
      <trkpt lat="59.5948415" lon="17.5176536">
        <ele>49.4</ele>
        <time>2013-03-11T21:44:26Z</time>
      </trkpt>
      <trkpt lat="59.5946225" lon="17.5177104">
        <ele>49.2</ele>
        <time>2013-03-11T21:44:29Z</time>
      </trkpt>
      <trkpt lat="59.5944303" lon="17.5177643">
        <ele>49.8</ele>
        <time>2013-03-11T21:44:32Z</time>
      </trkpt>
      <trkpt lat="59.594372" lon="17.5177971">
        <ele>50.4</ele>
        <time>2013-03-11T21:44:33Z</time>
      </trkpt>
      <trkpt lat="59.5942098" lon="17.5179128">
        <ele>49.2</ele>
        <time>2013-03-11T21:44:36Z</time>
      </trkpt>
      <trkpt lat="59.5940434" lon="17.5180257">
        <ele>47.4</ele>
        <time>2013-03-11T21:44:39Z</time>
      </trkpt>
      <trkpt lat="59.5939904" lon="17.5180484">
        <ele>47</ele>
        <time>2013-03-11T21:44:40Z</time>
      </trkpt>
      <trkpt lat="59.5938432" lon="17.5181217">
        <ele>46</ele>
        <time>2013-03-11T21:44:43Z</time>
      </trkpt>
      <trkpt lat="59.5937934" lon="17.5181548">
        <ele>45.6</ele>
        <time>2013-03-11T21:44:44Z</time>
      </trkpt>
      <trkpt lat="59.5936911" lon="17.5182008">
        <ele>46</ele>
        <time>2013-03-11T21:44:46Z</time>
      </trkpt>
      <trkpt lat="59.5935848" lon="17.5182458">
        <ele>46</ele>
        <time>2013-03-11T21:44:48Z</time>
      </trkpt>
      <trkpt lat="59.5934429" lon="17.5183645">
        <ele>44.8</ele>
        <time>2013-03-11T21:44:51Z</time>
      </trkpt>
      <trkpt lat="59.5934057" lon="17.518419">
        <ele>44.6</ele>
        <time>2013-03-11T21:44:52Z</time>
      </trkpt>
      <trkpt lat="59.5932495" lon="17.518651">
        <ele>44.2</ele>
        <time>2013-03-11T21:44:56Z</time>
      </trkpt>
      <trkpt lat="59.5930659" lon="17.518823">
        <ele>45</ele>
        <time>2013-03-11T21:45:00Z</time>
      </trkpt>
      <trkpt lat="59.5928694" lon="17.5187171">
        <ele>44.8</ele>
        <time>2013-03-11T21:45:04Z</time>
      </trkpt>
      <trkpt lat="59.5928232" lon="17.5186436">
        <ele>44.8</ele>
        <time>2013-03-11T21:45:05Z</time>
      </trkpt>
      <trkpt lat="59.5926807" lon="17.5184298">
        <ele>45</ele>
        <time>2013-03-11T21:45:08Z</time>
      </trkpt>
      <trkpt lat="59.5925348" lon="17.5181421">
        <ele>44.4</ele>
        <time>2013-03-11T21:45:12Z</time>
      </trkpt>
      <trkpt lat="59.5925134" lon="17.5180631">
        <ele>44</ele>
        <time>2013-03-11T21:45:13Z</time>
      </trkpt>
      <trkpt lat="59.5924885" lon="17.5177832">
        <ele>43.6</ele>
        <time>2013-03-11T21:45:16Z</time>
      </trkpt>
      <trkpt lat="59.5925134" lon="17.5175014">
        <ele>43.6</ele>
        <time>2013-03-11T21:45:19Z</time>
      </trkpt>
      <trkpt lat="59.5925307" lon="17.5174015">
        <ele>42.8</ele>
        <time>2013-03-11T21:45:20Z</time>
      </trkpt>
      <trkpt lat="59.5925865" lon="17.5170555">
        <ele>43.8</ele>
        <time>2013-03-11T21:45:23Z</time>
      </trkpt>
      <trkpt lat="59.592599" lon="17.5169369">
        <ele>44</ele>
        <time>2013-03-11T21:45:24Z</time>
      </trkpt>
      <trkpt lat="59.5926228" lon="17.5166809">
        <ele>43.8</ele>
        <time>2013-03-11T21:45:26Z</time>
      </trkpt>
      <trkpt lat="59.5926441" lon="17.5165474">
        <ele>43.8</ele>
        <time>2013-03-11T21:45:27Z</time>
      </trkpt>
      <trkpt lat="59.5927196" lon="17.516297">
        <ele>43.4</ele>
        <time>2013-03-11T21:45:29Z</time>
      </trkpt>
      <trkpt lat="59.5928573" lon="17.5159481">
        <ele>42.4</ele>
        <time>2013-03-11T21:45:32Z</time>
      </trkpt>
      <trkpt lat="59.5929844" lon="17.5155624">
        <ele>41</ele>
        <time>2013-03-11T21:45:35Z</time>
      </trkpt>
      <trkpt lat="59.5931226" lon="17.5151716">
        <ele>40.6</ele>
        <time>2013-03-11T21:45:38Z</time>
      </trkpt>
      <trkpt lat="59.5932668" lon="17.5148111">
        <ele>40.6</ele>
        <time>2013-03-11T21:45:41Z</time>
      </trkpt>
      <trkpt lat="59.5934497" lon="17.5146075">
        <ele>41.8</ele>
        <time>2013-03-11T21:45:44Z</time>
      </trkpt>
      <trkpt lat="59.593562" lon="17.514539">
        <ele>43.6</ele>
        <time>2013-03-11T21:45:46Z</time>
      </trkpt>
      <trkpt lat="59.5936763" lon="17.5144945">
        <ele>43.6</ele>
        <time>2013-03-11T21:45:48Z</time>
      </trkpt>
      <trkpt lat="59.593778" lon="17.5144767">
        <ele>43.2</ele>
        <time>2013-03-11T21:45:50Z</time>
      </trkpt>
      <trkpt lat="59.5938851" lon="17.5145608">
        <ele>42.6</ele>
        <time>2013-03-11T21:45:53Z</time>
      </trkpt>
      <trkpt lat="59.5939159" lon="17.5146146">
        <ele>42</ele>
        <time>2013-03-11T21:45:54Z</time>
      </trkpt>
      <trkpt lat="59.5939416" lon="17.514679">
        <ele>42.2</ele>
        <time>2013-03-11T21:45:55Z</time>
      </trkpt>
      <trkpt lat="59.5940081" lon="17.5148455">
        <ele>42.6</ele>
        <time>2013-03-11T21:45:58Z</time>
      </trkpt>
      <trkpt lat="59.5940474" lon="17.5149431">
        <ele>42.8</ele>
        <time>2013-03-11T21:46:00Z</time>
      </trkpt>
      <trkpt lat="59.5941438" lon="17.5151">
        <ele>43.4</ele>
        <time>2013-03-11T21:46:04Z</time>
      </trkpt>
      <trkpt lat="59.5943243" lon="17.5152922">
        <ele>43</ele>
        <time>2013-03-11T21:46:11Z</time>
      </trkpt>
      <trkpt lat="59.5945047" lon="17.5154367">
        <ele>43.8</ele>
        <time>2013-03-11T21:46:17Z</time>
      </trkpt>
      <trkpt lat="59.5947068" lon="17.5155506">
        <ele>44.6</ele>
        <time>2013-03-11T21:46:23Z</time>
      </trkpt>
      <trkpt lat="59.5949167" lon="17.5156321">
        <ele>45.2</ele>
        <time>2013-03-11T21:46:28Z</time>
      </trkpt>
      <trkpt lat="59.5951217" lon="17.515635">
        <ele>42.6</ele>
        <time>2013-03-11T21:46:34Z</time>
      </trkpt>
      <trkpt lat="59.5953341" lon="17.5155528">
        <ele>44.2</ele>
        <time>2013-03-11T21:46:40Z</time>
      </trkpt>
      <trkpt lat="59.5954873" lon="17.5152829">
        <ele>46.8</ele>
        <time>2013-03-11T21:46:46Z</time>
      </trkpt>
      <trkpt lat="59.5956101" lon="17.5149901">
        <ele>47</ele>
        <time>2013-03-11T21:46:51Z</time>
      </trkpt>
      <trkpt lat="59.5956894" lon="17.514614">
        <ele>45.2</ele>
        <time>2013-03-11T21:46:56Z</time>
      </trkpt>
      <trkpt lat="59.5957138" lon="17.5144494">
        <ele>44.2</ele>
        <time>2013-03-11T21:46:58Z</time>
      </trkpt>
      <trkpt lat="59.595733" lon="17.5142692">
        <ele>43.4</ele>
        <time>2013-03-11T21:47:00Z</time>
      </trkpt>
      <trkpt lat="59.5957413" lon="17.5138317">
        <ele>40.4</ele>
        <time>2013-03-11T21:47:04Z</time>
      </trkpt>
      <trkpt lat="59.5957725" lon="17.5133771">
        <ele>38.8</ele>
        <time>2013-03-11T21:47:07Z</time>
      </trkpt>
      <trkpt lat="59.5957936" lon="17.5132132">
        <ele>38.8</ele>
        <time>2013-03-11T21:47:08Z</time>
      </trkpt>
      <trkpt lat="59.5958982" lon="17.5129165">
        <ele>38.8</ele>
        <time>2013-03-11T21:47:10Z</time>
      </trkpt>
      <trkpt lat="59.5961179" lon="17.5127258">
        <ele>40</ele>
        <time>2013-03-11T21:47:13Z</time>
      </trkpt>
      <trkpt lat="59.5962019" lon="17.5126793">
        <ele>40.8</ele>
        <time>2013-03-11T21:47:14Z</time>
      </trkpt>
      <trkpt lat="59.5963526" lon="17.5126161">
        <ele>41.4</ele>
        <time>2013-03-11T21:47:16Z</time>
      </trkpt>
      <trkpt lat="59.5964233" lon="17.5126027">
        <ele>41.8</ele>
        <time>2013-03-11T21:47:17Z</time>
      </trkpt>
      <trkpt lat="59.5965523" lon="17.5125952">
        <ele>42.6</ele>
        <time>2013-03-11T21:47:19Z</time>
      </trkpt>
      <trkpt lat="59.5967785" lon="17.5125823">
        <ele>43.4</ele>
        <time>2013-03-11T21:47:23Z</time>
      </trkpt>
      <trkpt lat="59.5969512" lon="17.5125762">
        <ele>43</ele>
        <time>2013-03-11T21:47:27Z</time>
      </trkpt>
      <trkpt lat="59.5969949" lon="17.5125455">
        <ele>42.8</ele>
        <time>2013-03-11T21:47:28Z</time>
      </trkpt>
      <trkpt lat="59.5971376" lon="17.5124198">
        <ele>40.8</ele>
        <time>2013-03-11T21:47:31Z</time>
      </trkpt>
      <trkpt lat="59.597187" lon="17.5123965">
        <ele>40.6</ele>
        <time>2013-03-11T21:47:32Z</time>
      </trkpt>
      <trkpt lat="59.597393" lon="17.5122995">
        <ele>39.4</ele>
        <time>2013-03-11T21:47:36Z</time>
      </trkpt>
      <trkpt lat="59.5976066" lon="17.5121993">
        <ele>37.8</ele>
        <time>2013-03-11T21:47:40Z</time>
      </trkpt>
      <trkpt lat="59.5978065" lon="17.5120501">
        <ele>36.4</ele>
        <time>2013-03-11T21:47:44Z</time>
      </trkpt>
      <trkpt lat="59.597961" lon="17.5119209">
        <ele>34.6</ele>
        <time>2013-03-11T21:47:47Z</time>
      </trkpt>
      <trkpt lat="59.5980131" lon="17.5118633">
        <ele>34.6</ele>
        <time>2013-03-11T21:47:48Z</time>
      </trkpt>
      <trkpt lat="59.5980644" lon="17.5117976">
        <ele>34</ele>
        <time>2013-03-11T21:47:49Z</time>
      </trkpt>
      <trkpt lat="59.598162" lon="17.5116422">
        <ele>32.6</ele>
        <time>2013-03-11T21:47:51Z</time>
      </trkpt>
      <trkpt lat="59.5983127" lon="17.5114107">
        <ele>31.6</ele>
        <time>2013-03-11T21:47:54Z</time>
      </trkpt>
      <trkpt lat="59.5984943" lon="17.5112174">
        <ele>32.2</ele>
        <time>2013-03-11T21:47:57Z</time>
      </trkpt>
      <trkpt lat="59.5987187" lon="17.5110626">
        <ele>33.8</ele>
        <time>2013-03-11T21:48:01Z</time>
      </trkpt>
      <trkpt lat="59.598925" lon="17.5109454">
        <ele>34.4</ele>
        <time>2013-03-11T21:48:05Z</time>
      </trkpt>
      <trkpt lat="59.5991054" lon="17.5108661">
        <ele>34.2</ele>
        <time>2013-03-11T21:48:08Z</time>
      </trkpt>
      <trkpt lat="59.5991638" lon="17.5108542">
        <ele>34.2</ele>
        <time>2013-03-11T21:48:09Z</time>
      </trkpt>
      <trkpt lat="59.599286" lon="17.5108907">
        <ele>33.6</ele>
        <time>2013-03-11T21:48:11Z</time>
      </trkpt>
      <trkpt lat="59.5994398" lon="17.5110611">
        <ele>33</ele>
        <time>2013-03-11T21:48:14Z</time>
      </trkpt>
      <trkpt lat="59.5995628" lon="17.5114087">
        <ele>30.2</ele>
        <time>2013-03-11T21:48:18Z</time>
      </trkpt>
      <trkpt lat="59.5995801" lon="17.5115081">
        <ele>29.8</ele>
        <time>2013-03-11T21:48:19Z</time>
      </trkpt>
      <trkpt lat="59.59959" lon="17.5116044">
        <ele>29.6</ele>
        <time>2013-03-11T21:48:20Z</time>
      </trkpt>
      <trkpt lat="59.5995844" lon="17.5118032">
        <ele>30.2</ele>
        <time>2013-03-11T21:48:22Z</time>
      </trkpt>
      <trkpt lat="59.5994973" lon="17.5121545">
        <ele>30.2</ele>
        <time>2013-03-11T21:48:26Z</time>
      </trkpt>
      <trkpt lat="59.5993382" lon="17.512372">
        <ele>32.2</ele>
        <time>2013-03-11T21:48:30Z</time>
      </trkpt>
      <trkpt lat="59.5991627" lon="17.5125608">
        <ele>34.8</ele>
        <time>2013-03-11T21:48:34Z</time>
      </trkpt>
      <trkpt lat="59.5991182" lon="17.5127672">
        <ele>36.8</ele>
        <time>2013-03-11T21:48:37Z</time>
      </trkpt>
      <trkpt lat="59.5991154" lon="17.5128347">
        <ele>36.8</ele>
        <time>2013-03-11T21:48:38Z</time>
      </trkpt>
      <trkpt lat="59.599116" lon="17.5129114">
        <ele>36.8</ele>
        <time>2013-03-11T21:48:39Z</time>
      </trkpt>
      <trkpt lat="59.5991094" lon="17.513287">
        <ele>37.8</ele>
        <time>2013-03-11T21:48:43Z</time>
      </trkpt>
      <trkpt lat="59.5990037" lon="17.5136665">
        <ele>39.2</ele>
        <time>2013-03-11T21:48:48Z</time>
      </trkpt>
      <trkpt lat="59.5988431" lon="17.5138897">
        <ele>40</ele>
        <time>2013-03-11T21:48:53Z</time>
      </trkpt>
      <trkpt lat="59.5988093" lon="17.5139133">
        <ele>40.8</ele>
        <time>2013-03-11T21:48:54Z</time>
      </trkpt>
      <trkpt lat="59.598648" lon="17.5139729">
        <ele>43.8</ele>
        <time>2013-03-11T21:49:00Z</time>
      </trkpt>
      <trkpt lat="59.5986248" lon="17.5139705">
        <ele>43.6</ele>
        <time>2013-03-11T21:49:01Z</time>
      </trkpt>
      <trkpt lat="59.5984612" lon="17.5139361">
        <ele>45</ele>
        <time>2013-03-11T21:49:06Z</time>
      </trkpt>
      <trkpt lat="59.5982662" lon="17.5139203">
        <ele>44.6</ele>
        <time>2013-03-11T21:49:12Z</time>
      </trkpt>
      <trkpt lat="59.5980685" lon="17.5139951">
        <ele>45</ele>
        <time>2013-03-11T21:49:18Z</time>
      </trkpt>
      <trkpt lat="59.5979061" lon="17.5141216">
        <ele>45.8</ele>
        <time>2013-03-11T21:49:23Z</time>
      </trkpt>
      <trkpt lat="59.5977484" lon="17.5144015">
        <ele>45.8</ele>
        <time>2013-03-11T21:49:29Z</time>
      </trkpt>
      <trkpt lat="59.5975909" lon="17.5145825">
        <ele>45.6</ele>
        <time>2013-03-11T21:49:34Z</time>
      </trkpt>
      <trkpt lat="59.5974118" lon="17.5146657">
        <ele>47.8</ele>
        <time>2013-03-11T21:49:39Z</time>
      </trkpt>
      <trkpt lat="59.5972269" lon="17.514744">
        <ele>48.4</ele>
        <time>2013-03-11T21:49:44Z</time>
      </trkpt>
      <trkpt lat="59.5970309" lon="17.5148908">
        <ele>49.8</ele>
        <time>2013-03-11T21:49:49Z</time>
      </trkpt>
      <trkpt lat="59.5968524" lon="17.5149895">
        <ele>51.6</ele>
        <time>2013-03-11T21:49:54Z</time>
      </trkpt>
      <trkpt lat="59.5966712" lon="17.5151575">
        <ele>54.4</ele>
        <time>2013-03-11T21:50:00Z</time>
      </trkpt>
      <trkpt lat="59.5964903" lon="17.5153035">
        <ele>56.2</ele>
        <time>2013-03-11T21:50:05Z</time>
      </trkpt>
      <trkpt lat="59.5963095" lon="17.5155147">
        <ele>56.8</ele>
        <time>2013-03-11T21:50:10Z</time>
      </trkpt>
      <trkpt lat="59.5961693" lon="17.5156358">
        <ele>56</ele>
        <time>2013-03-11T21:50:14Z</time>
      </trkpt>
      <trkpt lat="59.5961391" lon="17.5156735">
        <ele>56</ele>
        <time>2013-03-11T21:50:15Z</time>
      </trkpt>
      <trkpt lat="59.5959604" lon="17.5158641">
        <ele>55.8</ele>
        <time>2013-03-11T21:50:21Z</time>
      </trkpt>
      <trkpt lat="59.5957997" lon="17.5161237">
        <ele>55.2</ele>
        <time>2013-03-11T21:50:27Z</time>
      </trkpt>
      <trkpt lat="59.5957196" lon="17.5164981">
        <ele>53.6</ele>
        <time>2013-03-11T21:50:33Z</time>
      </trkpt>
      <trkpt lat="59.5956629" lon="17.5168675">
        <ele>51.2</ele>
        <time>2013-03-11T21:50:38Z</time>
      </trkpt>
      <trkpt lat="59.5955414" lon="17.5171995">
        <ele>49.4</ele>
        <time>2013-03-11T21:50:42Z</time>
      </trkpt>
      <trkpt lat="59.5954523" lon="17.5173793">
        <ele>48.4</ele>
        <time>2013-03-11T21:50:44Z</time>
      </trkpt>
      <trkpt lat="59.595391" lon="17.517459">
        <ele>47.6</ele>
        <time>2013-03-11T21:50:45Z</time>
      </trkpt>
      <trkpt lat="59.5951552" lon="17.5175888">
        <ele>46.8</ele>
        <time>2013-03-11T21:50:48Z</time>
      </trkpt>
      <trkpt lat="59.5950732" lon="17.5176109">
        <ele>46.6</ele>
        <time>2013-03-11T21:50:49Z</time>
      </trkpt>
      <trkpt lat="59.5949136" lon="17.5176695">
        <ele>46.8</ele>
        <time>2013-03-11T21:50:51Z</time>
      </trkpt>
      <trkpt lat="59.5946866" lon="17.5177422">
        <ele>47</ele>
        <time>2013-03-11T21:50:54Z</time>
      </trkpt>
      <trkpt lat="59.5944845" lon="17.5177895">
        <ele>47.4</ele>
        <time>2013-03-11T21:50:57Z</time>
      </trkpt>
      <trkpt lat="59.5943651" lon="17.5178283">
        <ele>47.6</ele>
        <time>2013-03-11T21:50:59Z</time>
      </trkpt>
      <trkpt lat="59.5942613" lon="17.5179007">
        <ele>48.2</ele>
        <time>2013-03-11T21:51:01Z</time>
      </trkpt>
      <trkpt lat="59.5941161" lon="17.5180257">
        <ele>47.8</ele>
        <time>2013-03-11T21:51:04Z</time>
      </trkpt>
      <trkpt lat="59.5940635" lon="17.5180579">
        <ele>47.6</ele>
        <time>2013-03-11T21:51:05Z</time>
      </trkpt>
      <trkpt lat="59.5938681" lon="17.5181543">
        <ele>47.4</ele>
        <time>2013-03-11T21:51:09Z</time>
      </trkpt>
      <trkpt lat="59.5936631" lon="17.5181894">
        <ele>45.2</ele>
        <time>2013-03-11T21:51:13Z</time>
      </trkpt>
      <trkpt lat="59.5934911" lon="17.5182882">
        <ele>43.2</ele>
        <time>2013-03-11T21:51:16Z</time>
      </trkpt>
      <trkpt lat="59.5934387" lon="17.5183381">
        <ele>42.6</ele>
        <time>2013-03-11T21:51:17Z</time>
      </trkpt>
      <trkpt lat="59.593295" lon="17.5185241">
        <ele>40.6</ele>
        <time>2013-03-11T21:51:20Z</time>
      </trkpt>
      <trkpt lat="59.5932482" lon="17.5185884">
        <ele>40.6</ele>
        <time>2013-03-11T21:51:21Z</time>
      </trkpt>
      <trkpt lat="59.5931057" lon="17.5187248">
        <ele>40.4</ele>
        <time>2013-03-11T21:51:24Z</time>
      </trkpt>
      <trkpt lat="59.5930517" lon="17.5187416">
        <ele>40.6</ele>
        <time>2013-03-11T21:51:25Z</time>
      </trkpt>
      <trkpt lat="59.5929063" lon="17.5186913">
        <ele>41.4</ele>
        <time>2013-03-11T21:51:28Z</time>
      </trkpt>
      <trkpt lat="59.5928618" lon="17.5186525">
        <ele>41.2</ele>
        <time>2013-03-11T21:51:29Z</time>
      </trkpt>
      <trkpt lat="59.5927405" lon="17.5184682">
        <ele>41.4</ele>
        <time>2013-03-11T21:51:32Z</time>
      </trkpt>
      <trkpt lat="59.59258" lon="17.5182008">
        <ele>41</ele>
        <time>2013-03-11T21:51:36Z</time>
      </trkpt>
      <trkpt lat="59.592541" lon="17.5181279">
        <ele>41.2</ele>
        <time>2013-03-11T21:51:37Z</time>
      </trkpt>
      <trkpt lat="59.5924613" lon="17.5178606">
        <ele>41</ele>
        <time>2013-03-11T21:51:40Z</time>
      </trkpt>
      <trkpt lat="59.5924466" lon="17.5177735">
        <ele>41.2</ele>
        <time>2013-03-11T21:51:41Z</time>
      </trkpt>
      <trkpt lat="59.5924841" lon="17.5174337">
        <ele>38.8</ele>
        <time>2013-03-11T21:51:45Z</time>
      </trkpt>
      <trkpt lat="59.5924986" lon="17.5173483">
        <ele>38</ele>
        <time>2013-03-11T21:51:46Z</time>
      </trkpt>
      <trkpt lat="59.5925477" lon="17.5170755">
        <ele>39.2</ele>
        <time>2013-03-11T21:51:49Z</time>
      </trkpt>
      <trkpt lat="59.5925633" lon="17.5168795">
        <ele>38</ele>
        <time>2013-03-11T21:51:51Z</time>
      </trkpt>
      <trkpt lat="59.5925928" lon="17.5166509">
        <ele>39</ele>
        <time>2013-03-11T21:51:53Z</time>
      </trkpt>
      <trkpt lat="59.5926825" lon="17.5163114">
        <ele>40</ele>
        <time>2013-03-11T21:51:56Z</time>
      </trkpt>
      <trkpt lat="59.5927705" lon="17.5161065">
        <ele>39.8</ele>
        <time>2013-03-11T21:51:58Z</time>
      </trkpt>
      <trkpt lat="59.5928141" lon="17.5159988">
        <ele>39.8</ele>
        <time>2013-03-11T21:51:59Z</time>
      </trkpt>
      <trkpt lat="59.5928528" lon="17.5158849">
        <ele>39.6</ele>
        <time>2013-03-11T21:52:00Z</time>
      </trkpt>
      <trkpt lat="59.5929325" lon="17.5156499">
        <ele>38.8</ele>
        <time>2013-03-11T21:52:02Z</time>
      </trkpt>
      <trkpt lat="59.5930621" lon="17.515272">
        <ele>39.2</ele>
        <time>2013-03-11T21:52:05Z</time>
      </trkpt>
      <trkpt lat="59.5931937" lon="17.5149099">
        <ele>39.2</ele>
        <time>2013-03-11T21:52:08Z</time>
      </trkpt>
      <trkpt lat="59.5933583" lon="17.5146623">
        <ele>39.4</ele>
        <time>2013-03-11T21:52:11Z</time>
      </trkpt>
      <trkpt lat="59.5934123" lon="17.5146109">
        <ele>39</ele>
        <time>2013-03-11T21:52:12Z</time>
      </trkpt>
      <trkpt lat="59.5934686" lon="17.5145696">
        <ele>38.8</ele>
        <time>2013-03-11T21:52:13Z</time>
      </trkpt>
      <trkpt lat="59.5935768" lon="17.5145002">
        <ele>38.4</ele>
        <time>2013-03-11T21:52:15Z</time>
      </trkpt>
      <trkpt lat="59.5936817" lon="17.5144461">
        <ele>37.8</ele>
        <time>2013-03-11T21:52:17Z</time>
      </trkpt>
      <trkpt lat="59.5937785" lon="17.5144428">
        <ele>38</ele>
        <time>2013-03-11T21:52:19Z</time>
      </trkpt>
      <trkpt lat="59.5939397" lon="17.5147158">
        <ele>33.4</ele>
        <time>2013-03-11T21:52:24Z</time>
      </trkpt>
      <trkpt lat="59.5940434" lon="17.5149152">
        <ele>31.8</ele>
        <time>2013-03-11T21:52:28Z</time>
      </trkpt>
      <trkpt lat="59.5940743" lon="17.51497">
        <ele>31.8</ele>
        <time>2013-03-11T21:52:29Z</time>
      </trkpt>
      <trkpt lat="59.5941081" lon="17.5150188">
        <ele>32.2</ele>
        <time>2013-03-11T21:52:30Z</time>
      </trkpt>
      <trkpt lat="59.5942287" lon="17.5151858">
        <ele>34.4</ele>
        <time>2013-03-11T21:52:34Z</time>
      </trkpt>
      <trkpt lat="59.5944037" lon="17.5153539">
        <ele>34.6</ele>
        <time>2013-03-11T21:52:40Z</time>
      </trkpt>
      <trkpt lat="59.5945948" lon="17.5154953">
        <ele>36.4</ele>
        <time>2013-03-11T21:52:47Z</time>
      </trkpt>
      <trkpt lat="59.5947943" lon="17.5156341">
        <ele>38.2</ele>
        <time>2013-03-11T21:52:52Z</time>
      </trkpt>
      <trkpt lat="59.594984" lon="17.5156929">
        <ele>40.2</ele>
        <time>2013-03-11T21:52:57Z</time>
      </trkpt>
      <trkpt lat="59.5951699" lon="17.5156854">
        <ele>42.6</ele>
        <time>2013-03-11T21:53:02Z</time>
      </trkpt>
      <trkpt lat="59.5952787" lon="17.51566">
        <ele>42.8</ele>
        <time>2013-03-11T21:53:06Z</time>
      </trkpt>
      <trkpt lat="59.5953368" lon="17.5155783">
        <ele>43.2</ele>
        <time>2013-03-11T21:53:08Z</time>
      </trkpt>
      <trkpt lat="59.5953787" lon="17.5154906">
        <ele>43</ele>
        <time>2013-03-11T21:53:10Z</time>
      </trkpt>
      <trkpt lat="59.5954538" lon="17.5152808">
        <ele>44.4</ele>
        <time>2013-03-11T21:53:14Z</time>
      </trkpt>
      <trkpt lat="59.5955371" lon="17.5149581">
        <ele>44.6</ele>
        <time>2013-03-11T21:53:19Z</time>
      </trkpt>
      <trkpt lat="59.595607" lon="17.5145628">
        <ele>43.6</ele>
        <time>2013-03-11T21:53:24Z</time>
      </trkpt>
      <trkpt lat="59.5956614" lon="17.5142987">
        <ele>42.8</ele>
        <time>2013-03-11T21:53:27Z</time>
      </trkpt>
      <trkpt lat="59.5956636" lon="17.5142128">
        <ele>42.6</ele>
        <time>2013-03-11T21:53:28Z</time>
      </trkpt>
      <trkpt lat="59.595671" lon="17.5137713">
        <ele>41.4</ele>
        <time>2013-03-11T21:53:32Z</time>
      </trkpt>
      <trkpt lat="59.595674" lon="17.5136292">
        <ele>41.4</ele>
        <time>2013-03-11T21:53:33Z</time>
      </trkpt>
      <trkpt lat="59.5956929" lon="17.5133278">
        <ele>41.2</ele>
        <time>2013-03-11T21:53:35Z</time>
      </trkpt>
      <trkpt lat="59.5957993" lon="17.5128893">
        <ele>40.8</ele>
        <time>2013-03-11T21:53:38Z</time>
      </trkpt>
      <trkpt lat="59.596031" lon="17.5126996">
        <ele>39.4</ele>
        <time>2013-03-11T21:53:41Z</time>
      </trkpt>
      <trkpt lat="59.5961117" lon="17.5126617">
        <ele>39.4</ele>
        <time>2013-03-11T21:53:42Z</time>
      </trkpt>
      <trkpt lat="59.5962651" lon="17.5126033">
        <ele>39.2</ele>
        <time>2013-03-11T21:53:44Z</time>
      </trkpt>
      <trkpt lat="59.5964753" lon="17.5125816">
        <ele>39.2</ele>
        <time>2013-03-11T21:53:47Z</time>
      </trkpt>
      <trkpt lat="59.5966499" lon="17.5125688">
        <ele>38.6</ele>
        <time>2013-03-11T21:53:50Z</time>
      </trkpt>
      <trkpt lat="59.5967115" lon="17.5125607">
        <ele>38</ele>
        <time>2013-03-11T21:53:51Z</time>
      </trkpt>
      <trkpt lat="59.5968271" lon="17.5125379">
        <ele>37.4</ele>
        <time>2013-03-11T21:53:53Z</time>
      </trkpt>
      <trkpt lat="59.5969297" lon="17.5124789">
        <ele>37.2</ele>
        <time>2013-03-11T21:53:55Z</time>
      </trkpt>
      <trkpt lat="59.5971498" lon="17.5123649">
        <ele>35.6</ele>
        <time>2013-03-11T21:53:59Z</time>
      </trkpt>
      <trkpt lat="59.5973724" lon="17.5122401">
        <ele>33.8</ele>
        <time>2013-03-11T21:54:03Z</time>
      </trkpt>
      <trkpt lat="59.5974217" lon="17.5122033">
        <ele>33.2</ele>
        <time>2013-03-11T21:54:04Z</time>
      </trkpt>
      <trkpt lat="59.5975878" lon="17.5120939">
        <ele>32.4</ele>
        <time>2013-03-11T21:54:07Z</time>
      </trkpt>
      <trkpt lat="59.59776" lon="17.5119914">
        <ele>30.8</ele>
        <time>2013-03-11T21:54:10Z</time>
      </trkpt>
      <trkpt lat="59.5978164" lon="17.5119662">
        <ele>30.4</ele>
        <time>2013-03-11T21:54:11Z</time>
      </trkpt>
      <trkpt lat="59.5979253" lon="17.5118719">
        <ele>29.4</ele>
        <time>2013-03-11T21:54:13Z</time>
      </trkpt>
      <trkpt lat="59.598082" lon="17.5116719">
        <ele>28</ele>
        <time>2013-03-11T21:54:16Z</time>
      </trkpt>
      <trkpt lat="59.5981319" lon="17.5115966">
        <ele>27</ele>
        <time>2013-03-11T21:54:17Z</time>
      </trkpt>
      <trkpt lat="59.5982286" lon="17.5114464">
        <ele>25.2</ele>
        <time>2013-03-11T21:54:19Z</time>
      </trkpt>
      <trkpt lat="59.5984054" lon="17.5112423">
        <ele>25.8</ele>
        <time>2013-03-11T21:54:22Z</time>
      </trkpt>
      <trkpt lat="59.5985966" lon="17.5111337">
        <ele>26.6</ele>
        <time>2013-03-11T21:54:25Z</time>
      </trkpt>
      <trkpt lat="59.5988201" lon="17.5110035">
        <ele>25.2</ele>
        <time>2013-03-11T21:54:29Z</time>
      </trkpt>
      <trkpt lat="59.5989264" lon="17.5109304">
        <ele>25.6</ele>
        <time>2013-03-11T21:54:31Z</time>
      </trkpt>
      <trkpt lat="59.599041" lon="17.5108674">
        <ele>25.2</ele>
        <time>2013-03-11T21:54:33Z</time>
      </trkpt>
      <trkpt lat="59.5992803" lon="17.5109027">
        <ele>25.2</ele>
        <time>2013-03-11T21:54:37Z</time>
      </trkpt>
      <trkpt lat="59.5994329" lon="17.5110904">
        <ele>24.6</ele>
        <time>2013-03-11T21:54:40Z</time>
      </trkpt>
      <trkpt lat="59.5994703" lon="17.5111585">
        <ele>24.2</ele>
        <time>2013-03-11T21:54:41Z</time>
      </trkpt>
      <trkpt lat="59.5995741" lon="17.5115134">
        <ele>25.2</ele>
        <time>2013-03-11T21:54:45Z</time>
      </trkpt>
      <trkpt lat="59.5995792" lon="17.5118995">
        <ele>27.6</ele>
        <time>2013-03-11T21:54:49Z</time>
      </trkpt>
      <trkpt lat="59.5994765" lon="17.5122257">
        <ele>25.8</ele>
        <time>2013-03-11T21:54:53Z</time>
      </trkpt>
      <trkpt lat="59.5993019" lon="17.5124067">
        <ele>27.4</ele>
        <time>2013-03-11T21:54:57Z</time>
      </trkpt>
      <trkpt lat="59.599231" lon="17.5124592">
        <ele>29</ele>
        <time>2013-03-11T21:54:59Z</time>
      </trkpt>
      <trkpt lat="59.5991734" lon="17.5126451">
        <ele>31.8</ele>
        <time>2013-03-11T21:55:02Z</time>
      </trkpt>
      <trkpt lat="59.599173" lon="17.5130575">
        <ele>33.6</ele>
        <time>2013-03-11T21:55:07Z</time>
      </trkpt>
      <trkpt lat="59.5990985" lon="17.5134384">
        <ele>33.2</ele>
        <time>2013-03-11T21:55:12Z</time>
      </trkpt>
      <trkpt lat="59.5990721" lon="17.5135003">
        <ele>33.4</ele>
        <time>2013-03-11T21:55:13Z</time>
      </trkpt>
      <trkpt lat="59.5990456" lon="17.5135579">
        <ele>34</ele>
        <time>2013-03-11T21:55:14Z</time>
      </trkpt>
      <trkpt lat="59.5989695" lon="17.5137154">
        <ele>34.4</ele>
        <time>2013-03-11T21:55:17Z</time>
      </trkpt>
      <trkpt lat="59.5987836" lon="17.5138875">
        <ele>35.6</ele>
        <time>2013-03-11T21:55:23Z</time>
      </trkpt>
      <trkpt lat="59.5985772" lon="17.5139273">
        <ele>37.6</ele>
        <time>2013-03-11T21:55:30Z</time>
      </trkpt>
      <trkpt lat="59.5983641" lon="17.5139096">
        <ele>40</ele>
        <time>2013-03-11T21:55:36Z</time>
      </trkpt>
      <trkpt lat="59.5981536" lon="17.5139713">
        <ele>42</ele>
        <time>2013-03-11T21:55:43Z</time>
      </trkpt>
      <trkpt lat="59.5980978" lon="17.513979">
        <ele>43.2</ele>
        <time>2013-03-11T21:55:45Z</time>
      </trkpt>
      <trkpt lat="59.5979702" lon="17.5140345">
        <ele>45.4</ele>
        <time>2013-03-11T21:55:49Z</time>
      </trkpt>
      <trkpt lat="59.5979155" lon="17.5141076">
        <ele>45.4</ele>
        <time>2013-03-11T21:55:51Z</time>
      </trkpt>
      <trkpt lat="59.5978316" lon="17.5142521">
        <ele>45.4</ele>
        <time>2013-03-11T21:55:54Z</time>
      </trkpt>
      <trkpt lat="59.5976886" lon="17.5144918">
        <ele>45</ele>
        <time>2013-03-11T21:55:59Z</time>
      </trkpt>
      <trkpt lat="59.5974865" lon="17.5146469">
        <ele>45.6</ele>
        <time>2013-03-11T21:56:05Z</time>
      </trkpt>
      <trkpt lat="59.5972947" lon="17.5146968">
        <ele>44.8</ele>
        <time>2013-03-11T21:56:10Z</time>
      </trkpt>
      <trkpt lat="59.5971188" lon="17.514775">
        <ele>43.4</ele>
        <time>2013-03-11T21:56:14Z</time>
      </trkpt>
      <trkpt lat="59.5970338" lon="17.514813">
        <ele>43.8</ele>
        <time>2013-03-11T21:56:16Z</time>
      </trkpt>
      <trkpt lat="59.5969178" lon="17.514875">
        <ele>44.6</ele>
        <time>2013-03-11T21:56:19Z</time>
      </trkpt>
      <trkpt lat="59.596884" lon="17.5149066">
        <ele>45.8</ele>
        <time>2013-03-11T21:56:20Z</time>
      </trkpt>
      <trkpt lat="59.5968141" lon="17.5149716">
        <ele>47</ele>
        <time>2013-03-11T21:56:22Z</time>
      </trkpt>
      <trkpt lat="59.5967411" lon="17.5150404">
        <ele>47.8</ele>
        <time>2013-03-11T21:56:24Z</time>
      </trkpt>
      <trkpt lat="59.5967057" lon="17.5150737">
        <ele>47.8</ele>
        <time>2013-03-11T21:56:25Z</time>
      </trkpt>
      <trkpt lat="59.5965468" lon="17.5152192">
        <ele>48.2</ele>
        <time>2013-03-11T21:56:31Z</time>
      </trkpt>
      <trkpt lat="59.5963795" lon="17.5154142">
        <ele>48.8</ele>
        <time>2013-03-11T21:56:37Z</time>
      </trkpt>
      <trkpt lat="59.5961925" lon="17.5156282">
        <ele>50.4</ele>
        <time>2013-03-11T21:56:43Z</time>
      </trkpt>
      <trkpt lat="59.5960237" lon="17.5158324">
        <ele>51.2</ele>
        <time>2013-03-11T21:56:49Z</time>
      </trkpt>
      <trkpt lat="59.5958635" lon="17.5160122">
        <ele>52.2</ele>
        <time>2013-03-11T21:56:54Z</time>
      </trkpt>
      <trkpt lat="59.5957559" lon="17.5162956">
        <ele>52.2</ele>
        <time>2013-03-11T21:56:59Z</time>
      </trkpt>
      <trkpt lat="59.595703" lon="17.5166523">
        <ele>48.6</ele>
        <time>2013-03-11T21:57:04Z</time>
      </trkpt>
      <trkpt lat="59.5956257" lon="17.5170362">
        <ele>49.6</ele>
        <time>2013-03-11T21:57:09Z</time>
      </trkpt>
      <trkpt lat="59.595572" lon="17.5172073">
        <ele>49.6</ele>
        <time>2013-03-11T21:57:11Z</time>
      </trkpt>
      <trkpt lat="59.5954845" lon="17.5173869">
        <ele>48.6</ele>
        <time>2013-03-11T21:57:13Z</time>
      </trkpt>
      <trkpt lat="59.595248" lon="17.5175544">
        <ele>46.4</ele>
        <time>2013-03-11T21:57:16Z</time>
      </trkpt>
      <trkpt lat="59.5951628" lon="17.5175775">
        <ele>45.8</ele>
        <time>2013-03-11T21:57:17Z</time>
      </trkpt>
      <trkpt lat="59.5949969" lon="17.5176222">
        <ele>45.4</ele>
        <time>2013-03-11T21:57:19Z</time>
      </trkpt>
      <trkpt lat="59.5947616" lon="17.5176952">
        <ele>44.8</ele>
        <time>2013-03-11T21:57:22Z</time>
      </trkpt>
      <trkpt lat="59.5945445" lon="17.5177573">
        <ele>44.8</ele>
        <time>2013-03-11T21:57:25Z</time>
      </trkpt>
      <trkpt lat="59.594349" lon="17.5177966">
        <ele>44</ele>
        <time>2013-03-11T21:57:28Z</time>
      </trkpt>
      <trkpt lat="59.5942879" lon="17.5178246">
        <ele>43</ele>
        <time>2013-03-11T21:57:29Z</time>
      </trkpt>
      <trkpt lat="59.594168" lon="17.51791">
        <ele>41.2</ele>
        <time>2013-03-11T21:57:31Z</time>
      </trkpt>
      <trkpt lat="59.5940495" lon="17.5180138">
        <ele>40.6</ele>
        <time>2013-03-11T21:57:33Z</time>
      </trkpt>
      <trkpt lat="59.5939508" lon="17.5180742">
        <ele>39.8</ele>
        <time>2013-03-11T21:57:35Z</time>
      </trkpt>
      <trkpt lat="59.5937355" lon="17.5182013">
        <ele>39.2</ele>
        <time>2013-03-11T21:57:40Z</time>
      </trkpt>
      <trkpt lat="59.5936375" lon="17.5182501">
        <ele>39.4</ele>
        <time>2013-03-11T21:57:42Z</time>
      </trkpt>
      <trkpt lat="59.5935351" lon="17.5183246">
        <ele>39.2</ele>
        <time>2013-03-11T21:57:44Z</time>
      </trkpt>
      <trkpt lat="59.5934916" lon="17.5183626">
        <ele>39</ele>
        <time>2013-03-11T21:57:45Z</time>
      </trkpt>
      <trkpt lat="59.5933598" lon="17.5185376">
        <ele>38.2</ele>
        <time>2013-03-11T21:57:48Z</time>
      </trkpt>
      <trkpt lat="59.5932148" lon="17.5186905">
        <ele>37.2</ele>
        <time>2013-03-11T21:57:51Z</time>
      </trkpt>
      <trkpt lat="59.5931622" lon="17.5187266">
        <ele>37.2</ele>
        <time>2013-03-11T21:57:52Z</time>
      </trkpt>
      <trkpt lat="59.5930486" lon="17.5187898">
        <ele>37.2</ele>
        <time>2013-03-11T21:57:54Z</time>
      </trkpt>
      <trkpt lat="59.5929894" lon="17.5187889">
        <ele>36.4</ele>
        <time>2013-03-11T21:57:55Z</time>
      </trkpt>
      <trkpt lat="59.5927897" lon="17.5185799">
        <ele>35.2</ele>
        <time>2013-03-11T21:57:59Z</time>
      </trkpt>
      <trkpt lat="59.5926173" lon="17.5182863">
        <ele>33.6</ele>
        <time>2013-03-11T21:58:03Z</time>
      </trkpt>
      <trkpt lat="59.5925487" lon="17.5181453">
        <ele>32.4</ele>
        <time>2013-03-11T21:58:05Z</time>
      </trkpt>
      <trkpt lat="59.5925022" lon="17.5179635">
        <ele>32.6</ele>
        <time>2013-03-11T21:58:07Z</time>
      </trkpt>
      <trkpt lat="59.5924872" lon="17.5175225">
        <ele>31.4</ele>
        <time>2013-03-11T21:58:12Z</time>
      </trkpt>
      <trkpt lat="59.5925377" lon="17.5171326">
        <ele>33.6</ele>
        <time>2013-03-11T21:58:16Z</time>
      </trkpt>
      <trkpt lat="59.592551" lon="17.5169472">
        <ele>33.4</ele>
        <time>2013-03-11T21:58:18Z</time>
      </trkpt>
      <trkpt lat="59.5925798" lon="17.516716">
        <ele>33</ele>
        <time>2013-03-11T21:58:20Z</time>
      </trkpt>
      <trkpt lat="59.5926042" lon="17.5165918">
        <ele>32.8</ele>
        <time>2013-03-11T21:58:21Z</time>
      </trkpt>
      <trkpt lat="59.5926789" lon="17.5163577">
        <ele>33.6</ele>
        <time>2013-03-11T21:58:23Z</time>
      </trkpt>
      <trkpt lat="59.592771" lon="17.5161468">
        <ele>34.8</ele>
        <time>2013-03-11T21:58:25Z</time>
      </trkpt>
      <trkpt lat="59.592815" lon="17.5160428">
        <ele>34.4</ele>
        <time>2013-03-11T21:58:26Z</time>
      </trkpt>
      <trkpt lat="59.5929409" lon="17.5156888">
        <ele>34.2</ele>
        <time>2013-03-11T21:58:29Z</time>
      </trkpt>
      <trkpt lat="59.5930647" lon="17.5153122">
        <ele>33</ele>
        <time>2013-03-11T21:58:32Z</time>
      </trkpt>
      <trkpt lat="59.5931989" lon="17.5149555">
        <ele>32.2</ele>
        <time>2013-03-11T21:58:35Z</time>
      </trkpt>
      <trkpt lat="59.5932492" lon="17.5148502">
        <ele>32.4</ele>
        <time>2013-03-11T21:58:36Z</time>
      </trkpt>
      <trkpt lat="59.5933656" lon="17.5147035">
        <ele>32.4</ele>
        <time>2013-03-11T21:58:38Z</time>
      </trkpt>
      <trkpt lat="59.5934832" lon="17.5146202">
        <ele>33.6</ele>
        <time>2013-03-11T21:58:40Z</time>
      </trkpt>
      <trkpt lat="59.5935852" lon="17.5145576">
        <ele>33.6</ele>
        <time>2013-03-11T21:58:42Z</time>
      </trkpt>
      <trkpt lat="59.5936848" lon="17.5145051">
        <ele>33.8</ele>
        <time>2013-03-11T21:58:44Z</time>
      </trkpt>
      <trkpt lat="59.5937756" lon="17.5145064">
        <ele>34.2</ele>
        <time>2013-03-11T21:58:46Z</time>
      </trkpt>
      <trkpt lat="59.5939332" lon="17.5146925">
        <ele>32.4</ele>
        <time>2013-03-11T21:58:50Z</time>
      </trkpt>
      <trkpt lat="59.5939619" lon="17.5147462">
        <ele>32.4</ele>
        <time>2013-03-11T21:58:51Z</time>
      </trkpt>
      <trkpt lat="59.5940166" lon="17.514856">
        <ele>32</ele>
        <time>2013-03-11T21:58:53Z</time>
      </trkpt>
      <trkpt lat="59.5940781" lon="17.5149915">
        <ele>32.8</ele>
        <time>2013-03-11T21:58:55Z</time>
      </trkpt>
      <trkpt lat="59.5941816" lon="17.5151735">
        <ele>33.8</ele>
        <time>2013-03-11T21:58:58Z</time>
      </trkpt>
      <trkpt lat="59.5942442" lon="17.5152538">
        <ele>33.6</ele>
        <time>2013-03-11T21:59:00Z</time>
      </trkpt>
      <trkpt lat="59.5942679" lon="17.5152803">
        <ele>33.2</ele>
        <time>2013-03-11T21:59:01Z</time>
      </trkpt>
      <trkpt lat="59.5944272" lon="17.5153987">
        <ele>34.6</ele>
        <time>2013-03-11T21:59:06Z</time>
      </trkpt>
      <trkpt lat="59.5946004" lon="17.5155227">
        <ele>35.6</ele>
        <time>2013-03-11T21:59:12Z</time>
      </trkpt>
      <trkpt lat="59.5947898" lon="17.515621">
        <ele>36.4</ele>
        <time>2013-03-11T21:59:17Z</time>
      </trkpt>
      <trkpt lat="59.5949761" lon="17.5156782">
        <ele>39.4</ele>
        <time>2013-03-11T21:59:22Z</time>
      </trkpt>
      <trkpt lat="59.5951687" lon="17.5156684">
        <ele>39.4</ele>
        <time>2013-03-11T21:59:27Z</time>
      </trkpt>
      <trkpt lat="59.5953621" lon="17.5155061">
        <ele>42</ele>
        <time>2013-03-11T21:59:33Z</time>
      </trkpt>
      <trkpt lat="59.5954946" lon="17.515264">
        <ele>42.6</ele>
        <time>2013-03-11T21:59:38Z</time>
      </trkpt>
      <trkpt lat="59.5955816" lon="17.5148916">
        <ele>43</ele>
        <time>2013-03-11T21:59:44Z</time>
      </trkpt>
      <trkpt lat="59.5956465" lon="17.5145448">
        <ele>42.2</ele>
        <time>2013-03-11T21:59:48Z</time>
      </trkpt>
      <trkpt lat="59.5956817" lon="17.5143666">
        <ele>41.6</ele>
        <time>2013-03-11T21:59:50Z</time>
      </trkpt>
      <trkpt lat="59.5956952" lon="17.5141843">
        <ele>40.8</ele>
        <time>2013-03-11T21:59:52Z</time>
      </trkpt>
      <trkpt lat="59.595695" lon="17.5140827">
        <ele>40.4</ele>
        <time>2013-03-11T21:59:53Z</time>
      </trkpt>
      <trkpt lat="59.595696" lon="17.5137286">
        <ele>37.8</ele>
        <time>2013-03-11T21:59:56Z</time>
      </trkpt>
      <trkpt lat="59.5957012" lon="17.5135781">
        <ele>36.8</ele>
        <time>2013-03-11T21:59:57Z</time>
      </trkpt>
      <trkpt lat="59.5957294" lon="17.5132624">
        <ele>34.8</ele>
        <time>2013-03-11T21:59:59Z</time>
      </trkpt>
      <trkpt lat="59.5958243" lon="17.5129369">
        <ele>34.2</ele>
        <time>2013-03-11T22:00:01Z</time>
      </trkpt>
      <trkpt lat="59.5960561" lon="17.5127178">
        <ele>35.2</ele>
        <time>2013-03-11T22:00:04Z</time>
      </trkpt>
      <trkpt lat="59.5962205" lon="17.512661">
        <ele>34.6</ele>
        <time>2013-03-11T22:00:06Z</time>
      </trkpt>
      <trkpt lat="59.5962992" lon="17.5126465">
        <ele>34.2</ele>
        <time>2013-03-11T22:00:07Z</time>
      </trkpt>
      <trkpt lat="59.5963712" lon="17.5126253">
        <ele>34.6</ele>
        <time>2013-03-11T22:00:08Z</time>
      </trkpt>
      <trkpt lat="59.5965074" lon="17.5126147">
        <ele>34.8</ele>
        <time>2013-03-11T22:00:10Z</time>
      </trkpt>
      <trkpt lat="59.5967411" lon="17.5125847">
        <ele>36.2</ele>
        <time>2013-03-11T22:00:14Z</time>
      </trkpt>
      <trkpt lat="59.5968473" lon="17.5125673">
        <ele>35.8</ele>
        <time>2013-03-11T22:00:16Z</time>
      </trkpt>
      <trkpt lat="59.5969664" lon="17.5125466">
        <ele>35.8</ele>
        <time>2013-03-11T22:00:18Z</time>
      </trkpt>
      <trkpt lat="59.5971713" lon="17.512438">
        <ele>34.4</ele>
        <time>2013-03-11T22:00:22Z</time>
      </trkpt>
      <trkpt lat="59.5973926" lon="17.5123286">
        <ele>31.4</ele>
        <time>2013-03-11T22:00:26Z</time>
      </trkpt>
      <trkpt lat="59.5975969" lon="17.5122293">
        <ele>31</ele>
        <time>2013-03-11T22:00:30Z</time>
      </trkpt>
      <trkpt lat="59.5978096" lon="17.5120825">
        <ele>31.4</ele>
        <time>2013-03-11T22:00:34Z</time>
      </trkpt>
      <trkpt lat="59.5979999" lon="17.5118712">
        <ele>31.2</ele>
        <time>2013-03-11T22:00:38Z</time>
      </trkpt>
      <trkpt lat="59.5981796" lon="17.5115977">
        <ele>28</ele>
        <time>2013-03-11T22:00:42Z</time>
      </trkpt>
      <trkpt lat="59.5983287" lon="17.5113855">
        <ele>28.4</ele>
        <time>2013-03-11T22:00:45Z</time>
      </trkpt>
      <trkpt lat="59.5985044" lon="17.5112191">
        <ele>28.8</ele>
        <time>2013-03-11T22:00:48Z</time>
      </trkpt>
      <trkpt lat="59.598681" lon="17.511121">
        <ele>30.2</ele>
        <time>2013-03-11T22:00:51Z</time>
      </trkpt>
      <trkpt lat="59.5987934" lon="17.5110733">
        <ele>30.2</ele>
        <time>2013-03-11T22:00:53Z</time>
      </trkpt>
      <trkpt lat="59.598902" lon="17.5110203">
        <ele>29.6</ele>
        <time>2013-03-11T22:00:55Z</time>
      </trkpt>
      <trkpt lat="59.5991175" lon="17.5109295">
        <ele>30</ele>
        <time>2013-03-11T22:00:59Z</time>
      </trkpt>
      <trkpt lat="59.5991746" lon="17.5109247">
        <ele>30</ele>
        <time>2013-03-11T22:01:00Z</time>
      </trkpt>
      <trkpt lat="59.599349" lon="17.5109792">
        <ele>30.2</ele>
        <time>2013-03-11T22:01:03Z</time>
      </trkpt>
      <trkpt lat="59.5995185" lon="17.5112342">
        <ele>30.4</ele>
        <time>2013-03-11T22:01:07Z</time>
      </trkpt>
      <trkpt lat="59.5995638" lon="17.5115651">
        <ele>29.8</ele>
        <time>2013-03-11T22:01:11Z</time>
      </trkpt>
      <trkpt lat="59.599565" lon="17.5116547">
        <ele>30.6</ele>
        <time>2013-03-11T22:01:12Z</time>
      </trkpt>
      <trkpt lat="59.5995244" lon="17.5120203">
        <ele>31.8</ele>
        <time>2013-03-11T22:01:16Z</time>
      </trkpt>
      <trkpt lat="59.599502" lon="17.5121024">
        <ele>32.2</ele>
        <time>2013-03-11T22:01:17Z</time>
      </trkpt>
      <trkpt lat="59.5993974" lon="17.5122871">
        <ele>33.6</ele>
        <time>2013-03-11T22:01:20Z</time>
      </trkpt>
      <trkpt lat="59.5993091" lon="17.5123665">
        <ele>35</ele>
        <time>2013-03-11T22:01:22Z</time>
      </trkpt>
      <trkpt lat="59.5992352" lon="17.5124545">
        <ele>36.2</ele>
        <time>2013-03-11T22:01:24Z</time>
      </trkpt>
      <trkpt lat="59.599128" lon="17.5128041">
        <ele>36.8</ele>
        <time>2013-03-11T22:01:29Z</time>
      </trkpt>
      <trkpt lat="59.5991208" lon="17.5128874">
        <ele>37</ele>
        <time>2013-03-11T22:01:30Z</time>
      </trkpt>
      <trkpt lat="59.5991287" lon="17.5131829">
        <ele>36.8</ele>
        <time>2013-03-11T22:01:34Z</time>
      </trkpt>
      <trkpt lat="59.599123" lon="17.5132576">
        <ele>36.8</ele>
        <time>2013-03-11T22:01:35Z</time>
      </trkpt>
      <trkpt lat="59.5990377" lon="17.5134901">
        <ele>37.8</ele>
        <time>2013-03-11T22:01:39Z</time>
      </trkpt>
      <trkpt lat="59.5989779" lon="17.5136667">
        <ele>38.2</ele>
        <time>2013-03-11T22:01:42Z</time>
      </trkpt>
      <trkpt lat="59.5988973" lon="17.5138044">
        <ele>36.4</ele>
        <time>2013-03-11T22:01:45Z</time>
      </trkpt>
      <trkpt lat="59.5987013" lon="17.5139464">
        <ele>36.6</ele>
        <time>2013-03-11T22:01:51Z</time>
      </trkpt>
      <trkpt lat="59.5984981" lon="17.5139485">
        <ele>40.4</ele>
        <time>2013-03-11T22:01:57Z</time>
      </trkpt>
      <trkpt lat="59.5983109" lon="17.5139731">
        <ele>40.4</ele>
        <time>2013-03-11T22:02:02Z</time>
      </trkpt>
      <trkpt lat="59.5981023" lon="17.5139769">
        <ele>43.6</ele>
        <time>2013-03-11T22:02:09Z</time>
      </trkpt>
      <trkpt lat="59.5979143" lon="17.5140805">
        <ele>44.4</ele>
        <time>2013-03-11T22:02:15Z</time>
      </trkpt>
      <trkpt lat="59.597776" lon="17.5143126">
        <ele>45.4</ele>
        <time>2013-03-11T22:02:20Z</time>
      </trkpt>
      <trkpt lat="59.597629" lon="17.5145604">
        <ele>47</ele>
        <time>2013-03-11T22:02:25Z</time>
      </trkpt>
      <trkpt lat="59.5974496" lon="17.5146815">
        <ele>46.6</ele>
        <time>2013-03-11T22:02:30Z</time>
      </trkpt>
      <trkpt lat="59.5972382" lon="17.5147447">
        <ele>48.2</ele>
        <time>2013-03-11T22:02:35Z</time>
      </trkpt>
      <trkpt lat="59.5970451" lon="17.514825">
        <ele>48.4</ele>
        <time>2013-03-11T22:02:41Z</time>
      </trkpt>
      <trkpt lat="59.5968883" lon="17.5148959">
        <ele>49.6</ele>
        <time>2013-03-11T22:02:46Z</time>
      </trkpt>
      <trkpt lat="59.5968527" lon="17.5149253">
        <ele>50.2</ele>
        <time>2013-03-11T22:02:47Z</time>
      </trkpt>
      <trkpt lat="59.5966685" lon="17.5151182">
        <ele>49.6</ele>
        <time>2013-03-11T22:02:53Z</time>
      </trkpt>
      <trkpt lat="59.5964837" lon="17.5152992">
        <ele>51.4</ele>
        <time>2013-03-11T22:03:01Z</time>
      </trkpt>
      <trkpt lat="59.5963228" lon="17.5154809">
        <ele>50.8</ele>
        <time>2013-03-11T22:03:07Z</time>
      </trkpt>
      <trkpt lat="59.5961615" lon="17.5156419">
        <ele>49.6</ele>
        <time>2013-03-11T22:03:12Z</time>
      </trkpt>
      <trkpt lat="59.5959868" lon="17.5158553">
        <ele>49</ele>
        <time>2013-03-11T22:03:18Z</time>
      </trkpt>
      <trkpt lat="59.5958309" lon="17.5160946">
        <ele>50.8</ele>
        <time>2013-03-11T22:03:24Z</time>
      </trkpt>
      <trkpt lat="59.5957298" lon="17.5164261">
        <ele>51</ele>
        <time>2013-03-11T22:03:30Z</time>
      </trkpt>
      <trkpt lat="59.5956828" lon="17.5167867">
        <ele>50.2</ele>
        <time>2013-03-11T22:03:35Z</time>
      </trkpt>
      <trkpt lat="59.5955694" lon="17.5171399">
        <ele>48.8</ele>
        <time>2013-03-11T22:03:40Z</time>
      </trkpt>
      <trkpt lat="59.5954358" lon="17.5174082">
        <ele>48.2</ele>
        <time>2013-03-11T22:03:43Z</time>
      </trkpt>
      <trkpt lat="59.595274" lon="17.5175215">
        <ele>47.6</ele>
        <time>2013-03-11T22:03:45Z</time>
      </trkpt>
      <trkpt lat="59.5951055" lon="17.5175775">
        <ele>47.2</ele>
        <time>2013-03-11T22:03:47Z</time>
      </trkpt>
      <trkpt lat="59.5950228" lon="17.517601">
        <ele>47.2</ele>
        <time>2013-03-11T22:03:48Z</time>
      </trkpt>
      <trkpt lat="59.5947893" lon="17.5176836">
        <ele>47</ele>
        <time>2013-03-11T22:03:51Z</time>
      </trkpt>
      <trkpt lat="59.5945709" lon="17.5177497">
        <ele>47.2</ele>
        <time>2013-03-11T22:03:54Z</time>
      </trkpt>
      <trkpt lat="59.5943794" lon="17.5178192">
        <ele>47.2</ele>
        <time>2013-03-11T22:03:57Z</time>
      </trkpt>
      <trkpt lat="59.5942137" lon="17.5179491">
        <ele>47</ele>
        <time>2013-03-11T22:04:00Z</time>
      </trkpt>
      <trkpt lat="59.5941694" lon="17.5179957">
        <ele>47.2</ele>
        <time>2013-03-11T22:04:01Z</time>
      </trkpt>
      <trkpt lat="59.5939656" lon="17.5181219">
        <ele>46.8</ele>
        <time>2013-03-11T22:04:06Z</time>
      </trkpt>
      <trkpt lat="59.5939272" lon="17.5181457">
        <ele>46.2</ele>
        <time>2013-03-11T22:04:07Z</time>
      </trkpt>
      <trkpt lat="59.593778" lon="17.5182149">
        <ele>45.4</ele>
        <time>2013-03-11T22:04:11Z</time>
      </trkpt>
      <trkpt lat="59.593578" lon="17.5183348">
        <ele>43.8</ele>
        <time>2013-03-11T22:04:16Z</time>
      </trkpt>
      <trkpt lat="59.59349" lon="17.5184101">
        <ele>43.6</ele>
        <time>2013-03-11T22:04:18Z</time>
      </trkpt>
      <trkpt lat="59.5934039" lon="17.5185193">
        <ele>43.2</ele>
        <time>2013-03-11T22:04:20Z</time>
      </trkpt>
      <trkpt lat="59.5933206" lon="17.5186166">
        <ele>42.6</ele>
        <time>2013-03-11T22:04:22Z</time>
      </trkpt>
      <trkpt lat="59.5932363" lon="17.5186873">
        <ele>43</ele>
        <time>2013-03-11T22:04:24Z</time>
      </trkpt>
      <trkpt lat="59.5930117" lon="17.5187446">
        <ele>42.6</ele>
        <time>2013-03-11T22:04:29Z</time>
      </trkpt>
      <trkpt lat="59.592955" lon="17.5187307">
        <ele>42</ele>
        <time>2013-03-11T22:04:30Z</time>
      </trkpt>
      <trkpt lat="59.5929051" lon="17.5187172">
        <ele>41.2</ele>
        <time>2013-03-11T22:04:31Z</time>
      </trkpt>
      <trkpt lat="59.5928159" lon="17.5186111">
        <ele>39.8</ele>
        <time>2013-03-11T22:04:33Z</time>
      </trkpt>
      <trkpt lat="59.5926618" lon="17.5183439">
        <ele>37.2</ele>
        <time>2013-03-11T22:04:37Z</time>
      </trkpt>
      <trkpt lat="59.5925239" lon="17.5180801">
        <ele>38.2</ele>
        <time>2013-03-11T22:04:41Z</time>
      </trkpt>
      <trkpt lat="59.5925048" lon="17.5176961">
        <ele>38.2</ele>
        <time>2013-03-11T22:04:46Z</time>
      </trkpt>
      <trkpt lat="59.5925301" lon="17.517461">
        <ele>39.2</ele>
        <time>2013-03-11T22:04:49Z</time>
      </trkpt>
      <trkpt lat="59.5925514" lon="17.5173048">
        <ele>39.2</ele>
        <time>2013-03-11T22:04:51Z</time>
      </trkpt>
      <trkpt lat="59.5925846" lon="17.516965">
        <ele>38.8</ele>
        <time>2013-03-11T22:04:55Z</time>
      </trkpt>
      <trkpt lat="59.592617" lon="17.5166333">
        <ele>38.4</ele>
        <time>2013-03-11T22:04:58Z</time>
      </trkpt>
      <trkpt lat="59.592642" lon="17.5165203">
        <ele>38.6</ele>
        <time>2013-03-11T22:04:59Z</time>
      </trkpt>
      <trkpt lat="59.5927534" lon="17.5162065">
        <ele>39.2</ele>
        <time>2013-03-11T22:05:02Z</time>
      </trkpt>
      <trkpt lat="59.5927942" lon="17.5161084">
        <ele>39</ele>
        <time>2013-03-11T22:05:03Z</time>
      </trkpt>
      <trkpt lat="59.5928689" lon="17.5158972">
        <ele>38.2</ele>
        <time>2013-03-11T22:05:05Z</time>
      </trkpt>
      <trkpt lat="59.5929903" lon="17.5155455">
        <ele>37.6</ele>
        <time>2013-03-11T22:05:08Z</time>
      </trkpt>
      <trkpt lat="59.5931156" lon="17.5151891">
        <ele>36.2</ele>
        <time>2013-03-11T22:05:11Z</time>
      </trkpt>
      <trkpt lat="59.5932014" lon="17.5149653">
        <ele>35.4</ele>
        <time>2013-03-11T22:05:13Z</time>
      </trkpt>
      <trkpt lat="59.5932498" lon="17.5148685">
        <ele>35.4</ele>
        <time>2013-03-11T22:05:14Z</time>
      </trkpt>
      <trkpt lat="59.5934663" lon="17.5146738">
        <ele>35.6</ele>
        <time>2013-03-11T22:05:18Z</time>
      </trkpt>
      <trkpt lat="59.5936875" lon="17.5145841">
        <ele>34</ele>
        <time>2013-03-11T22:05:23Z</time>
      </trkpt>
      <trkpt lat="59.593762" lon="17.5145883">
        <ele>33.8</ele>
        <time>2013-03-11T22:05:25Z</time>
      </trkpt>
      <trkpt lat="59.5937963" lon="17.514597">
        <ele>34</ele>
        <time>2013-03-11T22:05:26Z</time>
      </trkpt>
      <trkpt lat="59.5938531" lon="17.51464">
        <ele>34.2</ele>
        <time>2013-03-11T22:05:28Z</time>
      </trkpt>
      <trkpt lat="59.5938747" lon="17.5146707">
        <ele>34</ele>
        <time>2013-03-11T22:05:29Z</time>
      </trkpt>
      <trkpt lat="59.5940089" lon="17.5149131">
        <ele>38</ele>
        <time>2013-03-11T22:05:36Z</time>
      </trkpt>
      <trkpt lat="59.594143" lon="17.5151559">
        <ele>42</ele>
        <time>2013-03-11T22:05:44Z</time>
      </trkpt>
      <trkpt lat="59.5943127" lon="17.5153461">
        <ele>42</ele>
        <time>2013-03-11T22:05:53Z</time>
      </trkpt>
      <trkpt lat="59.5943359" lon="17.5153599">
        <ele>41.8</ele>
        <time>2013-03-11T22:05:54Z</time>
      </trkpt>
      <trkpt lat="59.5945058" lon="17.5154517">
        <ele>44</ele>
        <time>2013-03-11T22:06:02Z</time>
      </trkpt>
      <trkpt lat="59.5946818" lon="17.5156016">
        <ele>44.4</ele>
        <time>2013-03-11T22:06:09Z</time>
      </trkpt>
      <trkpt lat="59.5948757" lon="17.5156677">
        <ele>45.4</ele>
        <time>2013-03-11T22:06:16Z</time>
      </trkpt>
      <trkpt lat="59.5950583" lon="17.515661">
        <ele>46.8</ele>
        <time>2013-03-11T22:06:22Z</time>
      </trkpt>
      <trkpt lat="59.5952413" lon="17.5156449">
        <ele>46</ele>
        <time>2013-03-11T22:06:27Z</time>
      </trkpt>
      <trkpt lat="59.5953355" lon="17.5155658">
        <ele>45.6</ele>
        <time>2013-03-11T22:06:31Z</time>
      </trkpt>
      <trkpt lat="59.5954016" lon="17.5154258">
        <ele>46</ele>
        <time>2013-03-11T22:06:35Z</time>
      </trkpt>
      <trkpt lat="59.595416" lon="17.5153879">
        <ele>46</ele>
        <time>2013-03-11T22:06:36Z</time>
      </trkpt>
      <trkpt lat="59.5955257" lon="17.5151331">
        <ele>46.2</ele>
        <time>2013-03-11T22:06:42Z</time>
      </trkpt>
      <trkpt lat="59.59559" lon="17.5148191">
        <ele>46.2</ele>
        <time>2013-03-11T22:06:47Z</time>
      </trkpt>
      <trkpt lat="59.5956667" lon="17.5144411">
        <ele>45.8</ele>
        <time>2013-03-11T22:06:52Z</time>
      </trkpt>
      <trkpt lat="59.5956873" lon="17.5141146">
        <ele>44.2</ele>
        <time>2013-03-11T22:06:56Z</time>
      </trkpt>
      <trkpt lat="59.5956825" lon="17.5140299">
        <ele>44</ele>
        <time>2013-03-11T22:06:57Z</time>
      </trkpt>
      <trkpt lat="59.595676" lon="17.5139279">
        <ele>43.4</ele>
        <time>2013-03-11T22:06:58Z</time>
      </trkpt>
      <trkpt lat="59.5956797" lon="17.5136841">
        <ele>42.6</ele>
        <time>2013-03-11T22:07:00Z</time>
      </trkpt>
      <trkpt lat="59.5957142" lon="17.513255">
        <ele>41.2</ele>
        <time>2013-03-11T22:07:03Z</time>
      </trkpt>
      <trkpt lat="59.5958515" lon="17.5128809">
        <ele>39</ele>
        <time>2013-03-11T22:07:06Z</time>
      </trkpt>
      <trkpt lat="59.5960771" lon="17.512732">
        <ele>38</ele>
        <time>2013-03-11T22:07:09Z</time>
      </trkpt>
      <trkpt lat="59.5963017" lon="17.5126564">
        <ele>36.6</ele>
        <time>2013-03-11T22:07:12Z</time>
      </trkpt>
      <trkpt lat="59.5964917" lon="17.5126245">
        <ele>37.4</ele>
        <time>2013-03-11T22:07:15Z</time>
      </trkpt>
      <trkpt lat="59.5967039" lon="17.5126089">
        <ele>37.8</ele>
        <time>2013-03-11T22:07:19Z</time>
      </trkpt>
      <trkpt lat="59.5968522" lon="17.5125924">
        <ele>36.6</ele>
        <time>2013-03-11T22:07:22Z</time>
      </trkpt>
      <trkpt lat="59.5968975" lon="17.5125814">
        <ele>36.2</ele>
        <time>2013-03-11T22:07:23Z</time>
      </trkpt>
      <trkpt lat="59.5969403" lon="17.512565">
        <ele>35.8</ele>
        <time>2013-03-11T22:07:24Z</time>
      </trkpt>
      <trkpt lat="59.5970558" lon="17.5124958">
        <ele>35</ele>
        <time>2013-03-11T22:07:27Z</time>
      </trkpt>
      <trkpt lat="59.5970944" lon="17.5124741">
        <ele>34.6</ele>
        <time>2013-03-11T22:07:28Z</time>
      </trkpt>
      <trkpt lat="59.5972174" lon="17.512409">
        <ele>34.2</ele>
        <time>2013-03-11T22:07:31Z</time>
      </trkpt>
      <trkpt lat="59.5972934" lon="17.5123741">
        <ele>34.2</ele>
        <time>2013-03-11T22:07:33Z</time>
      </trkpt>
      <trkpt lat="59.5975003" lon="17.512282">
        <ele>34.2</ele>
        <time>2013-03-11T22:07:38Z</time>
      </trkpt>
      <trkpt lat="59.5976963" lon="17.5121452">
        <ele>33.4</ele>
        <time>2013-03-11T22:07:43Z</time>
      </trkpt>
      <trkpt lat="59.5978706" lon="17.5119863">
        <ele>32.2</ele>
        <time>2013-03-11T22:07:47Z</time>
      </trkpt>
      <trkpt lat="59.5979164" lon="17.5119381">
        <ele>32.2</ele>
        <time>2013-03-11T22:07:48Z</time>
      </trkpt>
      <trkpt lat="59.59804" lon="17.5117718">
        <ele>30.6</ele>
        <time>2013-03-11T22:07:51Z</time>
      </trkpt>
      <trkpt lat="59.5981867" lon="17.5115592">
        <ele>29.8</ele>
        <time>2013-03-11T22:07:55Z</time>
      </trkpt>
      <trkpt lat="59.5982907" lon="17.5114025">
        <ele>28.2</ele>
        <time>2013-03-11T22:07:58Z</time>
      </trkpt>
      <trkpt lat="59.5983319" lon="17.5113458">
        <ele>27.2</ele>
        <time>2013-03-11T22:07:59Z</time>
      </trkpt>
      <trkpt lat="59.5983788" lon="17.5112895">
        <ele>26.8</ele>
        <time>2013-03-11T22:08:00Z</time>
      </trkpt>
      <trkpt lat="59.5985292" lon="17.511173">
        <ele>26.4</ele>
        <time>2013-03-11T22:08:03Z</time>
      </trkpt>
      <trkpt lat="59.5985759" lon="17.5111507">
        <ele>26.4</ele>
        <time>2013-03-11T22:08:04Z</time>
      </trkpt>
      <trkpt lat="59.5986166" lon="17.5111273">
        <ele>26.2</ele>
        <time>2013-03-11T22:08:05Z</time>
      </trkpt>
      <trkpt lat="59.5987354" lon="17.511046">
        <ele>26.6</ele>
        <time>2013-03-11T22:08:08Z</time>
      </trkpt>
      <trkpt lat="59.5989487" lon="17.5109014">
        <ele>26.6</ele>
        <time>2013-03-11T22:08:13Z</time>
      </trkpt>
      <trkpt lat="59.5990027" lon="17.5108843">
        <ele>26.8</ele>
        <time>2013-03-11T22:08:14Z</time>
      </trkpt>
      <trkpt lat="59.5991048" lon="17.5108664">
        <ele>26.6</ele>
        <time>2013-03-11T22:08:16Z</time>
      </trkpt>
      <trkpt lat="59.5991596" lon="17.5108756">
        <ele>26.8</ele>
        <time>2013-03-11T22:08:17Z</time>
      </trkpt>
      <trkpt lat="59.5993585" lon="17.5110616">
        <ele>26.6</ele>
        <time>2013-03-11T22:08:21Z</time>
      </trkpt>
      <trkpt lat="59.5994803" lon="17.5113258">
        <ele>27.2</ele>
        <time>2013-03-11T22:08:25Z</time>
      </trkpt>
      <trkpt lat="59.5995148" lon="17.5117444">
        <ele>28.4</ele>
        <time>2013-03-11T22:08:31Z</time>
      </trkpt>
      <trkpt lat="59.5994552" lon="17.5120724">
        <ele>29.8</ele>
        <time>2013-03-11T22:08:36Z</time>
      </trkpt>
      <trkpt lat="59.5993366" lon="17.5122906">
        <ele>30.4</ele>
        <time>2013-03-11T22:08:40Z</time>
      </trkpt>
      <trkpt lat="59.5993083" lon="17.5123295">
        <ele>30.6</ele>
        <time>2013-03-11T22:08:41Z</time>
      </trkpt>
      <trkpt lat="59.5991488" lon="17.5125139">
        <ele>32</ele>
        <time>2013-03-11T22:08:46Z</time>
      </trkpt>
      <trkpt lat="59.5991068" lon="17.5128413">
        <ele>34</ele>
        <time>2013-03-11T22:08:51Z</time>
      </trkpt>
      <trkpt lat="59.5991393" lon="17.5132316">
        <ele>35.8</ele>
        <time>2013-03-11T22:08:56Z</time>
      </trkpt>
      <trkpt lat="59.5990336" lon="17.5135371">
        <ele>35.2</ele>
        <time>2013-03-11T22:09:01Z</time>
      </trkpt>
      <trkpt lat="59.5989012" lon="17.5137822">
        <ele>35.4</ele>
        <time>2013-03-11T22:09:06Z</time>
      </trkpt>
      <trkpt lat="59.5987064" lon="17.5139344">
        <ele>37.6</ele>
        <time>2013-03-11T22:09:13Z</time>
      </trkpt>
      <trkpt lat="59.5986824" lon="17.5139386">
        <ele>38.2</ele>
        <time>2013-03-11T22:09:14Z</time>
      </trkpt>
      <trkpt lat="59.5985058" lon="17.5139208">
        <ele>40.4</ele>
        <time>2013-03-11T22:09:20Z</time>
      </trkpt>
      <trkpt lat="59.5983083" lon="17.5139309">
        <ele>42.2</ele>
        <time>2013-03-11T22:09:26Z</time>
      </trkpt>
      <trkpt lat="59.5981231" lon="17.5140112">
        <ele>45</ele>
        <time>2013-03-11T22:09:32Z</time>
      </trkpt>
      <trkpt lat="59.597934" lon="17.5141127">
        <ele>47.2</ele>
        <time>2013-03-11T22:09:39Z</time>
      </trkpt>
      <trkpt lat="59.5977663" lon="17.5143307">
        <ele>46.6</ele>
        <time>2013-03-11T22:09:45Z</time>
      </trkpt>
      <trkpt lat="59.5976072" lon="17.5145598">
        <ele>48.2</ele>
        <time>2013-03-11T22:09:50Z</time>
      </trkpt>
      <trkpt lat="59.5974102" lon="17.5146989">
        <ele>47.2</ele>
        <time>2013-03-11T22:09:56Z</time>
      </trkpt>
      <trkpt lat="59.5972071" lon="17.5147695">
        <ele>45.8</ele>
        <time>2013-03-11T22:10:02Z</time>
      </trkpt>
      <trkpt lat="59.5969978" lon="17.5148188">
        <ele>44.6</ele>
        <time>2013-03-11T22:10:08Z</time>
      </trkpt>
      <trkpt lat="59.5968211" lon="17.5149476">
        <ele>44.2</ele>
        <time>2013-03-11T22:10:13Z</time>
      </trkpt>
      <trkpt lat="59.5966654" lon="17.5151259">
        <ele>44.4</ele>
        <time>2013-03-11T22:10:19Z</time>
      </trkpt>
      <trkpt lat="59.5965069" lon="17.5152854">
        <ele>46</ele>
        <time>2013-03-11T22:10:24Z</time>
      </trkpt>
      <trkpt lat="59.5963316" lon="17.5154968">
        <ele>49</ele>
        <time>2013-03-11T22:10:30Z</time>
      </trkpt>
      <trkpt lat="59.596163" lon="17.5156847">
        <ele>50.4</ele>
        <time>2013-03-11T22:10:36Z</time>
      </trkpt>
      <trkpt lat="59.595988" lon="17.5158584">
        <ele>52</ele>
        <time>2013-03-11T22:10:42Z</time>
      </trkpt>
      <trkpt lat="59.5958181" lon="17.5160698">
        <ele>49.8</ele>
        <time>2013-03-11T22:10:48Z</time>
      </trkpt>
      <trkpt lat="59.5957216" lon="17.5163618">
        <ele>49.6</ele>
        <time>2013-03-11T22:10:54Z</time>
      </trkpt>
      <trkpt lat="59.595673" lon="17.5167264">
        <ele>47.6</ele>
        <time>2013-03-11T22:10:59Z</time>
      </trkpt>
      <trkpt lat="59.5955874" lon="17.5170859">
        <ele>48.2</ele>
        <time>2013-03-11T22:11:04Z</time>
      </trkpt>
      <trkpt lat="59.5954875" lon="17.5173327">
        <ele>47.2</ele>
        <time>2013-03-11T22:11:07Z</time>
      </trkpt>
      <trkpt lat="59.5954296" lon="17.5174165">
        <ele>47</ele>
        <time>2013-03-11T22:11:08Z</time>
      </trkpt>
      <trkpt lat="59.5951881" lon="17.5175569">
        <ele>46.2</ele>
        <time>2013-03-11T22:11:11Z</time>
      </trkpt>
      <trkpt lat="59.5951048" lon="17.5175787">
        <ele>46</ele>
        <time>2013-03-11T22:11:12Z</time>
      </trkpt>
      <trkpt lat="59.5949508" lon="17.5176288">
        <ele>46</ele>
        <time>2013-03-11T22:11:14Z</time>
      </trkpt>
      <trkpt lat="59.5947395" lon="17.517689">
        <ele>45.8</ele>
        <time>2013-03-11T22:11:17Z</time>
      </trkpt>
      <trkpt lat="59.5945545" lon="17.517746">
        <ele>45.8</ele>
        <time>2013-03-11T22:11:20Z</time>
      </trkpt>
      <trkpt lat="59.5945001" lon="17.5177634">
        <ele>45.8</ele>
        <time>2013-03-11T22:11:21Z</time>
      </trkpt>
      <trkpt lat="59.5943126" lon="17.517843">
        <ele>44.6</ele>
        <time>2013-03-11T22:11:25Z</time>
      </trkpt>
      <trkpt lat="59.5942251" lon="17.5179315">
        <ele>44</ele>
        <time>2013-03-11T22:11:27Z</time>
      </trkpt>
      <trkpt lat="59.5941842" lon="17.5179708">
        <ele>43.8</ele>
        <time>2013-03-11T22:11:28Z</time>
      </trkpt>
      <trkpt lat="59.5941096" lon="17.5180297">
        <ele>44.2</ele>
        <time>2013-03-11T22:11:30Z</time>
      </trkpt>
      <trkpt lat="59.5940073" lon="17.5181003">
        <ele>44.6</ele>
        <time>2013-03-11T22:11:33Z</time>
      </trkpt>
      <trkpt lat="59.5939308" lon="17.5181411">
        <ele>44.8</ele>
        <time>2013-03-11T22:11:35Z</time>
      </trkpt>
      <trkpt lat="59.5938006" lon="17.5182271">
        <ele>46.2</ele>
        <time>2013-03-11T22:11:38Z</time>
      </trkpt>
      <trkpt lat="59.593751" lon="17.5182535">
        <ele>46.6</ele>
        <time>2013-03-11T22:11:39Z</time>
      </trkpt>
      <trkpt lat="59.5935675" lon="17.5183277">
        <ele>47.2</ele>
        <time>2013-03-11T22:11:42Z</time>
      </trkpt>
      <trkpt lat="59.5933543" lon="17.5185371">
        <ele>47.2</ele>
        <time>2013-03-11T22:11:46Z</time>
      </trkpt>
      <trkpt lat="59.5931759" lon="17.5187236">
        <ele>47.2</ele>
        <time>2013-03-11T22:11:49Z</time>
      </trkpt>
      <trkpt lat="59.5931104" lon="17.5187674">
        <ele>47.2</ele>
        <time>2013-03-11T22:11:50Z</time>
      </trkpt>
      <trkpt lat="59.5929775" lon="17.5188314">
        <ele>47</ele>
        <time>2013-03-11T22:11:52Z</time>
      </trkpt>
      <trkpt lat="59.5929067" lon="17.51883">
        <ele>47.2</ele>
        <time>2013-03-11T22:11:53Z</time>
      </trkpt>
      <trkpt lat="59.5928086" lon="17.5186642">
        <ele>44</ele>
        <time>2013-03-11T22:11:55Z</time>
      </trkpt>
      <trkpt lat="59.5926959" lon="17.5184926">
        <ele>42</ele>
        <time>2013-03-11T22:11:57Z</time>
      </trkpt>
      <trkpt lat="59.5926411" lon="17.518395">
        <ele>42.6</ele>
        <time>2013-03-11T22:11:58Z</time>
      </trkpt>
      <trkpt lat="59.5925299" lon="17.5180962">
        <ele>41.8</ele>
        <time>2013-03-11T22:12:01Z</time>
      </trkpt>
    </trkseg>
  </trk>
</gpx>